[[{"header":{"parameterUnit":"m.s-1","parameterCategory":1,"la1":30.6,"la2":29.2853,"lo1":-89.7004,"lo2":-87.6739,"dy":0.0162,"dx":0.0183,"nx":112,"ny":82,"refTime":"2024-05-07T00:00:00:Z","depth":0,"parameterNumber":2,"parameterNumberName":"U-component_of_WINDS"},"data":[0.0,0.0,0.0,0.0,0.0,0.0,0.0,0.0,0.0,0.0,0.0,0.0,0.0,0.0,0.0,0.0,0.0,0.0,0.0,0.0,0.0,0.0,0.0,0.0,0.0,0.0,0.0,0.0,0.0,0.0,0.0,0.0,0.0,0.0,0.0,0.0,0.0,0.0,0.0,0.0,0.0,0.0,0.0,0.0,0.0,0.0,0.0,0.0,0.0,0.0,0.0,0.0,0.0,0.0,0.0,0.0,0.0,0.0,0.0,0.0,0.0,0.0,0.0,0.0,0.0,0.0,0.0,0.0,0.0,0.0,0.0,0.0,0.0,0.0,0.0,0.0,0.0,0.0,0.0,0.0,0.0,0.0,0.0,0.0,0.0,0.0,0.0,0.0,0.0,0.0,0.0,-6.1305,-7.2457,-7.918,-7.8359,-7.6875,-7.1211,-5.9922,0.0,0.0,0.0,0.0,0.0,0.0,0.0,0.0,0.0,0.0,0.0,0.0,0.0,0.0,0.0,0.0,0.0,0.0,0.0,0.0,0.0,0.0,0.0,0.0,0.0,0.0,0.0,0.0,0.0,0.0,0.0,0.0,0.0,0.0,0.0,0.0,0.0,0.0,0.0,0.0,0.0,0.0,0.0,0.0,0.0,0.0,0.0,0.0,0.0,0.0,0.0,0.0,0.0,0.0,0.0,0.0,0.0,0.0,0.0,0.0,0.0,0.0,0.0,0.0,0.0,0.0,0.0,0.0,0.0,0.0,0.0,0.0,0.0,0.0,0.0,0.0,0.0,0.0,0.0,0.0,0.0,0.0,0.0,0.0,0.0,0.0,0.0,0.0,0.0,0.0,0.0,0.0,0.0,0.0,0.0,0.0,0.0,0.0,0.0,0.0,0.0,0.0,0.0,0.0,-5.621,-6.789,-7.4844,-7.832,-7.7461,-7.3242,-6.7383,-5.9687,0.0,0.0,0.0,0.0,0.0,0.0,0.0,0.0,0.0,0.0,0.0,0.0,0.0,0.0,0.0,0.0,0.0,0.0,0.0,0.0,0.0,0.0,0.0,0.0,0.0,0.0,0.0,0.0,0.0,0.0,0.0,0.0,0.0,0.0,0.0,0.0,0.0,0.0,0.0,0.0,0.0,0.0,0.0,0.0,0.0,0.0,0.0,0.0,0.0,0.0,0.0,0.0,0.0,0.0,0.0,0.0,0.0,0.0,0.0,0.0,0.0,0.0,0.0,0.0,0.0,0.0,0.0,0.0,0.0,0.0,0.0,0.0,0.0,0.0,0.0,0.0,0.0,0.0,0.0,0.0,0.0,0.0,0.0,0.0,0.0,0.0,0.0,0.0,0.0,0.0,0.0,0.0,0.0,0.0,0.0,0.0,0.0,0.0,0.0,0.0,0.0,0.0,0.0,-5.57,-6.101,-7.1679,-7.6211,-7.8164,-7.7265,-7.2851,-6.6991,-5.9563,-5.5564,0.0,0.0,0.0,0.0,0.0,0.0,0.0,0.0,0.0,0.0,0.0,0.0,0.0,0.0,0.0,0.0,0.0,0.0,0.0,0.0,0.0,0.0,0.0,0.0,0.0,0.0,0.0,0.0,0.0,0.0,0.0,0.0,0.0,0.0,0.0,0.0,0.0,0.0,0.0,0.0,0.0,0.0,0.0,0.0,0.0,0.0,0.0,0.0,0.0,0.0,0.0,0.0,0.0,0.0,0.0,0.0,0.0,0.0,0.0,0.0,0.0,0.0,0.0,0.0,0.0,0.0,0.0,0.0,0.0,0.0,0.0,0.0,0.0,0.0,0.0,0.0,0.0,0.0,0.0,0.0,0.0,0.0,0.0,0.0,0.0,0.0,0.0,0.0,0.0,0.0,0.0,0.0,0.0,0.0,0.0,0.0,0.0,0.0,0.0,0.0,0.0,0.0,-6.1006,-6.5381,-7.289,-7.6015,-7.7148,-7.6055,-7.125,-6.535,-5.8529,-5.2341,0.0,0.0,0.0,0.0,0.0,0.0,0.0,0.0,0.0,0.0,0.0,0.0,0.0,0.0,0.0,0.0,0.0,0.0,0.0,0.0,0.0,0.0,0.0,0.0,0.0,0.0,0.0,0.0,0.0,0.0,0.0,0.0,0.0,0.0,0.0,0.0,0.0,0.0,0.0,0.0,0.0,0.0,0.0,0.0,0.0,0.0,0.0,0.0,0.0,0.0,0.0,0.0,0.0,0.0,0.0,0.0,0.0,0.0,0.0,0.0,0.0,0.0,0.0,0.0,0.0,0.0,0.0,0.0,0.0,0.0,0.0,0.0,0.0,0.0,0.0,0.0,0.0,0.0,0.0,0.0,0.0,0.0,0.0,0.0,0.0,0.0,0.0,0.0,0.0,0.0,0.0,0.0,0.0,0.0,0.0,0.0,0.0,0.0,0.0,0.0,0.0,0.0,-6.0776,-6.6758,-7.0586,-7.332,-7.418,-7.25,-6.5469,-5.949,-5.5638,-4.7421,0.0,0.0,0.0,0.0,0.0,0.0,0.0,0.0,0.0,0.0,0.0,0.0,0.0,0.0,0.0,0.0,0.0,0.0,0.0,0.0,0.0,0.0,0.0,0.0,0.0,0.0,0.0,0.0,0.0,0.0,0.0,0.0,0.0,0.0,0.0,0.0,0.0,0.0,0.0,0.0,0.0,0.0,0.0,0.0,0.0,0.0,0.0,0.0,0.0,0.0,0.0,0.0,0.0,0.0,0.0,0.0,0.0,0.0,0.0,0.0,0.0,0.0,0.0,0.0,0.0,0.0,0.0,0.0,0.0,0.0,0.0,0.0,0.0,0.0,0.0,0.0,0.0,0.0,0.0,0.0,0.0,0.0,0.0,0.0,0.0,0.0,0.0,0.0,0.0,0.0,0.0,0.0,0.0,0.0,0.0,0.0,0.0,0.0,0.0,0.0,0.0,0.0,-5.9644,-6.5312,0.0,-7.2383,-7.25,-7.1289,-6.6055,-6.0384,-5.4577,0.0,0.0,0.0,0.0,0.0,0.0,0.0,0.0,0.0,0.0,0.0,0.0,0.0,0.0,0.0,0.0,0.0,0.0,0.0,0.0,0.0,0.0,0.0,0.0,0.0,0.0,0.0,0.0,0.0,0.0,0.0,0.0,0.0,0.0,0.0,0.0,0.0,0.0,0.0,0.0,0.0,0.0,0.0,0.0,0.0,0.0,0.0,0.0,0.0,0.0,0.0,0.0,0.0,0.0,0.0,0.0,0.0,0.0,0.0,0.0,0.0,0.0,0.0,0.0,0.0,0.0,0.0,0.0,0.0,0.0,0.0,0.0,0.0,0.0,0.0,0.0,0.0,0.0,0.0,0.0,0.0,0.0,0.0,0.0,0.0,0.0,0.0,0.0,0.0,0.0,0.0,0.0,0.0,0.0,0.0,0.0,0.0,0.0,0.0,0.0,0.0,0.0,-5.3582,-5.8625,-6.3945,0.0,-7.0625,-7.0312,-6.918,-6.3867,-5.8431,-5.3241,0.0,0.0,0.0,0.0,0.0,0.0,0.0,0.0,0.0,0.0,0.0,0.0,0.0,0.0,0.0,0.0,0.0,0.0,0.0,0.0,0.0,0.0,0.0,0.0,0.0,0.0,0.0,0.0,0.0,0.0,0.0,0.0,0.0,0.0,0.0,0.0,0.0,0.0,0.0,0.0,0.0,0.0,0.0,0.0,0.0,0.0,0.0,0.0,0.0,0.0,0.0,0.0,0.0,0.0,0.0,0.0,0.0,0.0,0.0,0.0,0.0,0.0,0.0,0.0,0.0,0.0,0.0,0.0,0.0,0.0,0.0,0.0,0.0,0.0,0.0,0.0,0.0,0.0,0.0,0.0,0.0,0.0,0.0,0.0,0.0,0.0,0.0,0.0,0.0,0.0,0.0,0.0,0.0,0.0,0.0,0.0,0.0,0.0,0.0,0.0,0.0,0.0,-5.1955,-5.7832,-6.3008,-6.6523,-6.7656,-6.7461,-6.5703,-5.7695,-5.2302,0.0,0.0,0.0,0.0,0.0,0.0,0.0,0.0,0.0,0.0,0.0,0.0,0.0,0.0,0.0,0.0,0.0,0.0,0.0,0.0,0.0,0.0,0.0,0.0,0.0,0.0,0.0,0.0,0.0,0.0,0.0,0.0,0.0,0.0,0.0,0.0,0.0,0.0,0.0,0.0,0.0,0.0,0.0,0.0,0.0,0.0,0.0,0.0,0.0,0.0,0.0,0.0,0.0,0.0,0.0,0.0,0.0,0.0,0.0,0.0,0.0,0.0,0.0,0.0,0.0,0.0,0.0,0.0,0.0,0.0,0.0,0.0,0.0,0.0,0.0,0.0,0.0,0.0,0.0,0.0,0.0,0.0,0.0,0.0,0.0,0.0,0.0,0.0,0.0,0.0,0.0,0.0,0.0,0.0,0.0,0.0,0.0,0.0,0.0,0.0,0.0,0.0,0.0,-5.1947,-5.6816,-6.1484,-6.5547,-6.5664,-6.5,-6.3867,-5.8672,-5.3747,-4.9735,0.0,0.0,0.0,0.0,0.0,0.0,0.0,0.0,0.0,0.0,0.0,0.0,0.0,0.0,0.0,0.0,0.0,0.0,0.0,0.0,0.0,0.0,0.0,0.0,0.0,0.0,0.0,0.0,0.0,0.0,0.0,0.0,0.0,0.0,0.0,0.0,0.0,0.0,0.0,0.0,0.0,0.0,0.0,0.0,0.0,0.0,0.0,0.0,0.0,0.0,0.0,0.0,0.0,0.0,0.0,0.0,0.0,0.0,0.0,0.0,0.0,0.0,0.0,0.0,0.0,0.0,0.0,0.0,0.0,0.0,0.0,0.0,0.0,0.0,0.0,0.0,0.0,0.0,0.0,0.0,0.0,0.0,0.0,0.0,0.0,0.0,0.0,0.0,0.0,0.0,0.0,0.0,0.0,0.0,0.0,0.0,0.0,0.0,0.0,0.0,0.0,0.0,-5.1398,-5.5565,-5.9805,-6.4101,-6.3789,-6.289,-6.2031,-5.7695,-5.2968,-4.8035,0.0,0.0,0.0,0.0,0.0,0.0,0.0,0.0,0.0,0.0,0.0,0.0,0.0,0.0,0.0,0.0,0.0,0.0,0.0,0.0,0.0,0.0,0.0,0.0,0.0,0.0,0.0,0.0,0.0,0.0,0.0,0.0,0.0,0.0,0.0,0.0,0.0,0.0,0.0,0.0,0.0,0.0,0.0,0.0,0.0,0.0,0.0,0.0,0.0,0.0,0.0,0.0,0.0,0.0,0.0,0.0,0.0,0.0,0.0,0.0,0.0,0.0,0.0,0.0,0.0,0.0,0.0,0.0,0.0,0.0,0.0,0.0,0.0,0.0,0.0,0.0,0.0,0.0,0.0,0.0,0.0,0.0,0.0,0.0,0.0,0.0,0.0,0.0,0.0,0.0,0.0,0.0,0.0,0.0,0.0,0.0,0.0,0.0,0.0,0.0,0.0,0.0,-5.0537,-5.4198,-5.7969,-6.2187,-6.1875,-6.0976,-6.0117,-5.5469,-5.0742,-4.6445,0.0,0.0,0.0,0.0,0.0,0.0,0.0,0.0,0.0,0.0,0.0,0.0,0.0,0.0,0.0,0.0,0.0,0.0,0.0,0.0,0.0,0.0,0.0,0.0,0.0,0.0,0.0,0.0,0.0,0.0,0.0,0.0,0.0,0.0,0.0,0.0,0.0,0.0,0.0,0.0,0.0,0.0,0.0,0.0,0.0,0.0,0.0,0.0,0.0,0.0,0.0,0.0,0.0,0.0,0.0,0.0,0.0,0.0,0.0,0.0,-5.5781,0.0,0.0,0.0,0.0,0.0,0.0,0.0,0.0,0.0,0.0,0.0,0.0,0.0,0.0,0.0,0.0,0.0,0.0,0.0,0.0,0.0,0.0,0.0,0.0,0.0,0.0,0.0,0.0,0.0,0.0,0.0,0.0,0.0,0.0,0.0,0.0,0.0,0.0,0.0,0.0,0.0,-5.0564,-5.3102,-5.5976,-5.9609,-5.9219,-5.8359,-5.7461,-5.3906,-4.9844,-4.5547,-4.1941,0.0,0.0,0.0,0.0,0.0,0.0,0.0,0.0,0.0,0.0,0.0,0.0,0.0,0.0,0.0,0.0,0.0,0.0,0.0,0.0,0.0,0.0,0.0,0.0,0.0,0.0,0.0,0.0,0.0,0.0,0.0,0.0,0.0,0.0,0.0,0.0,0.0,0.0,0.0,0.0,0.0,0.0,0.0,0.0,0.0,0.0,0.0,0.0,0.0,0.0,0.0,0.0,0.0,0.0,0.0,0.0,0.0,0.0,0.0,0.0,-5.7786,0.0,0.0,0.0,0.0,0.0,0.0,0.0,0.0,0.0,0.0,0.0,0.0,0.0,0.0,0.0,0.0,0.0,0.0,0.0,0.0,0.0,0.0,0.0,0.0,0.0,0.0,0.0,0.0,0.0,0.0,0.0,0.0,0.0,0.0,0.0,0.0,0.0,0.0,0.0,0.0,-5.0559,-5.2436,-5.4726,-5.8203,-5.7812,-5.6758,-5.5469,-5.2578,-4.9141,-4.5234,-4.2106,0.0,0.0,0.0,0.0,0.0,0.0,0.0,0.0,0.0,0.0,0.0,0.0,0.0,0.0,0.0,0.0,0.0,0.0,0.0,0.0,0.0,0.0,0.0,0.0,0.0,0.0,0.0,0.0,0.0,0.0,0.0,0.0,0.0,0.0,0.0,0.0,0.0,0.0,0.0,0.0,0.0,0.0,0.0,0.0,0.0,0.0,0.0,0.0,0.0,0.0,0.0,0.0,0.0,-7.0817,-7.2187,-7.2695,-7.2422,-7.1601,-7.0195,-6.6198,-6.4032,-6.3047,0.0,0.0,0.0,0.0,0.0,0.0,0.0,0.0,0.0,0.0,0.0,0.0,0.0,0.0,0.0,0.0,0.0,0.0,0.0,0.0,0.0,0.0,0.0,0.0,0.0,-5.5898,-5.5625,0.0,0.0,0.0,0.0,0.0,0.0,0.0,0.0,0.0,0.0,0.0,0.0,-5.0131,-5.1577,-5.3555,-5.6875,-5.6289,-5.5117,-5.3672,-5.1211,-4.8398,-4.5195,-4.2617,-3.9881,0.0,0.0,0.0,0.0,0.0,0.0,0.0,0.0,0.0,0.0,0.0,0.0,0.0,0.0,0.0,0.0,0.0,0.0,0.0,0.0,0.0,0.0,0.0,0.0,0.0,0.0,0.0,0.0,0.0,0.0,0.0,0.0,-5.1992,-5.2891,0.0,0.0,0.0,0.0,0.0,0.0,0.0,0.0,0.0,0.0,0.0,0.0,0.0,-6.5625,-6.8085,-7.2265,-7.4844,-7.5859,-7.9844,-8.1406,-8.0703,-7.9219,-7.8828,-7.9219,-7.7148,0.0,-6.5077,-6.3124,0.0,0.0,0.0,0.0,0.0,0.0,0.0,0.0,0.0,0.0,0.0,0.0,0.0,0.0,0.0,0.0,0.0,0.0,0.0,0.0,0.0,0.0,-6.0117,-5.789,-5.8125,-5.8203,0.0,-5.2734,-4.9882,-4.8335,-4.6564,0.0,0.0,0.0,0.0,0.0,0.0,0.0,-4.8483,-4.9819,-5.1562,-5.4219,-5.3047,-5.1992,-5.1758,-4.9414,-4.7109,-4.5117,-4.2617,-4.0976,-4.0507,-3.6758,0.0,0.0,0.0,0.0,0.0,0.0,0.0,0.0,0.0,0.0,0.0,0.0,0.0,0.0,0.0,0.0,0.0,0.0,0.0,0.0,0.0,0.0,0.0,0.0,0.0,0.0,0.0,0.0,0.0,-5.3867,-5.6836,-5.4297,-5.7656,-5.8555,0.0,0.0,0.0,0.0,0.0,0.0,0.0,0.0,0.0,-7.0,-7.1406,-7.3125,-7.5195,-7.9023,-8.1406,-8.2304,-8.5117,-8.6289,-8.5859,-8.4648,-8.375,-8.3125,-8.1914,-7.8398,-7.3203,-6.9023,-6.5547,-6.2422,0.0,0.0,0.0,0.0,-5.7317,-5.7857,-6.0237,-6.0831,0.0,0.0,0.0,0.0,0.0,0.0,0.0,0.0,0.0,0.0,0.0,0.0,0.0,-6.0781,-6.1055,-6.0976,-5.9726,-5.6875,-5.3671,0.0,-5.007,-4.9314,-4.7225,0.0,0.0,0.0,0.0,0.0,-4.9061,-5.0221,-5.1289,-5.2422,-5.1875,-5.082,-4.9375,-4.8242,-4.6875,-4.5117,-4.3047,-4.1445,-4.0508,-3.8164,-3.6718,0.0,0.0,0.0,0.0,0.0,0.0,0.0,0.0,0.0,0.0,0.0,0.0,0.0,0.0,0.0,0.0,0.0,0.0,0.0,0.0,0.0,0.0,0.0,0.0,0.0,0.0,0.0,0.0,-5.8281,-6.0703,-5.6172,-6.1562,-6.3008,0.0,0.0,0.0,0.0,0.0,0.0,-7.0625,-7.1875,-7.3906,-7.7148,-7.8711,-8.0312,-8.1992,-8.4804,-8.6523,-8.7187,-8.8672,-8.914,-8.8672,-8.7851,-8.6562,-8.4844,-8.3984,-8.2383,-7.9922,-7.4336,-7.0273,-6.7226,-6.375,-6.1988,-6.1506,-6.2616,-6.3121,-6.3616,-6.6288,-6.6953,-6.6445,-6.5586,0.0,-6.2265,-5.8164,0.0,0.0,0.0,0.0,-5.6406,-5.8359,-5.9805,-6.1133,-6.2656,-6.3008,-6.2812,-6.2187,-6.0351,-5.7578,0.0,-5.2891,-5.2342,-4.9226,0.0,0.0,0.0,0.0,-4.7966,-4.9454,-5.0306,-5.0859,-5.1055,-5.0703,-4.9648,-4.7773,-4.7187,-4.6367,-4.5078,-4.3359,-4.1758,-4.0273,-3.8984,-3.7344,-3.5391,0.0,0.0,0.0,0.0,0.0,0.0,0.0,0.0,0.0,0.0,0.0,0.0,0.0,0.0,0.0,0.0,0.0,0.0,0.0,0.0,0.0,0.0,0.0,0.0,0.0,0.0,0.0,0.0,0.0,-6.039,-6.7617,0.0,0.0,0.0,0.0,-6.7695,-7.082,-7.4258,-7.7773,-7.9531,-8.164,-8.4297,-8.5273,-8.6562,-8.8242,-8.9258,-8.9765,-8.9804,-9.0742,-9.0312,-8.8672,-8.7851,-8.6562,-8.4844,-8.3984,-8.3047,-8.1836,-7.7422,-7.457,-7.2578,-6.914,-6.7773,-6.7656,-6.6914,-6.7148,-6.789,-6.8086,-6.7031,-6.6328,-7.0273,-6.9336,-6.5976,-6.2461,-5.9648,0.0,0.0,-5.6484,-5.7812,-5.793,-5.9805,-6.1875,-6.2773,-6.3008,-6.3008,-6.293,-6.2187,-6.0234,0.0,-5.3164,-5.0935,-4.9031,0.0,-4.7047,-4.6146,-4.6794,-4.7732,-4.8638,-4.89,-4.9336,-5.0156,-4.8789,-4.7734,-4.7617,-4.6094,-4.5078,-4.5,-4.3359,-4.2031,-4.1172,-3.8711,-3.7305,-3.7187,-3.4766,0.0,0.0,0.0,0.0,0.0,0.0,0.0,0.0,0.0,0.0,0.0,0.0,0.0,0.0,0.0,0.0,0.0,0.0,0.0,0.0,0.0,0.0,0.0,0.0,0.0,0.0,0.0,0.0,-6.957,-7.5195,0.0,-7.0156,-7.1445,-7.3515,-7.5469,-7.8281,-8.1445,-8.4883,-8.6172,-8.7461,-8.8984,-8.9336,-8.9765,-9.0351,-9.0664,-9.0547,-9.0,-9.0312,-8.9844,-8.8672,-8.7851,-8.6562,-8.4844,-8.3984,-8.3125,-8.2187,-8.0664,-7.8672,-7.6367,-7.3437,-7.1992,-7.1445,-7.1133,-7.1211,-7.1484,-7.1484,-7.1094,-7.0351,-6.9101,-6.7148,-6.4805,-6.2422,-6.0664,-5.9492,-5.9453,-5.9453,-5.9765,-6.0898,-6.1445,-6.1914,-6.2773,-6.2578,-6.2148,-6.2148,-6.1484,-6.0273,-5.8203,-5.6133,-5.4023,-5.1676,-5.0112,-4.8899,-4.799,-4.8622,-4.9097,-4.8863,-4.9374,-4.9414,-4.8594,-4.7969,-4.7148,-4.6016,-4.4844,-4.3711,-4.2617,-4.1445,-4.0391,-3.957,-3.8086,-3.7031,-3.6484,-3.5,-3.4375,0.0,0.0,0.0,0.0,0.0,0.0,0.0,0.0,0.0,0.0,0.0,0.0,0.0,0.0,0.0,0.0,0.0,0.0,0.0,0.0,0.0,0.0,0.0,0.0,0.0,0.0,-7.4922,-7.4648,-8.0703,-8.2656,-7.6875,-7.8672,-8.1054,-8.3047,-8.5039,-8.7422,-9.0312,-9.0703,-9.1015,-9.1289,-9.1601,-9.1445,-9.0859,-9.1133,-9.0703,-8.957,-8.9297,-8.8554,-8.7383,-8.6562,-8.539,-8.3984,-8.3398,-8.2812,-8.2265,-8.1992,-8.0859,-7.914,-7.7109,-7.5976,-7.539,-7.4805,-7.4609,-7.4531,-7.3945,-7.3555,-7.2695,-6.8945,-6.6992,-6.5625,-6.3281,-6.2187,-6.1719,-6.1719,-6.1289,-6.1094,-6.2265,-6.2148,-6.1836,-6.2422,-6.2109,-6.1601,-6.1328,-6.082,-6.0078,-5.8984,-5.7812,-5.6211,-5.3594,-5.1953,-5.0859,-5.0273,-5.0195,-5.0078,-4.9766,-4.9766,-4.9219,-4.7734,-4.7344,-4.6562,-4.5117,-4.4219,-4.2969,-4.1328,-4.0391,-3.9375,-3.8203,-3.7891,-3.7344,-3.6445,-3.5586,-3.5,-3.4687,0.0,0.0,0.0,0.0,0.0,0.0,0.0,0.0,0.0,0.0,0.0,0.0,0.0,0.0,0.0,0.0,0.0,0.0,0.0,0.0,0.0,0.0,0.0,-6.5741,-7.3242,-7.7734,-7.539,-8.3984,-8.7461,-8.0781,-8.539,-8.9179,-9.0039,-9.0898,-9.2109,-9.3828,-9.3086,-9.2226,-9.1367,-9.2148,-9.1758,-9.0039,-9.082,-9.0351,-8.8594,-8.7812,-8.6562,-8.4844,-8.3984,-8.3125,-8.2304,-8.2304,-8.2304,-8.2226,-8.1367,-8.1015,-8.0898,-8.0,-7.9648,-7.9453,-7.7773,-7.7109,-7.6836,-7.5117,-7.3945,-7.2812,-7.0234,-6.9414,-6.8789,-6.5351,-6.4297,-6.3906,-6.2226,-6.1719,-6.1719,-6.1719,-6.1719,-6.1719,-6.1719,-6.1719,-6.1445,-6.0586,-6.039,-5.9883,-5.8203,-5.789,-5.7031,-5.4453,-5.3281,-5.2734,-5.2656,-5.125,0.0,-5.1211,-4.9883,-4.8555,-4.7695,-4.6836,-4.5976,-4.5078,-4.418,-4.293,-4.1211,-4.0273,-3.9023,-3.7344,-3.8086,-3.8125,-3.7266,-3.6445,-3.5586,-3.4766,0.0,0.0,0.0,0.0,0.0,0.0,0.0,0.0,0.0,0.0,0.0,0.0,0.0,0.0,0.0,0.0,0.0,0.0,0.0,0.0,0.0,0.0,-7.0251,-7.1914,-7.7383,-8.2617,-8.6289,-8.9765,-9.1406,-9.0117,-9.0937,-9.164,-9.1875,-9.2695,-9.3398,-9.3867,-9.3672,-9.3125,-9.2265,-9.1875,-9.1133,-9.0,-8.9609,-8.8554,-8.6875,-8.664,-8.5625,-8.3945,-8.3711,-8.3125,-8.2304,-8.2304,-8.2304,-8.2226,-8.1367,-8.1015,-8.0859,-7.9414,-7.8828,-7.8633,-7.6875,-7.5469,-7.4219,-7.3086,-7.2148,-7.1172,-6.9844,-6.8594,-6.7305,-6.5703,-6.4375,-6.3242,-6.2773,-6.2187,-6.1719,-6.1719,-6.1719,-6.1719,-6.1719,-6.1719,-6.1445,-6.0586,-5.9922,-5.9219,-5.8125,-5.7383,-5.6328,-5.4336,-5.3789,-5.3203,-5.1953,-5.0859,0.0,-4.9648,-4.8633,-4.7851,-4.7617,-4.7383,-4.6641,-4.5117,-4.3633,-4.1758,-3.9453,-3.7891,-3.6875,-3.6367,-3.6601,-3.6601,-3.6367,-3.6133,-3.617,0.0,0.0,0.0,0.0,0.0,0.0,0.0,0.0,0.0,0.0,0.0,0.0,0.0,0.0,0.0,0.0,0.0,0.0,0.0,0.0,0.0,0.0,-7.0642,-7.5525,-7.8515,-8.1797,-8.5625,-9.0195,-9.1836,-9.2929,-9.3828,-9.3789,-9.3672,-9.3672,-9.3828,-9.3906,-9.3906,-9.3554,-9.2969,-9.207,-9.1562,-9.0703,-8.9453,-8.8945,-8.7851,-8.6211,-8.582,-8.4922,-8.3594,-8.3203,-8.2773,0.0,-8.2304,-8.2109,-8.1679,-8.082,-8.0273,0.0,0.0,0.0,0.0,0.0,-7.4492,-7.3164,-7.2305,-7.1445,-7.0508,-6.9297,-6.8008,-6.668,-6.543,-6.4101,-6.293,-6.2578,-6.2109,-6.1719,-6.1719,-6.1719,-6.1719,-6.1719,-6.1406,-6.0937,-6.0078,-5.9258,-5.8398,-5.7539,0.0,0.0,-5.4297,-5.3984,-5.3672,-5.2656,-5.1484,-5.0391,-4.9531,-4.8672,-4.7851,-4.7148,-4.707,-4.6367,-4.4609,-4.3516,0.0,0.0,0.0,-3.6914,-3.6562,-3.6523,0.0,0.0,0.0,-3.7303,-3.7801,0.0,0.0,0.0,-3.8684,-3.9058,0.0,0.0,0.0,0.0,0.0,0.0,0.0,0.0,0.0,0.0,0.0,0.0,0.0,0.0,0.0,0.0,-7.5629,-8.0018,-8.4296,-8.5664,-8.7148,-8.9687,-9.1445,-9.2773,-9.3515,-9.4414,-9.4883,-9.4765,-9.414,-9.375,-9.375,0.0,0.0,0.0,0.0,-9.039,-8.8867,-8.8554,-8.7617,-8.6054,-8.5156,-8.4297,-8.3437,-8.2656,-8.2304,-8.2304,-8.2304,-8.1797,-8.0937,-8.0078,-7.9101,-7.8203,-7.8203,-7.7617,-7.6562,-7.5039,-7.3828,-7.289,-7.2109,0.0,0.0,-6.8672,-6.7461,-6.6328,-6.4765,-6.3633,-6.2695,-6.1914,-6.1719,-6.1719,-6.1719,-6.1719,-6.1719,-6.1719,-6.1015,-6.0195,-5.9375,-5.8515,-5.7656,-5.6758,-5.6601,-5.6055,-5.4297,-5.3984,-5.3945,-5.375,-5.2226,-5.0859,-5.0156,-4.9219,-4.8047,-4.6601,0.0,0.0,-4.4141,-4.3828,-4.2305,-3.9101,-3.8711,-3.8242,-3.7461,-3.7461,-3.7812,-3.8594,-3.8594,-3.8633,-3.875,-3.875,-3.918,-4.0038,-4.0476,-4.0706,0.0,0.0,0.0,0.0,0.0,0.0,0.0,0.0,0.0,0.0,0.0,0.0,0.0,0.0,0.0,-7.2307,-7.7138,-8.1483,-8.4492,-8.5664,-8.7148,-8.9687,-9.0937,-9.1601,-9.1797,-9.2578,-9.2812,-9.2109,-9.2539,-9.2851,-9.2851,-9.2695,0.0,-9.2344,-9.0976,-9.0078,-8.9765,-8.7695,-8.6172,-8.5156,0.0,0.0,-8.2539,-8.2383,-8.2304,-8.2304,-8.2304,-8.1797,-8.0937,-8.0078,-7.8398,-7.6406,-7.6406,-7.543,-7.4023,-7.3672,-7.2539,-7.1172,-7.1015,-6.9961,-6.8633,-6.832,-6.664,-6.4726,-6.4414,-6.3203,0.0,-6.1758,-6.1719,-6.1719,-6.1719,-6.1719,-6.1719,-6.1719,-6.1015,-6.0195,-5.9375,-5.8515,-5.7656,-5.6758,-5.6601,-5.6055,-5.4297,-5.3984,-5.3516,-5.2109,-5.0469,-4.9336,-4.918,-4.7773,-4.6953,-4.7305,-4.7344,-4.6914,-4.5898,-4.4492,-4.2851,-4.082,-3.9375,-3.8516,-3.8359,-3.8359,-3.8437,-3.8594,-3.8594,-3.8945,-3.9648,-3.9648,-4.0036,-4.0755,-4.0188,-4.0287,0.0,0.0,0.0,0.0,0.0,0.0,0.0,0.0,0.0,0.0,0.0,-6.3463,-6.5082,0.0,-7.3585,-7.6555,-7.9998,-8.2773,-8.4062,-8.5,-8.6484,-8.9062,-8.9726,-9.0156,-9.0625,-9.1054,-9.1289,-9.1289,-9.1719,-9.2148,-9.2578,-9.2617,-9.2617,-9.2617,-9.0898,-8.9804,-8.9336,-8.7265,-8.5547,-8.4258,-8.3828,-8.3125,-8.2304,-8.2304,-8.2304,-8.2304,-8.2304,-8.1562,-8.0234,-7.8515,-7.6797,-7.5195,-7.4765,-7.4062,-7.3242,-7.2812,-7.1836,-7.0625,-7.0195,-6.8945,-6.7461,-6.7031,-6.543,-6.3633,-6.3633,-6.2734,-6.1719,-6.1719,-6.1719,-6.1719,-6.1719,-6.1719,-6.1601,-6.1133,-6.039,-5.957,-5.8711,-5.7851,-5.7109,-5.668,-5.6601,-5.6172,-5.4883,-5.4297,-5.3398,-5.1641,-5.0703,-5.0,-4.9609,-4.8398,-4.7617,-4.7617,-4.7226,-4.6601,-4.5703,-4.3672,-4.2109,-4.125,-3.957,-3.8594,-3.8594,-3.8594,-3.8828,-3.9258,-3.9258,-3.9687,-4.0547,-4.0547,-4.0741,-4.1084,-4.0654,-4.0595,0.0,0.0,0.0,0.0,0.0,0.0,0.0,0.0,-6.0469,-6.25,-6.539,-6.8437,-7.1211,-7.4414,-7.7617,-8.0508,-8.2304,-8.3359,-8.3359,-8.4101,-8.539,-8.7461,-8.8008,-8.8476,-8.9179,-8.957,-9.0039,-9.0742,-9.0937,-9.1445,-9.2304,-9.2344,-9.2344,-9.2344,-9.082,-8.9492,-8.8476,-8.6797,-8.5156,-8.3594,-8.3437,-8.2969,-8.2304,-8.2304,-8.2304,-8.2265,-8.1953,-8.1015,-7.9492,-7.6953,-7.539,-7.4492,-7.3633,-7.3203,-7.293,-7.207,-7.1211,-7.0351,-6.9453,-6.8164,-6.6758,-6.5898,-6.4531,-6.3203,-6.3047,-6.2383,-6.1719,-6.1719,-6.1719,-6.1719,-6.1719,-6.1719,-6.1523,-6.082,-5.9922,-5.9023,-5.8281,-5.7344,-5.6601,-5.6601,-5.6601,-5.6328,-5.5469,-5.4726,-5.3672,-5.1914,-5.1367,-5.0937,-5.0273,-4.9453,-4.8555,-4.7695,-4.6953,-4.6133,-4.5078,-4.3125,-4.1797,-4.1445,-4.0117,-3.9258,-3.9101,-3.9101,-3.9453,-4.0156,-4.0156,-4.0508,-4.1211,-4.1211,-4.1211,-4.1211,-4.1211,-4.1081,-5.25,-5.2539,-5.3788,-5.8241,-5.7968,-5.914,0.0,0.0,-6.7969,-7.1172,-7.3398,-7.4844,-7.5234,-7.75,-7.9648,-8.082,-8.1797,-8.2461,-8.2461,-8.3203,-8.3867,-8.414,-8.5547,-8.6523,-8.6601,-8.7969,-8.8906,-8.8984,-8.9726,-9.0547,-9.1406,-9.1445,-9.1445,-9.1445,-9.0508,-8.9258,-8.7656,-8.5898,-8.457,-8.3594,-8.2812,-8.2383,-8.2304,-8.2304,-8.2304,-8.2226,-8.0664,-7.9883,-7.9492,-7.6953,-7.539,-7.4492,-7.3633,-7.2812,-7.2031,-7.1172,-7.0312,-6.9492,-6.8633,-6.7695,-6.6758,-6.5898,-6.4922,-6.4023,-6.3242,-6.2383,-6.1719,-6.1719,-6.1719,-6.1719,-6.1719,-6.1719,-6.168,-6.1562,-6.0351,-5.918,-5.9062,-5.7773,-5.6601,-5.6601,-5.6601,-5.6328,-5.5469,-5.5234,-5.457,-5.2812,-5.1289,-5.0312,-5.0195,-4.9453,-4.8555,-4.7695,-4.75,-4.6797,-4.5156,-4.4726,-4.3906,-4.2344,-4.207,-4.1641,-4.0937,-4.0898,-4.0937,-4.1055,-4.1055,-4.1094,-4.1211,-4.1211,-4.1211,-4.1211,-4.1211,-4.1172,-5.5469,-5.6445,-5.7812,0.0,-6.2656,-6.5312,-7.0039,-7.1133,-7.1875,-7.4297,-7.6562,-7.8281,-7.8789,-8.0156,-8.1328,0.0,-8.207,-8.2304,-8.2304,-8.2187,-8.1914,-8.1406,-8.1953,-8.3203,-8.5234,-8.6094,-8.6914,-8.7929,-8.8359,-8.9336,-9.1211,-9.082,-9.0781,-9.1289,-8.9492,-8.7969,-8.6758,-8.5,-8.3711,-8.2851,-8.2461,-8.2304,-8.2304,-8.2304,-8.2031,-8.1484,-8.0234,-7.9414,-7.8789,-7.6211,-7.4922,-7.4453,-7.3086,-7.2305,-7.1953,-7.1601,-7.0625,-6.9453,-6.9023,-6.7695,-6.6015,-6.5117,-6.4258,-6.3398,-6.25,-6.1992,-6.1719,-6.1719,-6.1719,-6.1719,-6.1719,-6.1328,-6.082,-6.0351,-5.9336,-5.8281,-5.7812,-5.7109,-5.6601,-5.6601,-5.6601,-5.6484,-5.6133,-5.5625,-5.5039,-5.4336,-5.2734,-5.1484,-5.0976,-5.0156,-4.9141,-4.7734,-4.7148,-4.6562,-4.582,-4.5273,-4.4687,-4.3945,-4.2969,-4.2461,-4.2656,-4.2187,-4.1914,-4.1914,-4.1914,-4.168,-4.1211,-4.1211,-4.1211,-4.1211,-4.1211,-4.1211,-5.6172,-5.8555,0.0,-6.2422,-6.668,-7.0742,-7.1445,-7.3398,-7.543,-7.668,-7.8437,-7.9844,-8.0234,-8.1015,-8.1562,-8.1562,-8.1992,-8.2304,-8.2304,-8.1328,-8.039,-7.9765,-7.9297,-8.0117,-8.2851,-8.3789,-8.5,-8.6992,-8.7148,-8.8164,-9.0469,-8.9961,-8.9922,-9.0547,-8.8594,-8.6953,-8.5859,-8.4336,-8.3164,-8.2304,-8.2304,-8.2304,-8.2304,-8.2304,-8.1836,-8.0937,-8.0078,-7.9258,-7.832,-7.5937,-7.4805,-7.4453,-7.2969,-7.207,-7.164,-7.164,-7.0742,-6.9414,-6.8906,-6.75,-6.5781,-6.4648,-6.3867,-6.3164,-6.2031,-6.1719,-6.1719,-6.1719,-6.1719,-6.1719,-6.1719,-6.1211,-6.0547,-5.9726,-5.8867,-5.8008,-5.7148,-5.6758,-5.6601,-5.6601,-5.6601,-5.6601,-5.6601,-5.6094,-5.5586,-5.5351,-5.4023,-5.2734,-5.1875,-5.0625,-4.9375,-4.8086,-4.6953,-4.6289,-4.6289,-4.5703,-4.5273,-4.5039,-4.3828,-4.3281,-4.3672,-4.3086,-4.2773,-4.2773,-4.2773,-4.2461,-4.1875,-4.1875,-4.1758,-4.1523,-4.1523,-4.1406,-5.3086,-5.7187,-6.2265,-6.4844,-6.9375,-7.3867,-7.6406,-7.8281,-7.9531,-7.957,-7.9648,-7.9453,-7.8711,-7.9258,-7.9765,-7.9765,-8.1211,-8.2304,-8.2304,-8.082,-7.9726,-7.9687,-7.8281,-7.7656,0.0,-8.0937,-8.3437,-8.6054,-8.625,-8.6992,-8.8672,-8.875,-8.875,-8.8789,-8.7969,-8.6679,-8.4961,-8.4062,-8.3164,-8.2304,-8.2304,-8.2304,-8.2304,-8.2304,-8.1836,-8.0937,-8.0078,-7.9258,-7.8359,-7.6601,-7.5351,-7.4492,-7.3594,-7.2226,-7.0742,-7.0742,-7.0195,-6.9258,-6.7578,-6.6914,-6.6562,-6.4844,-6.4297,-6.3945,-6.2226,-6.1719,-6.1719,-6.1719,-6.1719,-6.1719,-6.1719,-6.168,-6.1445,-6.0586,-5.9765,-5.8906,-5.8047,-5.7187,-5.6601,-5.6601,-5.6601,-5.6601,-5.6601,-5.6562,-5.6289,-5.543,-5.4531,-5.3633,-5.2773,-5.0469,-4.8906,-4.8867,-4.7305,-4.6289,-4.6289,-4.6289,-4.5898,-4.5039,-4.4961,-4.4531,-4.3711,-4.3672,-4.3672,-4.3672,-4.3672,-4.3633,-4.3633,-4.3633,-4.3203,-4.2344,-4.2344,-4.1953,-5.7265,-6.1836,-6.6914,-7.0625,-7.418,-7.7422,-8.0,-8.0586,-8.0234,-7.914,-7.7539,-7.5898,-7.4453,-7.4883,-7.582,-7.6992,-7.9101,-8.0976,-8.2148,-8.1289,-7.9922,-7.8242,-7.8047,0.0,0.0,0.0,0.0,-8.4258,-8.4453,-8.5703,-8.8554,-8.8203,-8.789,-8.789,-8.6523,-8.5234,-8.4062,-8.3164,-8.2578,-8.2304,-8.2304,-8.2304,-8.2265,-8.1719,-8.0976,-8.0078,-7.9258,-7.8437,-7.7539,-7.6367,-7.539,-7.4492,-7.3633,-7.2226,-7.0625,-7.0117,-6.9375,-6.8555,-6.7969,-6.7383,-6.6601,-6.4883,-6.4297,-6.3984,-6.2226,-6.1719,-6.1719,-6.1719,-6.1719,-6.1719,-6.1719,-6.1289,-6.0625,-5.9805,-5.8945,-5.8086,-5.7226,-5.6797,-5.6601,-5.6601,-5.6601,-5.6601,-5.6601,-5.6601,-5.6289,-5.543,-5.4062,-5.2812,-5.1953,-5.0117,-4.8906,-4.8906,-4.7344,-4.6289,-4.6289,-4.6289,-4.6172,-4.5898,-4.5312,-4.5117,-4.5391,-4.4883,-4.457,-4.457,-4.457,-4.4297,-4.3711,-4.3711,-4.3555,-4.3242,-4.3242,-4.3125,-6.125,-6.6055,-7.0976,-7.5,-7.7695,-7.9726,-8.1054,-8.0234,-7.8515,-7.6172,-7.3398,-7.0859,-6.9101,-6.8984,-7.0039,-7.2695,-7.5039,-7.7539,-8.0508,-8.0195,-7.9258,-7.8203,-7.8047,-7.7734,0.0,0.0,0.0,-8.289,-8.3711,-8.5156,-8.7656,-8.7617,-8.7344,-8.7031,-8.5664,-8.4492,-8.3594,-8.2734,-8.2304,-8.2304,-8.2304,-8.2304,-8.2265,-8.1406,-8.0508,-7.9648,-7.8867,-7.8008,-7.7148,-7.625,-7.539,-7.4492,-7.3633,-7.2031,-7.0195,-6.9687,-6.875,-6.7734,-6.7734,-6.7383,-6.6601,-6.4883,-6.4297,-6.3984,-6.2226,-6.1719,-6.1719,-6.1719,-6.1719,-6.1719,-6.1719,-6.1289,-6.0586,-5.9453,-5.8984,-5.8398,-5.6914,-5.6836,-5.6953,-5.664,-5.6601,-5.6601,-5.6601,-5.6601,-5.6289,-5.543,-5.4062,-5.2851,-5.1992,-5.0391,-4.9258,-4.8945,-4.7617,-4.6641,-4.6328,-4.6289,-4.6289,-4.6289,-4.5781,-4.5703,-4.6289,-4.5742,-4.5469,-4.5469,-4.5469,-4.5195,-4.4648,-4.4648,-4.4453,-4.4141,-4.4141,-4.3984,-6.4765,-6.9687,-7.4414,-7.7773,-7.9805,-8.0742,-7.9805,-7.7578,-7.4687,-7.1094,-6.7617,-6.4648,0.0,0.0,-6.3008,-6.7344,-6.9648,-7.2734,-7.7969,-7.8008,-7.8086,0.0,0.0,0.0,0.0,0.0,0.0,-8.2187,0.0,-8.5234,-8.6133,-8.6992,-8.7031,-8.6172,-8.5273,-8.4414,-8.3554,-8.2695,-8.2304,-8.2304,-8.2304,-8.2304,-8.2265,-8.1367,-8.0469,-7.9648,-7.8789,-7.793,-7.707,-7.625,-7.5351,-7.4453,-7.3555,-7.164,-6.9414,-6.9414,-6.8359,-6.6914,-6.6914,-6.6914,-6.6601,-6.4883,-6.4297,-6.3984,-6.2226,-6.1719,-6.1719,-6.1719,-6.1719,-6.1719,-6.1719,-6.1719,-6.1289,-5.9648,-5.9844,-5.9726,-5.7265,-5.7344,-5.7656,-5.6836,-5.664,-5.6601,-5.6601,-5.6601,-5.6328,-5.5508,-5.4609,-5.375,-5.2812,-5.125,-4.9883,-4.9062,-4.8164,-4.7266,-4.6445,-4.6328,-4.6289,-4.6289,-4.6289,-4.6289,-4.6289,-4.6289,-4.6289,-4.6289,-4.6289,-4.6289,-4.6289,-4.6289,-4.5859,-4.5078,-4.5078,-4.4609,-6.9219,-7.414,-7.8437,-7.9961,-8.0664,-8.0429,-7.832,-7.5312,-7.164,-6.6914,-6.2695,-5.914,0.0,0.0,0.0,-6.5547,-7.039,0.0,-8.0586,-8.1719,0.0,-8.164,0.0,-8.1562,-8.0469,-8.1523,0.0,0.0,-8.3672,-8.4609,-8.6133,-8.6406,-8.6133,-8.5273,-8.4375,-8.3515,-8.2656,-8.2422,-8.2304,-8.2304,-8.2304,-8.2304,-8.2265,-8.0742,-7.9922,-7.9609,-7.8164,-7.7031,-7.6211,-7.5976,-7.5,-7.3555,-7.2656,-7.1133,-6.9336,-6.875,-6.7851,-6.6914,-6.6914,-6.6914,-6.6601,-6.4883,-6.4297,-6.3984,-6.2226,-6.1719,-6.1719,-6.1719,-6.1719,-6.1719,-6.1719,-6.1719,-6.1445,-6.0351,-6.0234,-6.0078,-5.8828,-5.8203,-5.7812,-5.7617,-5.7031,-5.6601,-5.6601,-5.6601,-5.6523,-5.6289,-5.5547,-5.4414,-5.2891,-5.125,-5.0117,-4.9883,-4.8516,-4.75,-4.7305,-4.668,-4.6289,-4.6289,-4.6289,-4.6289,-4.6289,-4.6289,-4.6289,-4.6289,-4.6289,-4.6289,-4.6289,-4.6289,-4.6172,-4.5976,-4.5976,-4.5859,-7.3672,-7.75,-8.039,-8.0898,-8.0156,-7.8359,-7.4648,-7.082,-6.6484,-6.0937,-5.6953,-5.3945,-5.2109,-5.3359,0.0,0.0,0.0,0.0,-7.9101,-8.1133,-8.2265,0.0,-8.3867,0.0,-8.2812,-8.4297,-8.5,0.0,-8.4179,-8.4609,-8.5586,-8.5625,-8.5234,-8.4375,-8.3867,-8.3164,-8.2304,-8.2304,-8.2304,-8.2304,-8.1914,-8.1719,-8.1679,-7.9961,-7.918,-7.9101,0.0,-7.6719,-7.5859,-7.5508,-7.4531,-7.3164,-7.1914,-7.0586,-6.9297,-6.8515,-6.7656,-6.6914,-6.6914,-6.664,-6.6094,-6.4726,-6.4297,-6.3984,-6.2226,-6.1719,-6.1719,-6.1719,-6.1719,-6.1719,-6.1719,-6.1719,-6.1484,-6.0625,-6.0703,-6.0664,-5.9453,-5.8828,-5.8242,-5.7461,-5.6914,-5.6601,-5.6601,-5.6601,-5.6601,-5.6601,-5.5859,-5.4805,-5.3437,-5.2109,-5.1016,-5.0273,-4.9336,-4.8437,-4.7656,-4.7148,-4.6719,-4.6328,-4.6289,-4.6289,-4.6289,-4.6289,-4.6289,-4.6289,-4.6289,-4.6289,-4.6289,-4.6289,-4.6289,-4.6289,-4.6289,-4.6289,-7.7695,-7.9961,-8.1133,-8.0898,-7.8828,-7.5469,-7.0195,-6.5547,-6.0625,-5.4726,0.0,-4.9609,-4.8711,-4.8828,-5.1328,-5.8242,0.0,-6.7656,-7.6328,-7.9062,-8.1445,-8.4687,-8.5273,-8.5351,-8.5273,-8.6797,-8.7109,-8.539,-8.5234,-8.5156,-8.4922,-8.4883,-8.4453,-8.3476,-8.3437,-8.3047,-8.2304,-8.2304,-8.2304,-8.2304,-8.1406,-8.1015,-8.0937,-7.9258,-7.8515,-7.8437,0.0,0.0,-7.582,-7.4961,-7.4101,-7.3125,-7.125,-7.0078,-6.9297,-6.8359,-6.7539,-6.6914,-6.6914,-6.6328,-6.5469,-6.457,-6.4219,-6.3828,-6.2187,-6.1719,-6.1719,-6.1719,-6.1719,-6.1719,-6.1719,-6.1719,-6.1523,-6.0742,-6.1133,-6.1289,-5.9844,-5.9375,-5.8711,-5.7109,-5.668,-5.6601,-5.6601,-5.6601,-5.6601,-5.6601,-5.5976,-5.5117,-5.4141,-5.3242,-5.2109,-5.0547,-5.0273,-4.9609,-4.8086,-4.7734,-4.7266,-4.6523,-4.6367,-4.6289,-4.6289,-4.6289,-4.6289,-4.6289,-4.6289,-4.6289,-4.6289,-4.6289,-4.6289,-4.6289,-4.6289,-4.6289,-7.9609,-8.1289,-8.1719,-8.0273,-7.7461,-7.3515,-6.7617,-6.2383,0.0,0.0,-4.9375,-4.7773,-4.6914,-4.8516,-5.2226,-5.9062,0.0,0.0,0.0,0.0,-8.3672,0.0,0.0,0.0,0.0,0.0,0.0,0.0,0.0,0.0,-8.4961,-8.4883,-8.4179,-8.2578,-8.2539,-8.2461,-8.2304,-8.2304,-8.2304,-8.2304,-8.1406,-8.1015,-8.0937,-7.9258,-7.8515,-7.8437,0.0,0.0,-7.582,-7.4961,-7.4101,-7.3047,-7.0586,-6.9531,-6.9219,-6.7695,-6.7031,-6.6914,-6.6914,-6.6328,-6.5469,-6.457,-6.3828,-6.3047,-6.1992,-6.1719,-6.1719,-6.1719,-6.1719,-6.1719,-6.1719,-6.1719,-6.164,-6.1523,-6.1601,-6.1601,-6.1328,-6.0195,-5.8906,-5.7851,-5.7109,-5.6601,-5.6601,-5.6601,-5.6601,-5.6601,-5.6484,-5.5781,-5.4219,-5.3242,-5.2305,-5.1289,-5.0586,-5.0078,-4.9766,-4.8437,-4.7539,-4.7383,-4.6719,-4.6289,-4.6289,-4.6289,-4.6289,-4.6289,-4.6289,-4.6289,-4.6289,-4.6289,-4.6289,-4.6289,-4.6289,-4.6289,-8.0195,-8.164,-8.1797,-7.9609,-7.5781,-7.0859,-6.4375,0.0,0.0,0.0,-4.75,-4.6797,-4.6367,-4.8086,0.0,-5.5625,-5.9297,0.0,0.0,0.0,0.0,0.0,0.0,0.0,0.0,0.0,0.0,0.0,0.0,0.0,-8.5,-8.4023,-8.3164,-8.2344,-8.2304,-8.2304,-8.2304,-8.2304,-8.207,-8.1601,-8.0742,-8.0117,-7.9648,-7.8398,-7.7812,-7.7812,-7.7383,0.0,-7.5195,-7.4765,-7.3555,-7.1797,-7.0117,-6.918,-6.8633,-6.7344,-6.6914,-6.6914,-6.6914,-6.6015,-6.4844,-6.4453,-6.3711,-6.2851,-6.1953,-6.1719,-6.1719,-6.1719,-6.1719,-6.1719,-6.1719,-6.1719,-6.1719,-6.1719,-6.1719,-6.1562,-6.1133,-6.039,-5.9453,-5.8164,-5.7578,-5.7148,-5.668,-5.6601,-5.6601,-5.6601,-5.6601,-5.6133,-5.4844,-5.3906,-5.2851,-5.1523,-5.1055,-5.0664,-5.0234,-4.9023,-4.8086,-4.7617,-4.6797,-4.6289,-4.6289,-4.6289,-4.6289,-4.6289,-4.6289,-4.6289,-4.6289,-4.6289,-4.6289,-4.6289,-4.6289,-4.6289,-7.9805,-8.1367,-8.164,-7.8906,-7.414,-6.8398,-6.168,-5.6015,0.0,-4.7109,-4.6289,-4.6289,-4.6289,-4.7422,-4.9297,0.0,-5.4883,-6.0,0.0,0.0,0.0,0.0,0.0,0.0,0.0,0.0,0.0,0.0,0.0,0.0,-8.4687,-8.3164,-8.2304,-8.2304,-8.2304,-8.2226,-8.2031,-8.2031,-8.1562,-8.0703,-7.9844,-7.9101,-7.8476,-7.7617,-7.7187,-7.7187,-7.7187,0.0,0.0,-7.4687,-7.3164,-7.0898,-6.9883,-6.8984,-6.8086,-6.7226,-6.6914,-6.6875,-6.668,-6.5586,-6.4258,-6.4062,-6.3437,-6.2578,-6.1914,-6.1719,-6.1719,-6.1719,-6.1719,-6.1719,-6.1719,-6.1719,-6.1719,-6.1719,-6.1719,-6.1523,-6.082,-6.0547,-6.0,-5.8672,-5.8281,-5.7969,-5.7265,-5.6992,-5.6875,-5.6875,-5.6719,-5.6289,-5.539,-5.4687,-5.3672,-5.2109,-5.1601,-5.1133,-5.0508,-4.9687,-4.8906,-4.8203,-4.7148,-4.6562,-4.6562,-4.6406,-4.6289,-4.6289,-4.6289,-4.6289,-4.6289,-4.6289,-4.6289,-4.6289,-4.6289,-4.6289,-7.8242,-8.0469,-8.1484,-7.8164,-7.2851,-6.6836,-6.0703,0.0,-4.9648,-4.6875,-4.6289,-4.6289,-4.6289,-4.6445,-4.7891,-5.2031,-5.4883,-5.9414,0.0,0.0,0.0,0.0,0.0,0.0,0.0,0.0,0.0,0.0,0.0,0.0,0.0,-8.2812,-8.2304,-8.2304,-8.2304,-8.1914,-8.1133,-8.1133,-8.0664,-7.9805,-7.8984,-7.8555,-7.8476,-7.7617,-7.7187,-7.7187,0.0,0.0,0.0,-7.4922,-7.3515,-7.1719,-7.0117,-6.8984,-6.8086,-6.7226,-6.6914,-6.6797,-6.5976,-6.5117,-6.418,-6.3398,-6.2539,-6.1797,-6.1719,-6.1719,-6.1719,-6.1719,-6.1719,-6.1719,-6.1719,-6.1719,-6.1719,-6.1719,-6.1719,-6.168,-6.1601,-6.0976,-6.0351,-6.0195,-5.957,-5.9062,-5.8984,-5.8281,-5.7773,-5.7773,-5.7109,-5.6289,-5.539,-5.5234,-5.4805,-5.3867,-5.2344,-5.1367,-5.1289,-5.0547,-5.0039,-4.9961,-4.8398,-4.7461,-4.7461,-4.6719,-4.6289,-4.6289,-4.6289,-4.6289,-4.6289,-4.6289,-4.6289,-4.6289,-4.6289,-4.6289,-7.5898,-7.918,-8.082,-7.793,-7.1875,-6.5312,-6.0351,-5.3711,-4.8203,-4.6601,-4.6289,-4.6289,-4.6289,-4.6289,-4.6875,-4.8555,-4.9297,0.0,-5.9414,0.0,0.0,0.0,0.0,0.0,0.0,0.0,0.0,0.0,0.0,0.0,0.0,-8.25,-8.2304,-8.2304,-8.2304,-8.1875,-8.1015,-8.1015,-8.0312,-7.8984,-7.8633,-7.8242,-7.7695,-7.7344,-7.7187,-7.7187,0.0,0.0,0.0,-7.418,-7.2461,-7.0351,-6.9687,-6.8594,-6.7383,-6.7031,-6.6914,-6.6797,-6.5898,-6.5039,-6.414,-6.3281,-6.2422,-6.1719,-6.1719,-6.1719,-6.1719,-6.1719,-6.1719,-6.1719,-6.1719,-6.1719,-6.1719,-6.1719,-6.1719,-6.1719,-6.1719,-6.1445,-6.1015,-6.0508,-6.0156,-5.9765,-5.9297,-5.8476,-5.789,-5.789,-5.7148,-5.6484,-5.6133,-5.5625,-5.5156,-5.4805,-5.3203,-5.2187,-5.2187,-5.0976,-5.0195,-5.0195,-4.9062,-4.8164,-4.7617,-4.7266,-4.6836,-4.6328,-4.6289,-4.6289,-4.6289,-4.6289,-4.6289,-4.6289,-4.6289,-4.6289,-7.1719,-7.5898,-7.8476,-7.5937,-7.0,-6.3711,-5.9414,-5.2812,-4.7344,-4.6484,-4.6289,-4.6289,-4.6289,-4.6289,-4.6289,-4.6289,-4.6211,-4.8281,-5.4453,0.0,0.0,0.0,0.0,0.0,0.0,0.0,0.0,0.0,0.0,0.0,0.0,-8.207,-8.2031,-8.2304,-8.2304,-8.1758,-8.0625,-8.0625,-7.9765,-7.8125,-7.8125,-7.7773,-7.7187,-7.7187,-7.7187,-7.7148,0.0,0.0,0.0,-7.3672,-7.1758,-6.9414,-6.9414,-6.8398,-6.6914,-6.6914,-6.6758,-6.6406,-6.5508,-6.4648,-6.3789,-6.289,-6.2187,-6.1719,-6.1719,-6.1719,-6.1719,-6.1719,-6.1719,-6.1719,-6.1719,-6.1719,-6.1719,-6.1719,-6.1719,-6.1719,-6.1719,-6.1719,-6.1523,-6.0898,-6.0781,-6.0586,-6.0039,-5.9219,-5.8555,-5.832,-5.7539,-5.6875,-5.664,-5.6055,-5.5664,-5.5664,-5.4375,-5.3359,-5.3125,-5.1758,-5.0937,-5.0937,-4.9883,-4.8906,-4.8008,-4.7734,-4.7187,-4.6328,-4.6289,-4.6289,-4.6289,-4.6289,-4.6289,-4.6289,-4.6289,-4.6289,-6.5234,-7.0078,-7.4023,-7.1406,-6.6875,-6.1914,-5.7617,-5.1953,-4.7344,-4.6484,-4.6289,-4.6289,-4.6289,-4.6289,-4.6289,-4.6289,-4.7734,0.0,-5.4687,0.0,0.0,0.0,0.0,0.0,0.0,0.0,0.0,0.0,0.0,0.0,0.0,-8.1484,-8.1406,-8.2265,-8.2304,-8.1484,-7.9726,-7.9726,-7.8867,-7.7226,-7.7226,-7.7226,-7.7187,-7.7187,-7.7187,0.0,0.0,0.0,0.0,-7.3672,-7.1758,-6.9414,-6.9414,-6.8398,-6.6914,-6.6914,-6.6367,-6.5508,-6.4609,-6.375,-6.2851,-6.1992,-6.1719,-6.1719,-6.1719,-6.1719,-6.1719,-6.1719,-6.1719,-6.1719,-6.1719,-6.1719,-6.1719,-6.1719,-6.1719,-6.1719,-6.1719,-6.1719,-6.1719,-6.168,-6.168,-6.168,-6.168,-6.0937,-6.0117,-5.9297,-5.8437,-5.7578,-5.6719,-5.6601,-5.6601,-5.6601,-5.5781,-5.4922,-5.4062,-5.3164,-5.2656,-5.2656,-5.1094,-4.9805,-4.8906,-4.8047,-4.7187,-4.6328,-4.6289,-4.6289,-4.6289,-4.6289,-4.6289,-4.6289,-4.6289,-4.6289,-6.043,-6.3906,-6.6328,-6.4883,-6.1133,-5.707,-5.4531,-5.0195,-4.6641,-4.6367,-4.6289,-4.6289,-4.6289,-4.6289,-4.6875,-4.8672,-4.9414,0.0,0.0,0.0,0.0,0.0,0.0,0.0,0.0,0.0,0.0,0.0,0.0,0.0,0.0,-8.1133,-8.1133,-8.1406,-8.082,-8.0,-7.8906,-7.8867,-7.832,-7.7187,-7.6601,-7.6328,-7.6289,-7.5703,0.0,0.0,0.0,0.0,0.0,-7.2148,-7.0703,-6.9414,-6.8828,-6.789,-6.6914,-6.6914,-6.6367,-6.5469,-6.4609,-6.3711,-6.2851,-6.1992,-6.1719,-6.1719,-6.1719,-6.1719,-6.1719,-6.1719,-6.1719,-6.1719,-6.1719,-6.1719,-6.1719,-6.1719,-6.1719,-6.1719,-6.1719,-6.1719,-6.1719,-6.1719,-6.1719,-6.1719,-6.1719,-6.0976,-6.0117,-5.9336,-5.8476,-5.7578,-5.6719,-5.6601,-5.6601,-5.6601,-5.6367,-5.5859,-5.4961,-5.3555,-5.2695,-5.2695,-5.1641,-5.0391,-4.8945,-4.8633,-4.7812,-4.6328,-4.6289,-4.6289,-4.6289,-4.6289,-4.6289,-4.6289,-4.6289,-4.6289,-5.5312,-5.8398,-6.039,-5.9492,-5.6797,-5.3867,-5.2148,-4.8945,-4.6289,-4.6289,-4.6289,-4.6289,-4.6289,-4.6289,-4.6836,-4.8476,-4.8711,0.0,0.0,0.0,0.0,0.0,0.0,0.0,0.0,0.0,0.0,0.0,0.0,0.0,0.0,0.0,-8.0078,-8.0078,-7.9805,-7.9297,-7.8515,-7.8515,-7.8047,-7.7187,-7.6328,-7.5898,-7.5859,-7.5,0.0,0.0,0.0,0.0,0.0,-7.1406,-7.0234,-6.9414,-6.8555,-6.7656,-6.6914,-6.6914,-6.6367,-6.5508,-6.4961,-6.3984,-6.289,-6.2383,-6.1953,-6.1719,-6.1719,-6.1719,-6.1719,-6.1719,-6.1719,-6.1719,-6.1719,-6.1719,-6.1719,-6.1719,-6.1719,-6.1719,-6.1719,-6.1719,-6.1719,-6.1719,-6.1719,-6.1719,-6.1719,-6.0976,-6.0117,-5.9336,-5.8476,-5.7578,-5.6719,-5.6601,-5.6601,-5.6601,-5.6601,-5.6367,-5.5859,-5.418,-5.3047,-5.2734,-5.1875,-5.0664,-4.8984,-4.8906,-4.8086,-4.6328,-4.6289,-4.6289,-4.6289,-4.6641,-4.6797,-4.6797,-4.6797,-4.6601,0.0,-5.3398,-5.5664,-5.4844,-5.3437,-5.1836,-5.0273,-4.8047,0.0,-4.6289,-4.6289,-4.6328,-4.6445,-4.6367,-4.6406,-4.6719,0.0,0.0,0.0,0.0,0.0,0.0,0.0,0.0,0.0,0.0,0.0,0.0,0.0,0.0,0.0,0.0,-7.8437,-7.832,-7.9023,-7.9062,-7.832,-7.8242,-7.7812,-7.6992,-7.6133,-7.5703,-7.5703,-7.4805,0.0,0.0,0.0,0.0,0.0,-7.1289,-7.0117,-6.9336,-6.8437,-6.7617,-6.6914,-6.6914,-6.6367,-6.5586,-6.5547,-6.4414,-6.3008,-6.293,-6.2344,-6.1719,-6.1719,-6.1719,-6.1719,-6.1719,-6.1719,-6.1719,-6.1719,-6.1719,-6.1719,-6.1719,-6.1719,-6.1719,-6.1719,-6.1719,-6.1719,-6.1719,-6.1719,-6.1719,-6.1719,-6.0976,-6.0117,-5.9336,-5.8476,-5.7578,-5.6719,-5.6601,-5.6601,-5.6601,-5.6601,-5.6562,-5.6523,-5.5039,-5.3711,-5.2851,-5.1953,-5.0742,-4.9062,-4.8984,-4.8203,-4.6523,-4.6484,-4.6484,-4.6484,-4.7305,-4.7695,-4.7695,-4.7617,-4.7187,-4.7266,0.0,-4.8672,-4.8476,-4.8125,-4.7695,0.0,-4.6758,-4.6289,-4.6289,-4.6289,-4.6719,-4.8047,-4.7187,-4.7383,0.0,0.0,0.0,0.0,0.0,0.0,0.0,0.0,0.0,0.0,0.0,0.0,0.0,0.0,0.0,0.0,0.0,-7.789,-7.6562,-7.668,-7.6719,-7.6523,-7.5859,-7.539,-7.5195,-7.4336,-7.3906,-7.3867,-7.3008,0.0,0.0,0.0,0.0,-7.1211,-7.0156,-6.9219,-6.8437,-6.7539,-6.707,-6.6914,-6.6914,-6.6367,-6.5508,-6.4844,-6.3906,-6.289,-6.2226,-6.1875,-6.1719,-6.1719,-6.1719,-6.1719,-6.1719,-6.1719,-6.1719,-6.1719,-6.1719,-6.1719,-6.1719,-6.1719,-6.1719,-6.1719,-6.1719,-6.1719,-6.1719,-6.1719,-6.1719,-6.1719,-6.0976,-6.0117,-5.9336,-5.8476,-5.7578,-5.6719,-5.6601,-5.6601,-5.6601,-5.6601,-5.6328,-5.5664,-5.5234,-5.4609,-5.375,-5.2891,-5.1641,-4.9961,-4.9883,-4.9375,-4.832,-4.8281,-4.8281,-4.8281,-4.8476,-4.8594,-4.8594,-4.7891,-4.75,-4.6289,-4.6601,-4.6914,-4.6914,-4.6914,-4.6914,-4.6914,-4.6601,-4.6289,-4.6289,-4.6289,-4.6601,-4.7539,-4.7266,0.0,0.0,0.0,0.0,0.0,0.0,0.0,0.0,0.0,0.0,0.0,0.0,0.0,0.0,0.0,0.0,0.0,0.0,-7.668,-7.5351,-7.4922,-7.4883,-7.5312,-7.4844,-7.4609,-7.4609,-7.3711,-7.3086,-7.2656,-7.1797,0.0,0.0,0.0,0.0,-7.0039,-6.9219,-6.8594,-6.8125,-6.7226,-6.6914,-6.6836,-6.6445,-6.6015,-6.5469,-6.4609,-6.3711,-6.2851,-6.1992,-6.1719,-6.1719,-6.1719,-6.1719,-6.1719,-6.1719,-6.1719,-6.1719,-6.1719,-6.1719,-6.1719,-6.1719,-6.1719,-6.1719,-6.1719,-6.1719,-6.1719,-6.1719,-6.1719,-6.1719,-6.1719,-6.0664,-5.9687,-5.9258,-5.8125,-5.7148,-5.664,-5.6601,-5.6601,-5.6601,-5.6601,-5.6406,-5.5937,-5.5898,-5.5195,-5.3516,-5.2969,-5.1953,-5.0273,-5.0195,-4.9805,-4.8906,-4.8906,-4.9101,-4.9492,-4.9492,-4.9492,-4.9492,-4.8594,-4.7969,-4.6445,-4.7226,-4.7891,-4.75,-4.75,-4.7578,-4.7422,-4.6836,-4.6289,-4.6289,-4.6289,-4.6367,-4.6641,-4.7422,0.0,0.0,0.0,0.0,0.0,0.0,0.0,0.0,0.0,0.0,0.0,0.0,0.0,0.0,0.0,0.0,0.0,0.0,0.0,-7.4219,-7.3476,-7.3398,-7.3984,-7.414,-7.414,-7.3984,-7.3242,-7.2461,-7.1562,-7.0859,-7.0117,0.0,0.0,0.0,-6.914,-6.8476,-6.8125,-6.789,-6.7031,-6.6719,-6.6601,-6.5703,-6.539,-6.5273,-6.4414,-6.3515,-6.2695,-6.1953,-6.1719,-6.1719,-6.1719,-6.1719,-6.1719,-6.1719,-6.1719,-6.1719,-6.1719,-6.1719,-6.1719,-6.1719,-6.1719,-6.1719,-6.1719,-6.1719,-6.1719,-6.1719,-6.1719,-6.1719,-6.1719,-6.039,-5.9375,-5.9375,-5.8008,-5.6992,-5.6992,-5.6992,-5.6953,-5.6797,-5.6797,-5.6758,-5.6601,-5.6601,-5.5586,-5.3242,-5.2969,-5.2148,-5.0469,-5.0391,-5.0039,-4.9297,-4.9297,-4.9648,-5.0391,-5.0391,-5.0312,-5.0195,-4.9297,-4.8437,-4.7187,-4.8594,-4.9258,-4.7031,-4.7031,-4.7422,-4.668,-4.6406,-4.6289,-4.6289,-4.6289,-4.6758,0.0,-4.9219,-5.0312,0.0,0.0,0.0,0.0,0.0,0.0,0.0,0.0,0.0,0.0,0.0,0.0,0.0,0.0,0.0,0.0,0.0,0.0,-7.2461,-7.2265,-7.1914,-7.1289,-7.2031,-7.2031,-7.1289,-7.1172,-7.0625,-6.9805,-6.9648,-6.957,0.0,0.0,-6.9062,-6.8359,-6.8242,-6.7773,-6.6992,-6.6133,-6.5781,-6.5703,-6.4805,-6.4492,-6.4375,-6.3515,-6.2617,-6.1875,-6.1758,-6.1719,-6.1719,-6.1719,-6.1719,-6.1719,-6.1719,-6.1719,-6.1719,-6.1719,-6.1719,-6.1719,-6.1719,-6.1719,-6.1719,-6.1719,-6.1719,-6.1719,-6.1719,-6.1719,-6.1719,-6.1719,-6.0859,-6.0234,-6.0234,-5.9414,-5.8789,-5.8789,-5.8789,-5.8515,-5.7773,-5.7695,-5.7383,-5.664,-5.6601,-5.6094,-5.4961,-5.4219,-5.3008,-5.1289,-5.1211,-5.1133,-5.1016,-5.1016,-5.1094,-5.1211,-5.1211,-5.0859,-5.0195,-4.9297,-4.8437,-4.6797,-4.7812,-4.8516,-4.7305,-4.8359,-4.9297,-4.8008,-4.7695,-4.7695,-4.7695,-4.7695,0.0,0.0,0.0,0.0,0.0,0.0,0.0,0.0,0.0,0.0,0.0,0.0,0.0,0.0,0.0,0.0,0.0,0.0,0.0,0.0,0.0,0.0,0.0,-7.0898,-7.043,-7.0,-7.039,-7.0625,-7.0703,-7.0273,-6.9609,-6.875,-6.875,-6.8515,-6.8086,0.0,-6.7187,-6.6758,-6.6289,-6.5859,-6.5469,-6.5039,-6.4883,-6.4805,-6.3906,-6.3281,-6.2851,-6.2422,-6.2031,-6.1719,-6.1719,-6.1719,-6.1719,-6.1719,-6.1719,-6.1719,-6.1719,-6.1719,-6.1719,-6.1719,-6.1719,-6.1719,-6.1719,-6.1719,-6.1719,-6.1719,-6.1719,-6.1719,-6.1719,-6.1719,-6.1719,-6.1719,-6.0976,-6.039,-6.039,-5.9726,-5.9219,-5.9219,-5.8789,-5.8359,-5.793,-5.7461,-5.7031,-5.664,-5.6601,-5.6015,-5.4687,-5.3789,-5.2734,-5.1445,-5.1406,-5.1406,-5.1406,-5.1406,-5.1406,-5.1406,-5.1406,-5.1211,-5.082,-4.9492,-4.8672,-4.6562,-4.7226,-4.7851,-4.7656,-4.9062,-5.0391,-4.9883,-4.9648,-4.9648,-5.0273,-5.0391,0.0,0.0,0.0,0.0,0.0,0.0,0.0,0.0,0.0,0.0,0.0,0.0,0.0,0.0,0.0,0.0,0.0,0.0,0.0,0.0,0.0,0.0,0.0,-6.9531,-6.918,-6.9101,-6.8906,-6.9258,-7.0117,-6.9492,-6.875,-6.789,-6.7695,-6.7226,-6.6562,-6.5664,-6.5312,-6.5234,-6.457,-6.4297,-6.4297,-6.4062,-6.3867,-6.3594,-6.293,-6.2265,-6.1719,-6.1719,-6.1719,-6.1719,-6.1719,-6.1719,-6.1719,-6.1719,-6.1719,-6.1719,-6.1719,-6.1719,-6.1719,-6.1719,-6.1719,-6.1719,-6.1719,-6.1719,-6.1719,-6.1719,-6.1719,-6.1719,-6.1719,-6.1719,-6.1719,-6.1719,-6.1133,-6.0703,-6.0703,-6.0195,-5.9726,-5.9492,-5.8906,-5.8359,-5.793,-5.7305,-5.6836,-5.6601,-5.6601,-5.5937,-5.4414,-5.3281,-5.2383,-5.1719,-5.1523,-5.1406,-5.1406,-5.1406,-5.1406,-5.1406,-5.1406,-5.1289,-5.1094,-4.9805,-4.9101,-4.7305,-4.8125,-4.8594,-4.7812,-4.7734,-4.8672,-5.1719,-5.1797,-5.1914,-5.4336,-5.4844,-5.4336,0.0,0.0,0.0,0.0,0.0,0.0,0.0,0.0,0.0,0.0,0.0,0.0,0.0,0.0,0.0,0.0,0.0,0.0,0.0,0.0,0.0,0.0,0.0,-6.8281,-6.8281,-6.7461,-6.7539,-6.8398,-6.832,-6.7851,-6.6953,-6.6172,-6.5742,-6.5625,-6.4765,-6.4375,-6.4375,-6.4336,-6.4297,-6.4219,-6.3398,-6.2617,-6.1875,-6.1836,-6.1758,-6.1719,-6.1719,-6.1719,-6.1719,-6.1719,-6.1719,-6.1719,-6.1719,-6.1719,-6.1719,-6.1719,-6.1719,-6.1719,-6.1719,-6.1719,-6.1719,-6.1719,-6.1719,-6.1719,-6.1719,-6.1719,-6.1719,-6.1719,-6.1719,-6.1719,-6.1719,-6.164,-6.1601,-6.1601,-6.1562,-6.1211,-6.043,-6.0273,-5.9609,-5.8086,-5.7851,-5.7461,-5.668,-5.6601,-5.6211,-5.5273,-5.3633,-5.2656,-5.2617,-5.1836,-5.1406,-5.1406,-5.1406,-5.1406,-5.1406,-5.1406,-5.1016,-5.0273,-5.0156,-4.9687,-4.6719,-4.7812,-4.8672,-4.7812,-4.8398,-4.9844,-5.2187,-5.3711,-5.5078,-5.6601,-5.8164,-5.8906,0.0,0.0,0.0,0.0,0.0,0.0,0.0,0.0,0.0,0.0,0.0,0.0,0.0,0.0,0.0,0.0,0.0,0.0,0.0,0.0,0.0,0.0,0.0,-6.6562,-6.6562,-6.5703,-6.5469,-6.5781,-6.6328,-6.6133,-6.5273,-6.4922,-6.4805,-6.4726,-6.3867,-6.3476,-6.3437,-6.289,-6.2695,-6.2656,-6.2305,-6.1992,-6.1719,-6.1719,-6.1719,-6.1719,-6.1719,-6.1719,-6.1719,-6.1719,-6.1719,-6.1719,-6.1719,-6.1719,-6.1719,-6.1719,-6.1719,-6.1719,-6.1719,-6.1719,-6.1719,-6.1719,-6.1719,-6.1719,-6.1719,-6.1719,-6.1719,-6.1719,-6.1719,-6.1719,-6.1719,-6.1719,-6.1719,-6.1719,-6.1719,-6.1406,-6.0508,-5.9961,-5.9219,-5.8047,-5.7336,-5.6801,-5.6407,-5.6361,-5.5993,-5.521,-5.4137,-5.3241,-5.2601,-5.174,-5.1271,-5.1271,-5.1271,-5.132,-5.1406,-5.1406,-5.125,-5.0937,-5.043,-5.0039,-4.5898,-4.6758,-4.7656,-4.7617,-4.8906,-5.1016,-5.4062,-5.6133,-5.8047,-6.0273,-6.1484,-6.1914,-6.1328,0.0,0.0,0.0,0.0,0.0,0.0,0.0,0.0,0.0,0.0,0.0,0.0,0.0,0.0,0.0,0.0,0.0,0.0,0.0,0.0,0.0,0.0,0.0,-6.5195,-6.4609,-6.414,-6.3906,-6.4492,-6.4609,-6.4297,-6.4023,-6.3906,-6.3828,-6.2969,-6.2578,-6.2539,-6.1953,-6.1719,-6.1719,-6.1719,-6.1719,-6.1719,-6.1719,-6.1719,-6.1719,-6.1719,-6.1719,-6.1719,-6.1719,-6.1719,-6.1719,-6.1719,-6.1719,-6.1719,-6.1719,-6.1719,-6.1719,-6.1719,-6.1719,-6.1719,-6.1719,-6.1719,-6.1719,-6.1719,-6.1719,-6.1719,-6.1719,-6.1678,-6.1634,-6.1634,-6.1587,-6.1579,-6.1579,-6.1579,-6.1264,-6.0405,-5.9548,-5.8611,-5.7478,-5.6737,-5.6285,-5.6202,-5.6191,-5.5882,-5.5099,-5.4294,-5.3494,-5.2596,-5.1735,-5.1267,-5.1267,-5.1267,-5.1318,-5.1406,-5.1406,-5.1406,-5.1406,-5.0859,-5.0586,-4.5,-4.5039,-4.5469,-4.7187,-4.8945,-5.1836,-5.7851,-5.9219,-6.0703,-6.5859,-6.4844,-6.3047,-6.3047,-6.375,0.0,0.0,0.0,0.0,0.0,0.0,0.0,0.0,0.0,0.0,0.0,0.0,0.0,0.0,0.0,0.0,0.0,0.0,0.0,0.0,0.0,0.0,-6.4297,-6.4297,-6.3828,-6.3008,-6.3008,-6.3437,-6.4258,-6.3398,-6.3008,-6.293,-6.207,-6.1719,-6.1719,-6.1719,-6.1719,-6.1719,-6.1719,-6.1719,-6.1719,-6.1719,-6.1719,-6.1719,-6.1719,-6.1719,-6.1719,-6.1719,-6.1719,-6.1719,-6.1719,-6.1719,-6.1719,-6.1719,-6.1719,-6.1719,-6.1719,-6.1719,-6.1719,-6.1719,-6.1719,-6.1719,-6.1719,-6.1719,-6.1719,-6.1719,-6.1584,-6.1501,-6.1501,-6.1378,-6.1283,-6.1283,-6.1283,-6.0972,-6.011,-5.9221,-5.802,-5.6386,-5.6191,-5.6191,-5.6191,-5.6191,-5.5802,-5.4951,-5.409,-5.3334,-5.2734,-5.1875,-5.1406,-5.1406,-5.1406,-5.1406,-5.1406,-5.1406,-5.1406,-5.1406,-5.1406,-5.1406,-4.5898,-4.6797,-4.8008,-4.9141,-5.1641,-5.4883,-5.9101,-6.0508,-6.2617,-6.8398,-6.7539,-6.5937,-6.6523,0.0,0.0,0.0,0.0,0.0,0.0,0.0,0.0,0.0,0.0,0.0,0.0,0.0,0.0,0.0,0.0,0.0,0.0,0.0,0.0,0.0,0.0,0.0,-6.3398,-6.2773,-6.2344,-6.2109,-6.2109,-6.2226,-6.2461,-6.2187,-6.2109,-6.207,-6.1797,-6.1719,-6.1719,-6.1719,-6.1719,-6.1719,-6.1719,-6.1719,-6.1719,-6.1719,-6.1719,-6.1719,-6.1719,-6.1719,-6.1719,-6.1719,-6.1719,-6.1719,-6.1719,-6.1719,-6.1719,-6.1719,-6.1719,-6.1719,-6.1719,-6.1633,-6.1582,-6.1679,-6.1633,-6.1573,-6.1573,-6.1495,-6.1404,-6.1404,-6.1378,-6.1349,-6.1349,-6.1318,-6.1283,-6.1283,-6.1283,-6.0744,-5.9266,-5.7826,-5.6697,-5.6068,-5.5969,-5.5955,-5.5882,-5.5864,-5.5277,-5.3952,-5.3674,-5.322,-5.2441,-5.1622,-5.1222,-5.1265,-5.1222,-5.1222,-5.1265,-5.1265,-5.1265,-5.1267,-5.1365,-5.1406,-4.5664,-4.6797,-4.832,-5.0195,-5.3516,-5.7305,-6.1094,-6.3672,0.0,0.0,-6.9453,-6.8086,-6.8633,0.0,0.0,0.0,0.0,0.0,0.0,0.0,0.0,0.0,0.0,0.0,0.0,0.0,0.0,0.0,0.0,0.0,0.0,0.0,0.0,0.0,0.0,0.0,-6.2461,-6.1953,-6.1719,-6.1719,-6.1719,-6.1719,-6.1719,-6.1719,-6.1719,-6.1719,-6.1719,-6.1719,-6.1719,-6.1719,-6.1719,-6.1719,-6.1719,-6.1719,-6.1719,-6.1719,-6.1719,-6.1719,-6.1719,-6.1719,-6.164,-6.1289,-6.1406,-6.164,-6.1289,-6.1445,-6.164,-6.1289,-6.1404,-6.1553,-6.1201,-6.1242,-6.1435,-6.1584,-6.1512,-6.1409,-6.1409,-6.1349,-6.1283,-6.1283,-6.1234,-6.1186,-6.1186,-6.112,-6.0987,-6.0638,-6.0289,-5.9824,-5.9126,-5.7537,-5.6482,-5.6346,-5.6018,-5.5798,-5.5724,-5.5703,-5.5006,-5.3412,-5.3383,-5.2939,-5.1872,-5.1413,-5.1224,-5.1204,-5.1154,-5.1136,-5.1154,-5.1188,-5.1204,-5.1204,-5.1324,-5.1406,-4.4961,-4.5859,-4.7383,-5.0976,-5.5312,0.0,-6.375,-6.7734,-7.0781,-7.1523,0.0,-6.9531,0.0,0.0,0.0,0.0,0.0,0.0,0.0,0.0,0.0,0.0,0.0,0.0,0.0,0.0,0.0,0.0,0.0,0.0,0.0,0.0,0.0,0.0,0.0,0.0,-6.1719,-6.1562,-6.1562,0.0,-6.1523,-6.1523,-6.1679,-6.168,-6.164,-6.1562,-6.1562,-6.1562,-6.1562,-6.1562,-6.1562,-6.1562,-6.1562,-6.1562,-6.1562,-6.1484,-6.1523,-6.1562,-6.1484,-6.1484,-6.1328,-6.0547,-6.082,-6.1328,-6.0547,-6.0859,-6.1289,-6.0507,-6.0765,-6.1111,-6.036,-6.0594,-6.1106,-6.1304,-6.1325,-6.1265,-6.1187,-6.1214,-6.124,-6.1162,-6.1066,-6.0932,-6.0777,-6.0689,-6.0396,-5.9627,-5.8819,-5.855,-5.9319,-5.7934,-5.6868,-5.6868,-5.6165,-5.5703,-5.5703,-5.5703,-5.5011,-5.3433,-5.3261,-5.2619,-5.1258,-5.1286,-5.1316,-5.1204,-5.1191,-5.1144,-5.1074,-5.1151,-5.1194,-5.1196,-5.1401,-5.1523,-4.6405,-4.7695,0.0,-5.4297,-6.0273,-6.539,-6.6992,-6.8555,-6.9531,-6.9101,0.0,0.0,0.0,0.0,0.0,0.0,0.0,0.0,0.0,0.0,0.0,0.0,0.0,0.0,0.0,0.0,0.0,0.0,0.0,0.0,0.0,0.0,0.0,0.0,0.0,-6.0881,-6.168,-6.039,-6.039,0.0,-6.022,-6.02,-6.1566,-6.1637,-6.1328,-6.0664,-6.0664,-6.0664,-6.0664,-6.0664,-6.0664,-6.0664,-6.0664,-6.0664,-6.0586,-5.9961,-6.0156,-6.0586,-5.9961,-5.9726,-5.9726,-5.9531,-5.957,-5.9687,-5.9492,-5.9609,-5.9687,-5.9314,-5.9332,-5.9541,-5.9927,-5.9555,-5.9266,-6.001,-6.0639,-6.0879,-6.0259,-6.0538,-6.0699,-6.0005,-6.0387,-6.0421,-5.9111,-5.9364,-5.9704,-5.9511,-5.8819,-5.8357,-5.855,-5.7049,-5.5972,-5.5972,-5.5818,-5.5703,-5.5703,-5.5703,-5.528,-5.428,-5.3694,-5.2903,-5.1946,-5.1327,-5.1069,-5.1201,-5.105,-5.0946,-5.0952,-5.1069,-5.1131,-5.1135,-5.2016,-5.2422,-4.6484,0.0,0.0,-5.6914,0.0,-6.5273,-6.6133,-6.664,-6.6835,0.0,0.0,0.0,0.0,0.0,0.0,0.0,0.0,0.0,0.0,0.0,0.0,0.0,0.0,0.0,0.0,0.0,0.0,0.0,0.0,0.0,0.0,0.0,0.0,0.0,-5.9521,-5.9712,-6.0266,-5.9407,-5.9407,-6.0266,-5.9287,-5.926,-6.02,-6.0746,-6.0495,-5.9676,-5.9765,-5.9844,-5.9844,-5.9844,-5.9844,-5.9844,-5.9844,-5.9844,-5.9765,-5.9251,-5.9324,-5.9595,-5.9143,-5.8978,-5.8897,-5.8468,-5.8624,-5.8897,-5.8468,-5.8624,-5.8853,-5.834,-5.8437,-5.8682,-5.8674,-5.8535,-5.8433,-5.8433,-5.909,-5.9582,-5.9157,-5.9353,-5.9473,-5.9011,-5.9588,-5.9781,-5.8511,-5.8319,-5.8434,-5.8858,-5.7857,-5.7357,-5.8204,-5.678,-5.5857,-5.6291,-5.5934,-5.5703,-5.5703,-5.5703,-5.5357,-5.4549,-5.3754,-5.2945,-5.2121,-5.1261,-5.0889,-5.106,-5.0946,-5.0889,-5.0889,-5.1025,-5.1321,-5.1806,-5.241,-5.293,-4.6211,0.0,-5.2539,-5.8672,-6.1601,0.0,-6.4101,-6.4296,0.0,0.0,0.0,0.0,0.0,0.0,0.0,0.0,0.0,0.0,0.0,0.0,0.0,0.0,0.0,0.0,0.0,0.0,0.0,0.0,0.0,0.0,0.0,0.0,-5.8414,-5.8465,-5.8443,-5.8521,-5.8704,-5.8426,-5.8426,-5.8704,-5.8676,-5.8492,-5.824,-5.9226,-5.9329,-5.8699,-5.8858,-5.8945,-5.8984,-5.8984,-5.8984,-5.8984,-5.8984,-5.8984,-5.8945,-5.8603,-5.858,-5.8646,-5.8355,-5.827,-5.8153,-5.7448,-5.7681,-5.8115,-5.7409,-5.7681,-5.8109,-5.7336,-5.7571,-5.7899,-5.7306,-5.7525,-5.7703,-5.7137,-5.7434,-5.7896,-5.805,-5.8204,-5.828,-5.8088,-5.8473,-5.8665,-5.8165,-5.7473,-5.7253,-5.7973,-5.6857,-5.6434,-5.7896,-5.6703,-5.5972,-5.6714,-5.6126,-5.5703,-5.5703,-5.5549,-5.5203,-5.4549,-5.3549,-5.2714,-5.2097,-5.12,-5.0767,-5.0875,-5.0874,-5.0966,-5.1129,-5.1247,-5.1826,-5.271,-5.2996,-5.3473,-4.6797,0.0,-5.539,0.0,-6.1172,-6.3242,0.0,0.0,0.0,0.0,0.0,0.0,0.0,0.0,0.0,0.0,0.0,0.0,0.0,0.0,0.0,0.0,0.0,0.0,0.0,0.0,0.0,0.0,0.0,0.0,0.0,-5.734,-5.7345,-5.7559,-5.7455,-5.7804,-5.8698,-5.7253,-5.7253,-5.8698,-5.8588,-5.7663,-5.6145,-5.7146,-5.7687,-5.7877,-5.7885,-5.7953,-5.8086,-5.8086,-5.8086,-5.8086,-5.8086,-5.8086,-5.7968,-5.7079,-5.7211,-5.7749,-5.6826,-5.6547,-5.6508,-5.6391,-5.643,-5.6508,-5.6391,-5.643,-5.6481,-5.617,-5.6172,-5.6377,-5.6906,-5.6543,-5.6203,-5.6868,-5.6522,-5.6242,-5.7022,-5.778,-5.8088,-5.733,-5.6626,-5.6395,-5.706,-5.7099,-5.706,-5.7176,-5.6983,-5.6907,-5.7137,-5.6319,-5.5742,-5.5857,-5.578,-5.5703,-5.5703,-5.5049,-5.4626,-5.4511,-5.2972,-5.202,-5.1934,-5.1145,-5.0721,-5.0721,-5.0835,-5.1245,-5.1949,-5.22,-5.2717,-5.3458,-5.4378,-5.4765,-4.7734,-5.0351,-5.3164,0.0,-5.8203,-5.9765,-6.1133,0.0,0.0,0.0,0.0,0.0,0.0,0.0,0.0,0.0,0.0,0.0,0.0,0.0,0.0,0.0,0.0,0.0,0.0,0.0,0.0,0.0,0.0,0.0,-5.5775,-5.5191,-5.494,-5.5039,-5.4975,-5.54,-5.6333,-5.5628,-5.5852,-5.703,-5.6955,-5.6482,-5.5714,-5.6174,-5.6496,-5.6681,-5.6897,-5.6994,-5.7055,-5.7147,-5.7187,-5.7187,-5.7187,-5.7146,-5.7008,-5.6468,-5.6466,-5.6613,-5.6118,-5.5921,-5.5921,-5.5921,-5.5921,-5.5921,-5.5921,-5.5921,-5.5904,-5.5798,-5.5798,-5.5856,-5.6197,-5.5972,-5.578,-5.6175,-5.5972,-5.578,-5.6214,-5.6549,-5.6857,-5.6983,-5.6291,-5.5972,-5.6868,-5.6599,-5.6291,-5.6291,-5.6291,-5.6291,-5.6291,-5.5934,-5.5703,-5.5703,-5.528,-5.5011,-5.5011,-5.4241,-5.378,-5.378,-5.3049,-5.2423,-5.1923,-5.1548,-5.1164,-5.0712,-5.1191,-5.1661,-5.2097,-5.2717,-5.3447,-5.4357,-5.4766,-5.5229,0.0,0.0,-5.0547,-5.332,-5.4805,-5.6054,0.0,0.0,0.0,0.0,0.0,0.0,0.0,0.0,0.0,0.0,0.0,0.0,0.0,0.0,0.0,0.0,0.0,0.0,0.0,0.0,0.0,0.0,0.0,0.0,-5.4164,-5.3549,-5.3203,-5.3203,-5.3203,-5.351,-5.4164,-5.4164,-5.4472,-5.5049,-5.5049,-5.5049,-5.5049,-5.5049,-5.5123,-5.5238,-5.5763,-5.6106,-5.6329,-5.6235,-5.6321,-5.651,-5.6557,-5.646,-5.6347,-5.6191,-5.6012,-5.5891,-5.5758,-5.5703,-5.5703,-5.5703,-5.5703,-5.5703,-5.5703,-5.5703,-5.5703,-5.5703,-5.5703,-5.5703,-5.5703,-5.5703,-5.5703,-5.5703,-5.5703,-5.5703,-5.5703,-5.5703,-5.5895,-5.656,-5.6126,-5.5895,-5.656,-5.6126,-5.5703,-5.5703,-5.5703,-5.5703,-5.5703,-5.5703,-5.5703,-5.5703,-5.4972,-5.4511,-5.4511,-5.351,-5.2856,-5.2856,-5.2856,-5.251,-5.1625,-5.1769,-5.151,-5.0712,-5.1702,-5.2289,-5.2438,-5.3335,-5.4258,-5.5151,-5.5151,-5.5365,0.0,-4.7656,0.0,-5.0195,-5.168,0.0,0.0,0.0,0.0,0.0,0.0,0.0,0.0,0.0,0.0,0.0,0.0,0.0,0.0,0.0,0.0,0.0,0.0,0.0,0.0,0.0,0.0,0.0,0.0,0.0,-5.328,-5.3241,-5.3203,-5.3203,-5.3203,-5.3241,-5.328,-5.328,-5.328,-5.3318,-5.3318,-5.3318,-5.3318,-5.3318,-5.3318,-5.3387,-5.4357,-5.5333,-5.6179,-5.5474,-5.5578,-5.6227,-5.6368,-5.6344,-5.6186,-5.5976,-5.5932,-5.5891,-5.5758,-5.5703,-5.5703,-5.5703,-5.5703,-5.5703,-5.5703,-5.5703,-5.5703,-5.5703,-5.5703,-5.5703,-5.5703,-5.5703,-5.5703,-5.5703,-5.5703,-5.5703,-5.5703,-5.5703,-5.5703,-5.5742,-5.5742,-5.5703,-5.5742,-5.5742,-5.5703,-5.5703,-5.5703,-5.5703,-5.5703,-5.5703,-5.5703,-5.5703,-5.4972,-5.4511,-5.4511,-5.2933,-5.1962,-5.1962,-5.1962,-5.1625,-5.0789,-5.151,-5.151,-5.0712,-5.2318,-5.3185,-5.3344,-5.4316,-5.5165,-5.5854,-5.5854,-5.5397,0.0,0.0,0.0,-4.9023,-4.9805,0.0,0.0,0.0,0.0,0.0,0.0,0.0,0.0,0.0,0.0,0.0,0.0,0.0,0.0,0.0,0.0,0.0,0.0,0.0,0.0,0.0,0.0,0.0,0.0,0.0,-5.1548,-5.0548,-5.0164,-5.0741,-5.0779,-5.1279,-5.2346,-5.2933,-5.3203,-5.3203,-5.3203,-5.3203,-5.3203,-5.3203,-5.3203,-5.3203,-5.2993,-5.3489,-5.4388,-5.4198,-5.4303,-5.4534,-5.458,-5.4518,-5.4445,-5.4955,-5.5067,-5.5066,-5.5553,-5.5703,-5.5703,-5.5703,-5.5703,-5.5588,-5.5088,-5.4934,-5.4934,-5.4934,-5.4934,-5.5049,-5.5549,-5.5703,-5.5703,-5.5703,-5.5703,-5.5703,-5.5703,-5.5703,-5.5703,-5.5703,-5.5703,-5.5703,-5.5703,-5.5703,-5.5703,-5.5703,-5.5703,-5.5703,-5.5703,-5.5241,-5.5126,-5.5626,-5.3972,-5.328,-5.4395,-5.2895,-5.2154,-5.2692,-5.2731,-5.2356,-5.151,-5.2279,-5.2356,-5.151,-5.3164,-5.3522,-5.2423,-5.4434,-5.5275,-5.4998,-5.4998,-5.4833,-4.6047,0.0,0.0,0.0,0.0,0.0,0.0,0.0,0.0,0.0,0.0,0.0,0.0,0.0,0.0,0.0,0.0,0.0,0.0,0.0,0.0,0.0,0.0,0.0,0.0,0.0,0.0,0.0,0.0,0.0,-4.9779,-4.874,-4.8355,-4.8933,-4.8971,-4.951,-5.0615,-5.151,-5.1933,-5.1933,-5.2202,-5.2356,-5.2356,-5.2356,-5.2356,-5.2318,-5.1741,-5.2193,-5.3326,-5.3146,-5.3222,-5.3482,-5.3506,-5.3455,-5.3387,-5.3967,-5.413,-5.4126,-5.4664,-5.4857,-5.4857,-5.4857,-5.4857,-5.4741,-5.4241,-5.4049,-5.4126,-5.4434,-5.4511,-5.4703,-5.5472,-5.5703,-5.5626,-5.5357,-5.5511,-5.5703,-5.5703,-5.5703,-5.5703,-5.5703,-5.5703,-5.5703,-5.5703,-5.5703,-5.5703,-5.5703,-5.5703,-5.5588,-5.5318,-5.4818,-5.4587,-5.4818,-5.3356,-5.2818,-5.3972,-5.301,-5.2577,-5.3164,-5.3472,-5.3241,-5.2385,-5.3164,-5.3241,-5.2346,-5.378,-5.3626,-5.1923,-5.4203,-5.4857,-5.4049,-5.4049,-5.3895,0.0,0.0,0.0,0.0,0.0,0.0,0.0,0.0,0.0,0.0,0.0,0.0,0.0,0.0,0.0,0.0,0.0,0.0,0.0,0.0,0.0,0.0,0.0,0.0,0.0,0.0,0.0,0.0,0.0,-4.8048,-4.8048,-4.8048,-4.8048,-4.8048,-4.8086,-4.8086,-4.8086,-4.8933,-4.9356,-4.9394,-5.025,-5.0673,-5.0712,-5.0673,-5.0673,-5.0673,-5.0635,-5.1548,-5.3031,-5.236,-5.2473,-5.3146,-5.3249,-5.3237,-5.3126,-5.3164,-5.3164,-5.3164,-5.3203,-5.3203,-5.3203,-5.3203,-5.3203,-5.3203,-5.3164,-5.3164,-5.3356,-5.4203,-5.4434,-5.4664,-5.5472,-5.5665,-5.5472,-5.4703,-5.5126,-5.5703,-5.5703,-5.5703,-5.5703,-5.5703,-5.5703,-5.5703,-5.5703,-5.5703,-5.5703,-5.5703,-5.5703,-5.5434,-5.4626,-5.4511,-5.4164,-5.3318,-5.3241,-5.3203,-5.3241,-5.3241,-5.3241,-5.328,-5.4049,-5.4126,-5.328,-5.4049,-5.4087,-5.3241,-5.4087,-5.3703,-5.1962,-5.3703,-5.4049,-5.3164,-5.3164,-5.2702,-4.584,0.0,0.0,0.0,0.0,0.0,0.0,0.0,0.0,0.0,0.0,0.0,0.0,0.0,0.0,0.0,0.0,0.0,0.0,0.0,0.0,0.0,0.0,0.0,0.0,0.0,0.0,0.0,-4.6971,-4.6586,-4.7201,-4.7231,-4.7231,-4.7231,-4.7817,-4.8086,-4.8086,-4.8355,-4.8779,-4.9394,-4.9625,-5.0087,-5.0673,-5.0048,-4.974,-4.9702,-4.9086,-4.9433,-5.0481,-5.0903,-5.1202,-5.1404,-5.1442,-5.1433,-5.1471,-5.2049,-5.2269,-5.2346,-5.2972,-5.3203,-5.3203,-5.3203,-5.3203,-5.3087,-5.2462,-5.2269,-5.2308,-5.2538,-5.3087,-5.3895,-5.5318,-5.528,-5.4934,-5.528,-5.5549,-5.5703,-5.5703,-5.5703,-5.5703,-5.5703,-5.5703,-5.5703,-5.5703,-5.5703,-5.5703,-5.5703,-5.5703,-5.5626,-5.5395,-5.4857,-5.4395,-5.4164,-5.3587,-5.3472,-5.4087,-5.4126,-5.4395,-5.4972,-5.4703,-5.4395,-5.4164,-5.4357,-5.4395,-5.4164,-5.4934,-5.4857,-5.378,-5.4857,-5.4318,-5.2269,-5.2269,-5.1818,-4.5703,-4.5796,-4.588,-4.588,0.0,0.0,-4.4193,-4.4344,0.0,0.0,0.0,0.0,0.0,0.0,0.0,0.0,0.0,0.0,0.0,0.0,0.0,0.0,0.0,0.0,0.0,0.0,0.0,0.0,-4.6172,-4.5825,-4.6317,-4.6355,-4.6355,-4.6355,-4.6817,-4.7048,-4.7048,-4.7432,-4.7855,-4.8355,-4.8702,-4.9125,-4.9586,-4.9086,-4.8856,-4.8817,-4.8317,-4.8394,-4.8894,-4.9394,-5.0048,-5.0712,-5.0712,-5.0712,-5.075,-5.1241,-5.1395,-5.1471,-5.1972,-5.2164,-5.2164,-5.2164,-5.2164,-5.2049,-5.1548,-5.1395,-5.1471,-5.1808,-5.2538,-5.3356,-5.3972,-5.4049,-5.3972,-5.4087,-5.4395,-5.4664,-5.4664,-5.4664,-5.4857,-5.5549,-5.5703,-5.5703,-5.5703,-5.5703,-5.5703,-5.5703,-5.5703,-5.5434,-5.4741,-5.4587,-5.4203,-5.351,-5.3626,-5.3933,-5.4472,-5.4818,-5.5203,-5.5665,-5.5241,-5.5011,-5.5011,-5.5011,-5.5011,-5.5011,-5.5472,-5.5472,-5.5011,-5.5126,-5.4049,-5.1885,-5.1885,-5.1471,-4.5594,-4.5696,-4.5789,-4.5789,-4.5353,0.0,-4.3582,-4.3383,-4.3136,0.0,0.0,0.0,0.0,0.0,0.0,0.0,0.0,0.0,0.0,0.0,0.0,0.0,0.0,0.0,0.0,0.0,-4.5364,-4.5441,-4.5556,-4.5594,-4.5594,-4.5594,-4.5594,-4.5594,-4.5594,-4.5594,-4.5594,-4.6355,-4.6817,-4.6923,-4.7625,-4.8009,-4.8086,-4.8009,-4.7971,-4.7971,-4.7855,-4.7894,-4.7971,-4.7971,-4.8933,-5.0404,-5.0404,-5.0481,-5.0558,-5.0558,-5.0558,-5.0558,-5.0673,-5.0635,-5.0558,-5.0673,-5.0712,-5.0712,-5.0712,-5.0712,-5.0856,-5.1654,-5.2385,-5.2779,-5.2192,-5.2538,-5.2895,-5.2192,-5.2654,-5.3203,-5.3203,-5.3203,-5.3626,-5.5126,-5.5434,-5.5434,-5.5434,-5.5434,-5.5434,-5.5434,-5.5511,-5.5011,-5.3549,-5.4087,-5.401,-5.2346,-5.3664,-5.4587,-5.4511,-5.5241,-5.5703,-5.5703,-5.5703,-5.5703,-5.5703,-5.5703,-5.5703,-5.5703,-5.5703,-5.5703,-5.5703,-5.478,-5.3549,-5.2038,-5.1962,-5.1471,-4.5594,-4.5629,0.0,0.0,0.0,0.0,-4.4468,-4.4614,-4.4482,0.0,0.0,0.0,0.0,0.0,0.0,0.0,0.0,0.0,0.0,0.0,0.0,0.0,0.0,0.0,0.0,0.0,-4.3855,-4.4509,-4.521,-4.5594,-4.5594,-4.5594,-4.5594,-4.5594,-4.5594,-4.5594,-4.5594,-4.5787,-4.6201,-4.6885,-4.7038,-4.7471,-4.8086,-4.7432,-4.7115,-4.7086,-4.6394,-4.6471,-4.7115,-4.7115,-4.774,-4.8625,-4.8625,-4.9048,-4.9663,-4.9663,-4.9663,-4.974,-5.0481,-5.025,-4.9779,-5.0481,-5.0712,-5.0712,-5.0712,-5.0712,-5.0856,-5.1654,-5.1548,-5.1471,-5.2626,-5.2538,-5.2269,-5.2818,-5.3087,-5.3203,-5.3203,-5.3203,-5.3318,-5.3626,-5.3703,-5.3703,-5.3703,-5.3703,-5.3703,-5.3703,-5.428,-5.4626,-5.428,-5.4972,-5.5088,-5.4087,-5.4895,-5.5203,-5.4549,-5.5241,-5.5703,-5.5703,-5.5703,-5.5703,-5.5703,-5.5703,-5.5703,-5.5703,-5.5703,-5.5703,-5.5703,-5.4203,-5.328,-5.2933,-5.2231,-5.1471,0.0,0.0,0.0,-4.6124,0.0,0.0,0.0,-4.494,-4.447,0.0,0.0,0.0,0.0,0.0,0.0,0.0,0.0,0.0,0.0,0.0,0.0,0.0,0.0,0.0,0.0,0.0,-4.3278,-4.3662,-4.447,-4.494,-4.494,-4.5364,-4.5594,-4.5594,-4.5594,-4.5594,-4.5594,-4.5594,-4.5825,-4.624,-4.624,-4.6471,-4.6855,-4.6432,-4.624,-4.624,-4.5787,-4.5864,-4.624,-4.624,-4.6471,-4.6932,-4.7778,-4.8355,-4.874,-4.874,-4.874,-4.8894,-4.974,-4.9779,-4.9548,-5.0442,-5.0712,-5.0712,-5.0712,-5.0712,-5.0789,-5.1202,-5.101,-5.0904,-5.1741,-5.1625,-5.1395,-5.1856,-5.1933,-5.1933,-5.1933,-5.1933,-5.1933,-5.1933,-5.1933,-5.2202,-5.3049,-5.3203,-5.3203,-5.3203,-5.3933,-5.4357,-5.3895,-5.4934,-5.5395,-5.4587,-5.5203,-5.5549,-5.5126,-5.5472,-5.5703,-5.5703,-5.5703,-5.5703,-5.5703,-5.5703,-5.5703,-5.5703,-5.5703,-5.5703,-5.5703,-5.4857,-5.4241,-5.3818,-5.2972,-5.2087,0.0,0.0,0.0,0.0,0.0,-4.6018,0.0,0.0,0.0,0.0,0.0,0.0,0.0,0.0,0.0,0.0,0.0,0.0,0.0,0.0,0.0,0.0,0.0,0.0,0.0,0.0,-4.2854,-4.2854,-4.3624,-4.4124,-4.4278,-4.4979,-4.5441,-4.5594,-4.5594,-4.5594,-4.5594,-4.5594,-4.5594,-4.5594,-4.5594,-4.5594,-4.5594,-4.5594,-4.5594,-4.5594,-4.5594,-4.5594,-4.5594,-4.5594,-4.5594,-4.5748,-4.7086,-4.774,-4.7855,-4.7855,-4.7855,-4.8009,-4.8856,-4.9048,-4.9048,-4.9933,-5.0327,-5.0442,-5.0442,-5.0558,-5.0712,-5.0712,-5.0712,-5.0712,-5.0712,-5.0712,-5.0712,-5.0712,-5.0712,-5.0712,-5.0712,-5.0712,-5.0712,-5.0712,-5.0712,-5.1135,-5.2472,-5.2702,-5.2702,-5.2702,-5.3587,-5.401,-5.328,-5.4664,-5.5434,-5.478,-5.5318,-5.5703,-5.5703,-5.5703,-5.5703,-5.5703,-5.5703,-5.5703,-5.5703,-5.5703,-5.5703,-5.5703,-5.5703,-5.5703,-5.5703,-5.5703,-5.528,-5.4472,-5.378,-5.2972,0.0,0.0,0.0,0.0,-4.6778,0.0,0.0,0.0,0.0,0.0,0.0,0.0,0.0,0.0,0.0,0.0,0.0,0.0,0.0,0.0,0.0,0.0,0.0,0.0,0.0,0.0,0.0,-4.1962,-4.2739,-4.3547,-4.4239,-4.4393,-4.4778,-4.5594,-4.5594,-4.5594,-4.5594,-4.5594,-4.5594,-4.5594,-4.5594,-4.5594,-4.5594,-4.5594,-4.5594,-4.5594,-4.5594,-4.5594,-4.5594,-4.5594,-4.5594,-4.5633,-4.5825,-4.6355,-4.7038,-4.7038,-4.7038,-4.7154,-4.7971,-4.7778,-4.7317,-4.8125,-4.8933,-4.9548,-4.9548,-5.0087,-5.0712,-5.0712,-5.0712,-5.0712,-5.0712,-5.0712,-5.0712,-5.0712,-5.0712,-5.0712,-5.0712,-5.0712,-5.0712,-5.0712,-5.0712,-5.075,-5.0943,-5.0981,-5.0981,-5.0981,-5.2318,-5.3318,-5.3203,-5.4664,-5.5665,-5.5549,-5.5665,-5.5703,-5.5703,-5.5703,-5.5703,-5.5703,-5.5703,-5.5703,-5.5703,-5.5703,-5.5703,-5.5703,-5.5703,-5.5703,-5.5703,-5.5703,-5.528,-5.4511,-5.4395,-5.3895,0.0,0.0,0.0,0.0,0.0,0.0,-4.6509,0.0,-4.5518,0.0,0.0,0.0,0.0,0.0,0.0,0.0,0.0,0.0,0.0,0.0,0.0,0.0,0.0,0.0,0.0,0.0,0.0,0.0,0.0,-4.3239,-4.3585,-4.4509,-4.521,-4.5594,-4.5594,-4.5594,-4.5594,-4.5594,-4.5594,-4.5594,-4.5594,-4.5594,-4.5594,-4.5594,-4.5594,-4.5594,-4.5594,-4.5594,-4.5594,-4.5594,-4.5594,-4.5594,-4.5594,-4.5825,-4.6163,-4.6163,-4.6163,-4.6278,-4.7124,-4.7192,-4.7038,-4.7855,-4.8702,-4.9394,-4.9394,-5.001,-5.0712,-5.0712,-5.0712,-5.0712,-5.0712,-5.0712,-5.0712,-5.0712,-5.0712,-5.0712,-5.0712,-5.0712,-5.0712,-5.0712,-5.0712,-5.0712,-5.0712,-5.0712,-5.0712,-5.0712,-5.2125,-5.3203,-5.3203,-5.4664,-5.5703,-5.5703,-5.528,-5.5203,-5.5665,-5.528,-5.5011,-5.5011,-5.5011,-5.5203,-5.5665,-5.5703,-5.5703,-5.5703,-5.5703,-5.5703,-5.5703,-5.5703,-5.5511,-5.5203,-5.4703,-5.4318,-4.5671,0.0,0.0,0.0,0.0,0.0,0.0,0.0,0.0,0.0,0.0,0.0,0.0,0.0,0.0,0.0,0.0,0.0,0.0,0.0,0.0,0.0,0.0,0.0,0.0,0.0,0.0,0.0,0.0,0.0,-4.2739,-4.4124,-4.5017,-4.5248,-4.5479,-4.5594,-4.5594,-4.5594,-4.5594,-4.5594,-4.5594,-4.5594,-4.5594,-4.5594,-4.5594,-4.5594,-4.5594,-4.5594,-4.5594,-4.5594,-4.5594,-4.5594,-4.5594,-4.5594,-4.5594,-4.5594,-4.5594,-4.571,-4.6317,-4.6547,-4.6624,-4.724,-4.8163,-4.9048,-4.9048,-4.9817,-5.0712,-5.0712,-5.0712,-5.0712,-5.0712,-5.0712,-5.0712,-5.0712,-5.0712,-5.0712,-5.0712,-5.0712,-5.0712,-5.0712,-5.0712,-5.0712,-5.0712,-5.0712,-5.0712,-5.0712,-5.1933,-5.2856,-5.2856,-5.4126,-5.5126,-5.5357,-5.4857,-5.4818,-5.5626,-5.5164,-5.4818,-5.4818,-5.4818,-5.4972,-5.5357,-5.5588,-5.5588,-5.5395,-5.5588,-5.5703,-5.5703,-5.5703,-5.5703,-5.5703,-5.5088,-5.4818,0.0,0.0,0.0,-4.6056,0.0,0.0,0.0,0.0,-4.6624,0.0,0.0,0.0,0.0,0.0,-4.2777,-4.1923,0.0,0.0,0.0,0.0,0.0,0.0,0.0,0.0,0.0,0.0,0.0,0.0,0.0,0.0,-4.1808,-4.2701,-4.3547,-4.4316,-4.5171,-4.5594,-4.5594,-4.5594,-4.5594,-4.5594,-4.5594,-4.5594,-4.5594,-4.5594,-4.5594,-4.5594,-4.5594,-4.5594,-4.5594,-4.5594,-4.5594,-4.5594,-4.5594,-4.5594,-4.5594,-4.5594,-4.5594,-4.5594,-4.5633,-4.5633,-4.5633,-4.5671,-4.6778,-4.8125,-4.8125,-4.9356,-5.0712,-5.0712,-5.0712,-5.0712,-5.0712,-5.0712,-5.0712,-5.0712,-5.0712,-5.0712,-5.0712,-5.0712,-5.0712,-5.0712,-5.0712,-5.0712,-5.0712,-5.0712,-5.0712,-5.0712,-5.1395,-5.1923,-5.1923,-5.2741,-5.3587,-5.4434,-5.4511,-5.4818,-5.5626,-5.5665,-5.5665,-5.5665,-5.5665,-5.5318,-5.4549,-5.528,-5.5318,-5.4549,-5.528,-5.5703,-5.5703,-5.5703,-5.5703,-5.5703,-5.5665,-5.5665,0.0,0.0,-4.8548,-4.6894,0.0,0.0,0.0,0.0,0.0,0.0,0.0,0.0,0.0,0.0,-4.3624,-4.2777,-4.22,-4.1508,0.0,0.0,0.0,0.0,0.0,0.0,0.0,0.0,0.0,0.0,0.0,0.0,0.0,-4.3124,-4.4008,-4.4278,-4.5171,-4.5594,-4.5594,-4.5594,-4.5594,-4.5594,-4.5594,-4.5594,-4.5594,-4.5594,-4.5594,-4.5594,-4.5594,-4.5594,-4.5594,-4.5594,-4.5594,-4.5594,-4.5594,-4.5594,-4.5594,-4.5594,-4.5594,-4.5594,-4.5594,-4.5594,-4.5594,-4.5594,-4.674,-4.8086,-4.8086,-4.9317,-5.0712,-5.0712,-5.0712,-5.0712,-5.0712,-5.0712,-5.0712,-5.0712,-5.0712,-5.0712,-5.0712,-5.0712,-5.0712,-5.0712,-5.0712,-5.0712,-5.0712,-5.0712,-5.0712,-5.0712,-5.1395,-5.1885,-5.1885,-5.2654,-5.3549,-5.4395,-5.3972,-5.4203,-5.5588,-5.5203,-5.5126,-5.5665,-5.5203,-5.5011,-5.528,-5.5549,-5.5549,-5.528,-5.5549,-5.5703,-5.5703,-5.5703,-5.5703,-5.5703,-5.5703,-5.5703,-4.6762,-4.7803,0.0,-4.6915,-4.7095,0.0,-4.5997,0.0,0.0,0.0,0.0,0.0,0.0,0.0,-4.4047,-4.3239,-4.2354,-4.1508,0.0,-4.0516,0.0,0.0,0.0,0.0,0.0,0.0,0.0,-4.0054,-4.0323,0.0,0.0,0.0,-4.3855,-4.3855,-4.5017,-4.5594,-4.5594,-4.5594,-4.5594,-4.5594,-4.5594,-4.5594,-4.5594,-4.5594,-4.5594,-4.5594,-4.5594,-4.5594,-4.5594,-4.5594,-4.5594,-4.5594,-4.5594,-4.5594,-4.5594,-4.5594,-4.5594,-4.5594,-4.5594,-4.5594,-4.5594,-4.5594,-4.674,-4.8086,-4.8086,-4.9317,-5.0712,-5.0712,-5.0712,-5.0712,-5.0712,-5.0712,-5.0712,-5.0712,-5.0712,-5.0712,-5.0712,-5.0712,-5.0712,-5.0712,-5.0712,-5.0712,-5.0712,-5.0712,-5.0712,-5.0712,-5.1125,-5.1471,-5.1471,-5.1972,-5.2741,-5.3895,-5.3549,-5.3895,-5.5549,-5.5203,-5.5164,-5.5665,-5.5203,-5.5011,-5.5241,-5.5549,-5.5703,-5.5703,-5.5703,-5.5857,-5.6165,-5.5857,-5.5703,-5.5703,-5.5703,-5.5703]},{"header":{"parameterUnit":"m.s-1","parameterCategory":1,"la1":30.6,"la2":29.2853,"lo1":-89.7004,"lo2":-87.6739,"dy":0.0162,"dx":0.0183,"nx":112,"ny":82,"refTime":"2024-05-07T00:00:00:Z","depth":0,"parameterNumber":3,"parameterNumberName":"V-component_of_WINDS"},"data":[0.0,0.0,0.0,0.0,0.0,0.0,0.0,0.0,0.0,0.0,0.0,0.0,0.0,0.0,0.0,0.0,0.0,0.0,0.0,0.0,0.0,0.0,0.0,0.0,0.0,0.0,0.0,0.0,0.0,0.0,0.0,0.0,0.0,0.0,0.0,0.0,0.0,0.0,0.0,0.0,0.0,0.0,0.0,0.0,0.0,0.0,0.0,0.0,0.0,0.0,0.0,0.0,0.0,0.0,0.0,0.0,0.0,0.0,0.0,0.0,0.0,0.0,0.0,0.0,0.0,0.0,0.0,0.0,0.0,0.0,0.0,0.0,0.0,0.0,0.0,0.0,0.0,0.0,0.0,0.0,0.0,0.0,0.0,0.0,0.0,0.0,0.0,0.0,0.0,0.0,0.0,-0.1672,-0.0711,0.0,0.0,0.0,0.0,0.0,0.0,0.0,0.0,0.0,0.0,0.0,0.0,0.0,0.0,0.0,0.0,0.0,0.0,0.0,0.0,0.0,0.0,0.0,0.0,0.0,0.0,0.0,0.0,0.0,0.0,0.0,0.0,0.0,0.0,0.0,0.0,0.0,0.0,0.0,0.0,0.0,0.0,0.0,0.0,0.0,0.0,0.0,0.0,0.0,0.0,0.0,0.0,0.0,0.0,0.0,0.0,0.0,0.0,0.0,0.0,0.0,0.0,0.0,0.0,0.0,0.0,0.0,0.0,0.0,0.0,0.0,0.0,0.0,0.0,0.0,0.0,0.0,0.0,0.0,0.0,0.0,0.0,0.0,0.0,0.0,0.0,0.0,0.0,0.0,0.0,0.0,0.0,0.0,0.0,0.0,0.0,0.0,0.0,0.0,0.0,0.0,0.0,0.0,0.0,0.0,0.0,0.0,0.0,0.0,-0.0307,-0.0296,-0.0082,0.0,0.0,0.0,0.0,0.0,0.0,0.0,0.0,0.0,0.0,0.0,0.0,0.0,0.0,0.0,0.0,0.0,0.0,0.0,0.0,0.0,0.0,0.0,0.0,0.0,0.0,0.0,0.0,0.0,0.0,0.0,0.0,0.0,0.0,0.0,0.0,0.0,0.0,0.0,0.0,0.0,0.0,0.0,0.0,0.0,0.0,0.0,0.0,0.0,0.0,0.0,0.0,0.0,0.0,0.0,0.0,0.0,0.0,0.0,0.0,0.0,0.0,0.0,0.0,0.0,0.0,0.0,0.0,0.0,0.0,0.0,0.0,0.0,0.0,0.0,0.0,0.0,0.0,0.0,0.0,0.0,0.0,0.0,0.0,0.0,0.0,0.0,0.0,0.0,0.0,0.0,0.0,0.0,0.0,0.0,0.0,0.0,0.0,0.0,0.0,0.0,0.0,0.0,0.0,0.0,0.0,0.0,0.0,-0.0608,-0.0799,-0.0078,0.0,0.0,0.0,0.0,-0.0292,-0.091,-0.2608,0.0,0.0,0.0,0.0,0.0,0.0,0.0,0.0,0.0,0.0,0.0,0.0,0.0,0.0,0.0,0.0,0.0,0.0,0.0,0.0,0.0,0.0,0.0,0.0,0.0,0.0,0.0,0.0,0.0,0.0,0.0,0.0,0.0,0.0,0.0,0.0,0.0,0.0,0.0,0.0,0.0,0.0,0.0,0.0,0.0,0.0,0.0,0.0,0.0,0.0,0.0,0.0,0.0,0.0,0.0,0.0,0.0,0.0,0.0,0.0,0.0,0.0,0.0,0.0,0.0,0.0,0.0,0.0,0.0,0.0,0.0,0.0,0.0,0.0,0.0,0.0,0.0,0.0,0.0,0.0,0.0,0.0,0.0,0.0,0.0,0.0,0.0,0.0,0.0,0.0,0.0,0.0,0.0,0.0,0.0,0.0,0.0,0.0,0.0,0.0,0.0,0.0,-0.1065,-0.1141,-0.008,0.0,0.0,0.0,0.0,-0.0499,-0.1724,-0.2915,0.0,0.0,0.0,0.0,0.0,0.0,0.0,0.0,0.0,0.0,0.0,0.0,0.0,0.0,0.0,0.0,0.0,0.0,0.0,0.0,0.0,0.0,0.0,0.0,0.0,0.0,0.0,0.0,0.0,0.0,0.0,0.0,0.0,0.0,0.0,0.0,0.0,0.0,0.0,0.0,0.0,0.0,0.0,0.0,0.0,0.0,0.0,0.0,0.0,0.0,0.0,0.0,0.0,0.0,0.0,0.0,0.0,0.0,0.0,0.0,0.0,0.0,0.0,0.0,0.0,0.0,0.0,0.0,0.0,0.0,0.0,0.0,0.0,0.0,0.0,0.0,0.0,0.0,0.0,0.0,0.0,0.0,0.0,0.0,0.0,0.0,0.0,0.0,0.0,0.0,0.0,0.0,0.0,0.0,0.0,0.0,0.0,0.0,0.0,0.0,0.0,0.0,-0.0796,-0.0073,0.0,0.0,0.0,0.0,0.0,-0.0519,-0.17,-0.2745,0.0,0.0,0.0,0.0,0.0,0.0,0.0,0.0,0.0,0.0,0.0,0.0,0.0,0.0,0.0,0.0,0.0,0.0,0.0,0.0,0.0,0.0,0.0,0.0,0.0,0.0,0.0,0.0,0.0,0.0,0.0,0.0,0.0,0.0,0.0,0.0,0.0,0.0,0.0,0.0,0.0,0.0,0.0,0.0,0.0,0.0,0.0,0.0,0.0,0.0,0.0,0.0,0.0,0.0,0.0,0.0,0.0,0.0,0.0,0.0,0.0,0.0,0.0,0.0,0.0,0.0,0.0,0.0,0.0,0.0,0.0,0.0,0.0,0.0,0.0,0.0,0.0,0.0,0.0,0.0,0.0,0.0,0.0,0.0,0.0,0.0,0.0,0.0,0.0,0.0,0.0,0.0,0.0,0.0,0.0,0.0,0.0,0.0,0.0,0.0,0.0,0.0,-0.0716,0.0,0.0,0.0,0.0,0.0,0.0,-0.0856,-0.2801,0.0,0.0,0.0,0.0,0.0,0.0,0.0,0.0,0.0,0.0,0.0,0.0,0.0,0.0,0.0,0.0,0.0,0.0,0.0,0.0,0.0,0.0,0.0,0.0,0.0,0.0,0.0,0.0,0.0,0.0,0.0,0.0,0.0,0.0,0.0,0.0,0.0,0.0,0.0,0.0,0.0,0.0,0.0,0.0,0.0,0.0,0.0,0.0,0.0,0.0,0.0,0.0,0.0,0.0,0.0,0.0,0.0,0.0,0.0,0.0,0.0,0.0,0.0,0.0,0.0,0.0,0.0,0.0,0.0,0.0,0.0,0.0,0.0,0.0,0.0,0.0,0.0,0.0,0.0,0.0,0.0,0.0,0.0,0.0,0.0,0.0,0.0,0.0,0.0,0.0,0.0,0.0,0.0,0.0,0.0,0.0,0.0,0.0,0.0,0.0,0.0,0.0,-0.2339,-0.0959,0.0,0.0,0.0,0.0,0.0,0.0,-0.0892,-0.2907,0.0,0.0,0.0,0.0,0.0,0.0,0.0,0.0,0.0,0.0,0.0,0.0,0.0,0.0,0.0,0.0,0.0,0.0,0.0,0.0,0.0,0.0,0.0,0.0,0.0,0.0,0.0,0.0,0.0,0.0,0.0,0.0,0.0,0.0,0.0,0.0,0.0,0.0,0.0,0.0,0.0,0.0,0.0,0.0,0.0,0.0,0.0,0.0,0.0,0.0,0.0,0.0,0.0,0.0,0.0,0.0,0.0,0.0,0.0,0.0,0.0,0.0,0.0,0.0,0.0,0.0,0.0,0.0,0.0,0.0,0.0,0.0,0.0,0.0,0.0,0.0,0.0,0.0,0.0,0.0,0.0,0.0,0.0,0.0,0.0,0.0,0.0,0.0,0.0,0.0,0.0,0.0,0.0,0.0,0.0,0.0,0.0,0.0,0.0,0.0,0.0,0.0,-0.3462,-0.1514,0.0,0.0,0.0,0.0,0.0,0.0,-0.0513,0.0,0.0,0.0,0.0,0.0,0.0,0.0,0.0,0.0,0.0,0.0,0.0,0.0,0.0,0.0,0.0,0.0,0.0,0.0,0.0,0.0,0.0,0.0,0.0,0.0,0.0,0.0,0.0,0.0,0.0,0.0,0.0,0.0,0.0,0.0,0.0,0.0,0.0,0.0,0.0,0.0,0.0,0.0,0.0,0.0,0.0,0.0,0.0,0.0,0.0,0.0,0.0,0.0,0.0,0.0,0.0,0.0,0.0,0.0,0.0,0.0,0.0,0.0,0.0,0.0,0.0,0.0,0.0,0.0,0.0,0.0,0.0,0.0,0.0,0.0,0.0,0.0,0.0,0.0,0.0,0.0,0.0,0.0,0.0,0.0,0.0,0.0,0.0,0.0,0.0,0.0,0.0,0.0,0.0,0.0,0.0,0.0,0.0,0.0,0.0,0.0,0.0,0.0,-0.3576,-0.1488,0.0,0.0,0.0,0.0,0.0,0.0,-0.0528,-0.1737,0.0,0.0,0.0,0.0,0.0,0.0,0.0,0.0,0.0,0.0,0.0,0.0,0.0,0.0,0.0,0.0,0.0,0.0,0.0,0.0,0.0,0.0,0.0,0.0,0.0,0.0,0.0,0.0,0.0,0.0,0.0,0.0,0.0,0.0,0.0,0.0,0.0,0.0,0.0,0.0,0.0,0.0,0.0,0.0,0.0,0.0,0.0,0.0,0.0,0.0,0.0,0.0,0.0,0.0,0.0,0.0,0.0,0.0,0.0,0.0,0.0,0.0,0.0,0.0,0.0,0.0,0.0,0.0,0.0,0.0,0.0,0.0,0.0,0.0,0.0,0.0,0.0,0.0,0.0,0.0,0.0,0.0,0.0,0.0,0.0,0.0,0.0,0.0,0.0,0.0,0.0,0.0,0.0,0.0,0.0,0.0,0.0,0.0,0.0,0.0,0.0,0.0,-0.3594,-0.1516,0.0,0.0,0.0,0.0,0.0,0.0,-0.0289,-0.1048,0.0,0.0,0.0,0.0,0.0,0.0,0.0,0.0,0.0,0.0,0.0,0.0,0.0,0.0,0.0,0.0,0.0,0.0,0.0,0.0,0.0,0.0,0.0,0.0,0.0,0.0,0.0,0.0,0.0,0.0,0.0,0.0,0.0,0.0,0.0,0.0,0.0,0.0,0.0,0.0,0.0,0.0,0.0,0.0,0.0,0.0,0.0,0.0,0.0,0.0,0.0,0.0,0.0,0.0,0.0,0.0,0.0,0.0,0.0,0.0,0.0,0.0,0.0,0.0,0.0,0.0,0.0,0.0,0.0,0.0,0.0,0.0,0.0,0.0,0.0,0.0,0.0,0.0,0.0,0.0,0.0,0.0,0.0,0.0,0.0,0.0,0.0,0.0,0.0,0.0,0.0,0.0,0.0,0.0,0.0,0.0,0.0,0.0,0.0,0.0,0.0,0.0,-0.3589,-0.1478,0.0,0.0,0.0,0.0,0.0,0.0,0.0,0.0,0.0,0.0,0.0,0.0,0.0,0.0,0.0,0.0,0.0,0.0,0.0,0.0,0.0,0.0,0.0,0.0,0.0,0.0,0.0,0.0,0.0,0.0,0.0,0.0,0.0,0.0,0.0,0.0,0.0,0.0,0.0,0.0,0.0,0.0,0.0,0.0,0.0,0.0,0.0,0.0,0.0,0.0,0.0,0.0,0.0,0.0,0.0,0.0,0.0,0.0,0.0,0.0,0.0,0.0,0.0,0.0,0.0,0.0,0.0,0.0,-0.5126,0.0,0.0,0.0,0.0,0.0,0.0,0.0,0.0,0.0,0.0,0.0,0.0,0.0,0.0,0.0,0.0,0.0,0.0,0.0,0.0,0.0,0.0,0.0,0.0,0.0,0.0,0.0,0.0,0.0,0.0,0.0,0.0,0.0,0.0,0.0,0.0,0.0,0.0,0.0,0.0,0.0,-0.3758,-0.1564,0.0,0.0,0.0,0.0,0.0,0.0,0.0,0.0,-0.1007,0.0,0.0,0.0,0.0,0.0,0.0,0.0,0.0,0.0,0.0,0.0,0.0,0.0,0.0,0.0,0.0,0.0,0.0,0.0,0.0,0.0,0.0,0.0,0.0,0.0,0.0,0.0,0.0,0.0,0.0,0.0,0.0,0.0,0.0,0.0,0.0,0.0,0.0,0.0,0.0,0.0,0.0,0.0,0.0,0.0,0.0,0.0,0.0,0.0,0.0,0.0,0.0,0.0,0.0,0.0,0.0,0.0,0.0,0.0,0.0,-0.3471,0.0,0.0,0.0,0.0,0.0,0.0,0.0,0.0,0.0,0.0,0.0,0.0,0.0,0.0,0.0,0.0,0.0,0.0,0.0,0.0,0.0,0.0,0.0,0.0,0.0,0.0,0.0,0.0,0.0,0.0,0.0,0.0,0.0,0.0,0.0,0.0,0.0,0.0,0.0,0.0,-0.3813,-0.1602,0.0,0.0,0.0,0.0,0.0,0.0,0.0,0.0,-0.0505,0.0,0.0,0.0,0.0,0.0,0.0,0.0,0.0,0.0,0.0,0.0,0.0,0.0,0.0,0.0,0.0,0.0,0.0,0.0,0.0,0.0,0.0,0.0,0.0,0.0,0.0,0.0,0.0,0.0,0.0,0.0,0.0,0.0,0.0,0.0,0.0,0.0,0.0,0.0,0.0,0.0,0.0,0.0,0.0,0.0,0.0,0.0,0.0,0.0,0.0,0.0,0.0,0.0,-0.0618,0.0,0.0,0.0,0.0,-0.0077,-0.13,-0.1956,-0.2202,0.0,0.0,0.0,0.0,0.0,0.0,0.0,0.0,0.0,0.0,0.0,0.0,0.0,0.0,0.0,0.0,0.0,0.0,0.0,0.0,0.0,0.0,0.0,0.0,0.0,0.0,0.0,0.0,0.0,0.0,0.0,0.0,0.0,0.0,0.0,0.0,0.0,0.0,0.0,-0.378,-0.1576,0.0,0.0,0.0,0.0,0.0,0.0,0.0,0.0,0.0,-0.0392,0.0,0.0,0.0,0.0,0.0,0.0,0.0,0.0,0.0,0.0,0.0,0.0,0.0,0.0,0.0,0.0,0.0,0.0,0.0,0.0,0.0,0.0,0.0,0.0,0.0,0.0,0.0,0.0,0.0,0.0,0.0,0.0,0.0,0.0,0.0,0.0,0.0,0.0,0.0,0.0,0.0,0.0,0.0,0.0,0.0,0.0,0.0,-0.0072,-0.0297,-0.0079,-0.0082,-0.0248,-0.0087,0.0,0.0,0.0,0.0,0.0,-0.0168,0.0,-0.0355,-0.0275,0.0,0.0,0.0,0.0,0.0,0.0,0.0,0.0,0.0,0.0,0.0,0.0,0.0,0.0,0.0,0.0,0.0,0.0,0.0,0.0,0.0,0.0,-0.0197,-0.0063,0.0,0.0,0.0,0.0,-0.0326,-0.153,-0.188,0.0,0.0,0.0,0.0,0.0,0.0,0.0,-0.3816,-0.1576,0.0,0.0,0.0,0.0,0.0,0.0,0.0,0.0,0.0,-0.0045,-0.0221,-0.008,0.0,0.0,0.0,0.0,0.0,0.0,0.0,0.0,0.0,0.0,0.0,0.0,0.0,0.0,0.0,0.0,0.0,0.0,0.0,0.0,0.0,0.0,0.0,0.0,0.0,0.0,0.0,0.0,0.0,0.0,0.0,0.0,0.0,0.0,0.0,0.0,0.0,0.0,0.0,0.0,0.0,0.0,0.0,0.0,0.0,0.0,0.0,0.0,0.0,0.0,0.0,0.0,0.0,0.0,0.0,0.0,0.0,0.0,0.0,0.0,0.0,0.0,0.0,0.0,0.0,0.0,-0.1751,-0.2906,-0.2104,-0.1859,0.0,0.0,0.0,0.0,0.0,0.0,0.0,0.0,0.0,0.0,0.0,0.0,0.0,0.0,0.0,0.0,0.0,0.0,-0.0176,0.0,-0.0874,-0.1453,-0.3354,0.0,0.0,0.0,0.0,0.0,-0.2786,-0.1151,0.0,0.0,0.0,0.0,0.0,0.0,0.0,0.0,0.0,0.0,0.0,0.0,-0.024,0.0,0.0,0.0,0.0,0.0,0.0,0.0,0.0,0.0,0.0,0.0,0.0,0.0,0.0,0.0,0.0,0.0,0.0,0.0,0.0,0.0,0.0,0.0,0.0,0.0,0.0,0.0,0.0,0.0,0.0,0.0,0.0,0.0,0.0,0.0,0.0,0.0,0.0,0.0,0.0,0.0,0.0,0.0,0.0,0.0,0.0,0.0,0.0,0.0,0.0,0.0,0.0,0.0,0.0,0.0,0.0,0.0,0.0,0.0,0.0,0.0,0.0,-0.0676,-0.1476,-0.041,-0.0689,-0.1458,-0.0362,0.0,0.0,0.0,0.0,0.0,0.0,0.0,0.0,0.0,0.0,0.0,0.0,0.0,0.0,0.0,0.0,0.0,0.0,0.0,0.0,0.0,0.0,-0.04,-0.1773,0.0,0.0,0.0,0.0,-0.1989,-0.1943,-0.0823,0.0,0.0,0.0,0.0,0.0,0.0,0.0,0.0,0.0,0.0,0.0,0.0,0.0,0.0,0.0,0.0,0.0,0.0,0.0,0.0,0.0,0.0,0.0,0.0,0.0,0.0,0.0,0.0,0.0,0.0,0.0,0.0,0.0,0.0,0.0,0.0,0.0,0.0,0.0,0.0,0.0,0.0,0.0,0.0,0.0,0.0,0.0,0.0,0.0,0.0,0.0,0.0,0.0,0.0,0.0,0.0,0.0,0.0,0.0,0.0,0.0,0.0,0.0,0.0,0.0,0.0,0.0,0.0,0.0,0.0,0.0,0.0,0.0,0.0,0.0,-0.0074,-0.0074,0.0,-0.0073,-0.0074,0.0,0.0,0.0,0.0,0.0,0.0,0.0,0.0,0.0,0.0,0.0,0.0,0.0,0.0,0.0,0.0,0.0,0.0,0.0,0.0,0.0,0.0,0.0,-0.0445,-0.1766,0.0,-0.2414,-0.3632,-0.276,-0.198,-0.1805,-0.0747,0.0,0.0,0.0,0.0,0.0,0.0,0.0,0.0,0.0,0.0,0.0,0.0,0.0,0.0,0.0,0.0,0.0,0.0,0.0,0.0,0.0,0.0,0.0,0.0,0.0,0.0,0.0,0.0,0.0,0.0,0.0,0.0,0.0,0.0,0.0,0.0,0.0,0.0,0.0,0.0,0.0,0.0,0.0,0.0,0.0,0.0,0.0,0.0,0.0,0.0,0.0,0.0,0.0,0.0,0.0,0.0,0.0,0.0,0.0,0.0,0.0,0.0,0.0,0.0,0.0,0.0,0.0,0.0,0.0,0.0,0.0,0.0,0.0,0.0,0.0,0.0,0.0,0.0,0.0,0.0,0.0,0.0,0.0,0.0,0.0,0.0,0.0,0.0,0.0,0.0,0.0,0.0,0.0,0.0,0.0,0.0,0.0,0.0,0.0,0.0,0.0,0.0,0.0,-0.0177,-0.062,-0.0711,-0.0854,-0.1309,-0.1008,-0.0696,-0.064,-0.0269,0.0,0.0,0.0,0.0,0.0,0.0,0.0,0.0,0.0,0.0,0.0,0.0,0.0,0.0,0.0,0.0,0.0,0.0,0.0,0.0,0.0,0.0,0.0,0.0,0.0,0.0,0.0,0.0,0.0,0.0,0.0,0.0,0.0,0.0,0.0,0.0,0.0,0.0,0.0,0.0,0.0,0.0,0.0,0.0,0.0,0.0,0.0,0.0,0.0,0.0,0.0,0.0,0.0,0.0,0.0,0.0,0.0,0.0,0.0,0.0,0.0,0.0,0.0,0.0,0.0,0.0,0.0,0.0,0.0,0.0,0.0,0.0,0.0,0.0,0.0,0.0,0.0,0.0,0.0,0.0,0.0,0.0,0.0,0.0,0.0,0.0,0.0,0.0,0.0,0.0,0.0,0.0,0.0,0.0,0.0,0.0,0.0,0.0,0.0,0.0,0.0,0.0,0.0,0.0,0.0,0.0,0.0,0.0,0.0,0.0,0.0,0.0,0.0,0.0,0.0,0.0,0.0,0.0,0.0,0.0,0.0,0.0,0.0,0.0,0.0,0.0,0.0,0.0,0.0,0.0,0.0,0.0,0.0,0.0,0.0,0.0,0.0,0.0,0.0,0.0,0.0,0.0,0.0,0.0,0.0,0.0,0.0,0.0,0.0,0.0,0.0,0.0,-0.0287,0.0,0.0,0.0,0.0,0.0,0.0,0.0,0.0,0.0,0.0,0.0,0.0,0.0,0.0,0.0,0.0,0.0,0.0,0.0,0.0,0.0,0.0,0.0,0.0,0.0,0.0,0.0,0.0,0.0,0.0,0.0,0.0,0.0,0.0,0.0,0.0,0.0,0.0,0.0,0.0,0.0,0.0,0.0,0.0,0.0,0.0,0.0,0.0,0.0,0.0,0.0,0.0,0.0,0.0,0.0,0.0,0.0,0.0,0.0,0.0,0.0,0.0,0.0,0.0,0.0,0.0,0.0,0.0,0.0,0.0,0.0,0.0,0.0,0.0,0.0,0.0,0.0,0.0,0.0,0.0,0.0,0.0,0.0,0.0,0.0,0.0,0.0,-0.0038,0.0,0.0,0.0,0.0,0.0,0.0,0.0,0.0,0.0,0.0,0.0,0.0,0.0,0.0,0.0,0.0,0.0,0.0,0.0,0.0,0.0,0.0,-0.1763,-0.0235,0.0,0.0,0.0,0.0,0.0,0.0,0.0,0.0,0.0,0.0,0.0,0.0,0.0,0.0,0.0,0.0,0.0,0.0,0.0,0.0,0.0,0.0,0.0,0.0,0.0,0.0,0.0,0.0,0.0,0.0,0.0,0.0,0.0,0.0,0.0,0.0,0.0,0.0,0.0,0.0,0.0,0.0,0.0,0.0,0.0,0.0,0.0,0.0,0.0,0.0,0.0,0.0,0.0,0.0,0.0,0.0,0.0,0.0,0.0,0.0,0.0,0.0,0.0,0.0,0.0,0.0,0.0,0.0,0.0,0.0,0.0,0.0,0.0,0.0,0.0,0.0,0.0,0.0,0.0,0.0,0.0,0.0,0.0,0.0,0.0,0.0,-0.0395,0.0,0.0,0.0,0.0,0.0,0.0,0.0,0.0,0.0,0.0,0.0,0.0,0.0,0.0,0.0,0.0,0.0,0.0,0.0,0.0,0.0,0.0,-0.293,-0.1813,-0.0257,0.0,0.0,0.0,0.0,0.0,0.0,0.0,0.0,0.0,0.0,0.0,0.0,0.0,0.0,0.0,0.0,0.0,0.0,0.0,0.0,0.0,0.0,0.0,0.0,0.0,0.0,0.0,0.0,0.0,0.0,0.0,0.0,0.0,0.0,0.0,0.0,0.0,0.0,0.0,0.0,0.0,0.0,0.0,0.0,0.0,0.0,0.0,0.0,0.0,0.0,0.0,0.0,0.0,0.0,0.0,0.0,0.0,0.0,0.0,0.0,0.0,0.0,0.0,0.0,0.0,0.0,0.0,0.0,0.0,0.0,0.0,0.0,0.0,0.0,0.0,0.0,0.0,0.0,0.0,0.0,0.0,0.0,0.0,0.0,0.0,0.0,-0.0326,-0.0949,0.0,0.0,0.0,-0.3342,-0.4666,0.0,0.0,0.0,0.0,0.0,0.0,0.0,0.0,0.0,0.0,0.0,0.0,0.0,0.0,0.0,0.0,-0.2311,-0.1833,-0.0184,0.0,0.0,0.0,0.0,0.0,0.0,0.0,0.0,0.0,0.0,0.0,0.0,0.0,0.0,0.0,0.0,0.0,0.0,0.0,0.0,0.0,0.0,0.0,0.0,0.0,0.0,0.0,0.0,0.0,0.0,0.0,0.0,0.0,0.0,0.0,0.0,0.0,0.0,0.0,0.0,0.0,0.0,0.0,0.0,0.0,0.0,0.0,0.0,0.0,0.0,0.0,0.0,0.0,0.0,0.0,0.0,0.0,0.0,0.0,0.0,0.0,0.0,0.0,0.0,0.0,0.0,0.0,0.0,0.0,0.0,0.0,0.0,0.0,0.0,0.0,0.0,0.0,0.0,0.0,0.0,0.0,0.0,0.0,0.0,0.0,0.0,0.0,0.0,0.0,-0.0085,-0.0262,-0.2387,-0.3964,0.0,0.0,0.0,0.0,0.0,0.0,0.0,0.0,0.0,0.0,0.0,0.0,0.0,0.0,0.0,-0.2288,-0.1262,-0.0356,-0.0092,0.0,0.0,0.0,0.0,0.0,0.0,0.0,0.0,0.0,0.0,0.0,0.0,0.0,0.0,0.0,0.0,0.0,0.0,0.0,0.0,0.0,0.0,0.0,0.0,0.0,0.0,0.0,0.0,0.0,0.0,0.0,0.0,0.0,0.0,0.0,0.0,0.0,0.0,0.0,0.0,0.0,0.0,0.0,0.0,0.0,0.0,0.0,0.0,0.0,0.0,0.0,0.0,0.0,0.0,0.0,0.0,0.0,0.0,0.0,0.0,0.0,0.0,0.0,0.0,0.0,0.0,0.0,0.0,0.0,0.0,0.0,0.0,0.0,0.0,0.0,0.0,0.0,0.0,0.0,0.0,0.0,0.0,0.0,0.0,0.0,0.0,0.0,0.0,0.0,-0.048,-0.1468,-0.193,-0.2288,0.0,0.0,0.0,0.0,0.0,0.0,0.0,0.0,0.0,0.0,0.0,-0.1316,-0.2131,0.0,-0.1124,-0.1086,-0.0524,0.0,0.0,0.0,0.0,0.0,0.0,0.0,0.0,0.0,0.0,0.0,0.0,0.0,0.0,0.0,0.0,0.0,0.0,0.0,0.0,0.0,0.0,0.0,0.0,0.0,0.0,0.0,0.0,0.0,0.0,0.0,0.0,0.0,0.0,0.0,0.0,0.0,0.0,0.0,0.0,0.0,0.0,0.0,0.0,0.0,0.0,0.0,0.0,0.0,0.0,0.0,0.0,0.0,0.0,0.0,0.0,0.0,0.0,0.0,0.0,0.0,0.0,0.0,0.0,0.0,0.0,0.0,0.0,0.0,0.0,0.0,0.0,0.0,0.0,0.0,0.0,0.0,0.0,0.0,0.0,0.0,0.0,0.0,0.0,0.0,0.0,0.0,0.0,0.0,0.0,0.0,-0.0311,-0.0896,-0.0887,-0.1551,0.0,0.0,0.0,0.0,0.0,0.0,0.0,0.0,0.0,0.0,0.0,0.0,0.0,0.0,0.0,0.0,0.0,0.0,0.0,0.0,0.0,0.0,0.0,0.0,0.0,0.0,0.0,0.0,0.0,0.0,0.0,0.0,0.0,0.0,0.0,0.0,0.0,0.0,0.0,0.0,0.0,0.0,0.0,0.0,0.0,0.0,0.0,0.0,0.0,0.0,0.0,0.0,0.0,0.0,0.0,0.0,0.0,0.0,0.0,0.0,0.0,0.0,0.0,0.0,0.0,0.0,0.0,0.0,0.0,0.0,0.0,0.0,0.0,0.0,0.0,0.0,0.0,0.0,0.0,0.0,0.0,0.0,0.0,0.0,0.0,0.0,0.0,0.0,0.0,0.0,0.0,0.0,0.0,0.0,0.0,0.0,0.0,0.0,0.0,0.0,0.0,0.0,0.0,0.0,0.0,0.0,0.0,0.0,0.0,0.0,0.0,-0.1031,0.0,-0.0115,-0.0235,-0.0254,-0.0126,0.0,0.0,0.0,0.0,0.0,0.0,0.0,0.0,0.0,0.0,0.0,0.0,0.0,0.0,0.0,0.0,0.0,0.0,0.0,0.0,0.0,0.0,0.0,0.0,0.0,0.0,0.0,0.0,0.0,0.0,0.0,0.0,0.0,0.0,0.0,0.0,0.0,0.0,0.0,0.0,0.0,0.0,0.0,0.0,0.0,0.0,0.0,0.0,0.0,0.0,0.0,0.0,0.0,0.0,0.0,0.0,0.0,0.0,0.0,0.0,0.0,0.0,0.0,0.0,0.0,0.0,0.0,0.0,0.0,0.0,0.0,0.0,0.0,0.0,0.0,0.0,0.0,0.0,0.0,0.0,0.0,0.0,0.0,0.0,0.0,0.0,0.0,0.0,0.0,0.0,0.0,0.0,0.0,0.0,0.0,0.0,0.0,0.0,0.0,0.0,0.0,0.0,0.0,0.0,0.0,0.0,-0.0135,0.0,0.0,0.0,0.0,0.0,0.0,0.0,0.0,0.0,0.0,0.0,0.0,0.0,0.0,0.0,0.0,0.0,0.0,0.0,0.0,0.0,0.0,0.0,0.0,0.0,0.0,0.0,0.0,0.0,0.0,0.0,0.0,0.0,0.0,0.0,0.0,0.0,0.0,0.0,0.0,0.0,0.0,0.0,0.0,0.0,0.0,0.0,0.0,0.0,0.0,0.0,0.0,0.0,0.0,0.0,0.0,0.0,0.0,0.0,0.0,0.0,0.0,0.0,0.0,0.0,0.0,0.0,0.0,0.0,0.0,0.0,0.0,0.0,0.0,0.0,0.0,0.0,0.0,0.0,0.0,0.0,0.0,0.0,0.0,0.0,0.0,0.0,0.0,0.0,0.0,0.0,0.0,0.0,0.0,0.0,0.0,0.0,0.0,0.0,0.0,0.0,0.0,0.0,0.0,0.0,0.0,0.0,0.0,0.0,0.0,0.0,0.0,0.0,0.0,0.0,0.0,0.0,0.0,0.0,0.0,0.0,0.0,0.0,0.0,0.0,0.0,0.0,0.0,0.0,0.0,0.0,0.0,0.0,0.0,0.0,0.0,0.0,0.0,0.0,0.0,0.0,0.0,0.0,0.0,0.0,0.0,0.0,0.0,0.0,0.0,0.0,0.0,0.0,0.0,0.0,0.0,0.0,0.0,0.0,0.0,0.0,0.0,0.0,0.0,0.0,0.0,0.0,0.0,0.0,0.0,0.0,0.0,0.0,0.0,0.0,0.0,0.0,0.0,0.0,0.0,0.0,0.0,0.0,0.0,0.0,0.0,0.0,0.0,0.0,0.0,0.0,0.0,0.0,0.0,0.0,0.0,0.0,0.0,0.0,0.0,0.0,0.0,0.0,0.0,0.0,0.0,0.0,0.0,0.0,0.0,0.0,0.0,0.0,0.0,0.0,0.0,0.0,0.0,0.0,0.0,0.0,0.0,0.0,0.0,0.0,0.0,0.0,0.0,0.0,0.0,0.0,0.0,0.0,0.0,0.0,0.0,0.0,0.0,0.0,0.0,0.0,0.0,0.0,0.0,0.0,0.0,0.0,0.0,0.0,0.0,0.0,0.0,0.0,0.0,0.0,0.0,0.0,0.0,0.0,0.0,0.0,0.0,0.0,0.0,0.0,0.0,0.0,0.0,0.0,0.0,0.0,0.0,0.0,0.0,0.0,0.0,0.0,0.0,0.0,0.0,0.0,0.0,0.0,0.0,0.0,0.0,0.0,0.0,0.0,0.0,0.0,0.0,0.0,0.0,0.0,0.0,0.0,0.0,0.0,0.0,0.0,0.0,0.0,0.0,0.0,0.0,0.0,0.0,0.0,0.0,0.0,0.0,0.0,0.0,0.0,0.0,0.0,0.0,0.0,0.0,0.0,0.0,0.0,0.0,0.0,0.0,0.0,0.0,0.0,0.0,0.0,0.0,0.0,0.0,0.0,0.0,0.0,0.0,0.0,0.0,0.0,0.0,0.0,0.0,0.0,0.0,0.0,0.0,0.0,0.0,0.0,0.0,0.0,0.0,0.0,0.0,0.0,0.0,0.0,0.0,0.0,0.0,0.0,0.0,0.0,0.0,0.0,0.0,0.0,0.0,0.0,0.0,0.0,0.0,0.0,0.0,0.0,0.0,0.0,0.0,0.0,0.0,0.0,0.0,0.0,0.0,0.0,0.0,0.0,0.0,0.0,0.0,0.0,0.0,0.0,0.0,0.0,0.0,0.0,0.0,0.0,0.0,0.0,0.0,0.0,0.0,0.0,0.0,0.0,0.0,0.0,0.0,0.0,0.0,0.0,0.0,0.0,0.0,0.0,0.0,0.0,0.0,0.0,0.0,0.0,0.0,0.0,0.0,0.0,0.0,0.0,0.0,0.0,0.0,0.0,0.0,0.0,0.0,0.0,0.0,0.0,0.0,0.0,0.0,0.0,0.0,0.0,0.0,0.0,0.0,0.0,0.0,0.0,0.0,0.0,0.0,0.0,0.0,0.0,0.0,0.0,0.0,0.0,0.0,0.0,0.0,0.0,0.0,0.0,0.0,0.0,0.0,0.0,0.0,0.0,0.0,0.0,0.0,0.0,0.0,0.0,0.0,0.0,0.0,0.0,0.0,0.0,0.0,0.0,0.0,0.0,0.0,0.0,0.0,0.0,0.0,0.0,0.0,0.0,0.0,0.0,0.0,0.0,0.0,0.0,0.0,0.0,0.0,0.0,0.0,0.0,0.0,0.0,0.0,0.0,0.0,0.0,0.0,0.0,0.0,0.0,0.0,0.0,0.0,0.0,0.0,0.0,0.0,0.0,0.0,0.0,0.0,0.0,0.0,0.0,0.0,0.0,0.0,0.0,0.0,0.0,0.0,0.0,0.0,0.0,0.0,0.0,0.0,0.0,0.0,0.0,0.0,0.0,0.0,0.0,0.0,0.0,0.0,0.0,0.0,0.0,0.0,0.0,0.0,0.0,0.0,0.0,0.0,0.0,0.0,0.0,0.0,0.0,0.0,0.0,0.0,0.0,0.0,0.0,0.0,0.0,0.0,0.0,0.0,0.0,0.0,0.0,0.0,0.0,0.0,0.0,0.0,0.0,0.0,0.0,0.0,0.0,0.0,0.0,0.0,0.0,0.0,0.0,0.0,0.0,0.0,0.0,0.0,0.0,0.0,0.0,0.0,0.0,0.0,0.0,0.0,0.0,0.0,0.0,0.0,0.0,0.0,0.0,0.0,0.0,0.0,0.0,0.0,0.0,0.0,0.0,0.0,0.0,0.0,0.0,0.0,0.0,0.0,0.0,0.0,0.0,0.0,0.0,0.0,0.0,0.0,0.0,0.0,0.0,0.0,0.0,0.0,0.0,0.0,0.0,0.0,0.0,0.0,0.0,0.0,0.0,0.0,0.0,0.0,0.0,0.0,0.0,0.0,0.0,0.0,0.0,0.0,0.0,0.0,0.0,0.0,0.0,0.0,0.0,0.0,0.0,0.0,0.0,0.0,0.0,0.0,0.0,0.0,0.0,0.0,0.0,0.0,0.0,0.0,0.0,0.0,0.0,0.0,0.0,0.0,0.0,0.0,0.0,0.0,0.0,0.0,0.0,0.0,0.0,0.0,0.0,0.0,0.0,0.0,0.0,0.0,0.0,0.0,0.0,0.0,0.0,0.0,0.0,0.0,0.0,0.0,0.0,0.0,0.0,0.0,0.0,0.0,0.0,0.0,0.0,0.0,0.0,0.0,0.0,0.0,0.0,0.0,0.0,0.0,0.0,0.0,0.0,0.0,0.0,0.0,0.0,0.0,0.0,0.0,0.0,0.0,0.0,0.0,0.0,0.0,0.0,0.0,0.0,0.0,0.0,0.0,0.0,0.0,0.0,0.0,0.0,0.0,0.0,0.0,0.0,0.0,0.0,0.0,0.0,0.0,0.0,0.0,0.0,0.0,0.0,0.0,0.0,0.0,0.0,0.0,0.0,0.0,0.0,0.0,0.0,0.0,0.0,0.0,0.0,0.0,0.0,0.0,0.0,0.0,0.0,0.0,0.0,0.0,0.0,0.0,0.0,0.0,0.0,0.0,0.0,0.0,0.0,0.0,0.0,0.0,0.0,0.0,0.0,0.0,0.0,0.0,0.0,0.0,0.0,0.0,0.0,0.0,0.0,0.0,0.0,0.0,0.0,0.0,0.0,0.0,0.0,0.0,0.0,0.0,0.0,0.0,0.0,0.0,0.0,0.0,0.0,0.0,0.0,0.0,0.0,0.0,0.0,0.0,0.0,0.0,0.0,0.0,0.0,0.0,0.0,0.0,0.0,0.0,0.0,0.0,0.0,0.0,0.0,0.0,0.0,0.0,0.0,0.0,0.0,0.0,0.0,0.0,0.0,0.0,0.0,0.0,0.0,0.0,0.0,0.0,0.0,0.0,0.0,0.0,0.0,0.0,0.0,0.0,0.0,0.0,0.0,0.0,0.0,0.0,0.0,0.0,0.0,0.0,0.0,0.0,0.0,0.0,0.0,0.0,0.0,0.0,0.0,0.0,0.0,0.0,0.0,0.0,0.0,0.0,0.0,0.0,0.0,0.0,0.0,0.0,0.0,0.0,0.0,0.0,0.0,0.0,0.0,0.0,0.0,0.0,0.0,0.0,0.0,0.0,0.0,0.0,0.0,0.0,0.0,0.0,0.0,0.0,0.0,0.0,0.0,0.0,0.0,0.0,0.0,0.0,0.0,0.0,0.0,0.0,0.0,0.0,0.0,0.0,0.0,0.0,0.0,0.0,0.0,0.0,0.0,0.0,0.0,0.0,0.0,0.0,0.0,0.0,0.0,0.0,0.0,0.0,0.0,0.0,0.0,0.0,0.0,0.0,0.0,0.0,0.0,0.0,0.0,0.0,0.0,0.0,0.0,0.0,0.0,0.0,0.0,0.0,0.0,0.0,0.0,0.0,0.0,0.0,0.0,0.0,0.0,0.0,0.0,0.0,0.0,0.0,0.0,0.0,0.0,0.0,0.0,0.0,0.0,0.0,0.0,0.0,0.0,0.0,0.0,0.0,0.0,0.0,0.0,0.0,0.0,0.0,0.0,0.0,0.0,0.0,0.0,0.0,0.0,0.0,0.0,0.0,0.0,0.0,0.0,0.0,0.0,0.0,0.0,0.0,0.0,0.0,0.0,0.0,0.0,0.0,0.0,0.0,0.0,0.0,0.0,0.0,0.0,0.0,0.0,0.0,0.0,0.0,0.0,0.0,0.0,0.0,0.0,0.0,0.0,0.0,0.0,0.0,0.0,0.0,0.0,0.0,0.0,0.0,0.0,0.0,0.0,0.0,0.0,0.0,0.0,0.0,0.0,0.0,0.0,0.0,0.0,0.0,0.0,0.0,0.0,0.0,0.0,0.0,0.0,0.0,0.0,0.0,0.0,0.0,0.0,0.0,0.0,0.0,0.0,0.0,0.0,0.0,0.0,0.0,0.0,0.0,0.0,0.0,0.0,0.0,0.0,0.0,0.0,0.0,0.0,0.0,0.0,0.0,0.0,0.0,0.0,0.0,0.0,0.0,0.0,0.0,0.0,0.0,0.0,0.0,0.0,0.0,0.0,0.0,0.0,0.0,0.0,0.0,0.0,0.0,0.0,0.0,0.0,0.0,0.0,0.0,0.0,0.0,0.0,0.0,0.0,0.0,0.0,0.0,0.0,0.0,0.0,0.0,0.0,0.0,0.0,0.0,0.0,0.0,0.0,0.0,0.0,0.0,0.0,0.0,0.0,0.0,0.0,0.0,0.0,0.0,0.0,0.0,0.0,0.0,0.0,0.0,0.0,0.0,0.0,0.0,0.0,0.0,0.0,0.0,0.0,0.0,0.0,0.0,0.0,0.0,0.0,0.0,0.0,0.0,0.0,0.0,0.0,0.0,0.0,0.0,0.0,0.0,0.0,0.0,0.0,0.0,0.0,0.0,0.0,0.0,0.0,0.0,0.0,0.0,0.0,0.0,0.0,0.0,0.0,0.0,0.0,0.0,0.0,0.0,0.0,0.0,0.0,0.0,0.0,0.0,0.0,0.0,0.0,0.0,0.0,0.0,0.0,0.0,0.0,0.0,0.0,0.0,0.0,0.0,0.0,0.0,0.0,0.0,0.0,0.0,0.0,0.0,0.0,0.0,0.0,0.0,0.0,0.0,0.0,0.0,0.0,0.0,0.0,0.0,0.0,0.0,0.0,0.0,0.0,0.0,0.0,0.0,0.0,0.0,0.0,0.0,0.0,0.0,0.0,0.0,0.0,0.0,0.0,0.0,0.0,0.0,0.0,0.0,0.0,0.0,0.0,0.0,0.0,0.0,0.0,0.0,0.0,0.0,0.0,0.0,0.0,0.0,0.0,0.0,0.0,0.0,0.0,0.0,0.0,0.0,0.0,0.0,0.0,0.0,0.0,0.0,0.0,0.0,0.0,0.0,0.0,0.0,0.0,0.0,0.0,0.0,0.0,0.0,0.0,0.0,0.0,0.0,0.0,0.0,0.0,0.0,0.0,0.0,0.0,0.0,0.0,0.0,0.0,0.0,0.0,0.0,0.0,0.0,0.0,0.0,0.0,0.0,0.0,0.0,0.0,0.0,0.0,0.0,0.0,0.0,0.0,0.0,0.0,0.0,0.0,0.0,0.0,0.0,0.0,0.0,0.0,0.0,0.0,0.0,0.0,0.0,0.0,0.0,0.0,0.0,0.0,0.0,0.0,0.0,0.0,0.0,0.0,0.0,0.0,0.0,0.0,0.0,0.0,0.0,0.0,0.0,0.0,0.0,0.0,0.0,0.0,0.0,0.0,0.0,0.0,0.0,0.0,0.0,0.0,0.0,0.0,0.0,0.0,0.0,0.0,0.0,0.0,0.0,0.0,0.0,0.0,0.0,0.0,0.0,0.0,0.0,0.0,0.0,0.0,0.0,0.0,0.0,0.0,0.0,0.0,0.0,0.0,0.0,0.0,0.0,0.0,0.0,0.0,0.0,0.0,0.0,0.0,0.0,0.0,0.0,0.0,0.0,0.0,0.0,0.0,0.0,0.0,0.0,0.0,0.0,0.0,0.0,0.0,0.0,0.0,0.0,0.0,0.0,0.0,0.0,0.0,0.0,0.0,0.0,0.0,0.0,0.0,0.0,0.0,0.0,0.0,0.0,0.0,0.0,0.0,0.0,0.0,0.0,0.0,0.0,0.0,0.0,0.0,0.0,0.0,0.0,0.0,0.0,0.0,0.0,0.0,0.0,0.0,0.0,0.0,0.0,0.0,0.0,0.0,0.0,0.0,0.0,0.0,0.0,0.0,0.0,0.0,0.0,0.0,0.0,0.0,0.0,0.0,0.0,0.0,0.0,0.0,0.0,0.0,0.0,0.0,0.0,0.0,0.0,0.0,0.0,0.0,0.0,0.0,0.0,0.0,0.0,0.0,0.0,0.0,0.0,0.0,0.0,0.0,0.0,0.0,0.0,0.0,0.0,0.0,0.0,0.0,0.0,0.0,0.0,0.0,0.0,0.0,0.0,0.0,0.0,0.0,0.0,0.0,0.0,0.0,0.0,0.0,0.0,0.0,0.0,0.0,0.0,0.0,0.0,0.0,0.0,0.0,0.0,0.0,0.0,0.0,0.0,0.0,0.0,0.0,0.0,0.0,0.0,0.0,0.0,0.0,0.0,0.0,0.0,0.0,0.0,0.0,0.0,0.0,0.0,0.0,0.0,0.0,0.0,0.0,0.0,0.0,0.0,0.0,0.0,0.0,0.0,0.0,0.0,0.0,0.0,0.0,0.0,0.0,0.0,0.0,0.0,0.0,0.0,0.0,0.0,0.0,0.0,0.0,0.0,0.0,0.0,0.0,0.0,0.0,0.0,0.0,0.0,0.0,0.0,0.0,0.0,0.0,0.0,0.0,0.0,0.0,0.0,0.0,0.0,0.0,0.0,0.0,0.0,0.0,0.0,0.0,0.0,0.0,0.0,0.0,0.0,0.0,0.0,0.0,0.0,0.0,0.0,0.0,0.0,0.0,0.0,0.0,0.0,0.0,0.0,0.0,0.0,0.0,0.0,0.0,0.0,0.0,0.0,0.0,0.0,0.0,0.0,0.0,0.0,0.0,0.0,0.0,0.0,0.0,0.0,0.0,0.0,0.0,0.0,0.0,0.0,0.0,0.0,0.0,0.0,0.0,0.0,0.0,0.0,0.0,0.0,0.0,0.0,0.0,0.0,0.0,0.0,0.0,0.0,0.0,0.0,0.0,0.0,0.0,0.0,0.0,0.0,0.0,0.0,0.0,0.0,0.0,0.0,0.0,0.0,0.0,0.0,0.0,0.0,0.0,0.0,0.0,0.0,0.0,0.0,0.0,0.0,0.0,0.0,0.0,0.0,0.0,0.0,0.0,0.0,0.0,0.0,0.0,0.0,0.0,0.0,0.0,0.0,0.0,0.0,0.0,0.0,0.0,0.0,0.0,0.0,0.0,0.0,0.0,0.0,0.0,0.0,0.0,0.0,0.0,0.0,0.0,0.0,0.0,0.0,0.0,0.0,0.0,0.0,0.0,0.0,0.0,0.0,0.0,0.0,0.0,0.0,0.0,0.0,0.0,0.0,0.0,0.0,0.0,0.0,0.0,0.0,0.0,0.0,0.0,0.0,0.0,0.0,0.0,0.0,0.0,0.0,0.0,0.0,0.0,0.0,0.0,0.0,0.0,0.0,0.0,0.0,0.0,0.0,0.0,0.0,0.0,0.0,0.0,0.0,0.0,0.0,0.0,0.0,0.0,0.0,0.0,0.0,0.0,0.0,0.0,0.0,0.0,0.0,0.0,0.0,0.0,0.0,0.0,0.0,0.0,0.0,0.0,0.0,0.0,0.0,0.0,0.0,0.0,0.0,0.0,0.0,0.0,0.0,0.0,0.0,0.0,0.0,0.0,0.0,0.0,0.0,0.0,0.0,0.0,0.0,0.0,0.0,0.0,0.0,0.0,0.0,0.0,0.0,0.0,0.0,0.0,0.0,0.0,0.0,0.0,0.0,0.0,0.0,0.0,0.0,0.0,0.0,0.0,0.0,0.0,0.0,0.0,0.0,0.0,0.0,0.0,0.0,0.0,0.0,0.0,0.0,0.0,0.0,0.0,0.0,0.0,0.0,0.0,0.0,0.0,0.0,0.0,0.0,0.0,0.0,0.0,0.0,0.0,0.0,0.0,0.0,0.0,0.0,0.0,0.0,0.0,0.0,0.0,0.0,0.0,0.0,0.0,0.0,0.0,0.0,0.0,0.0,0.0,0.0,0.0,0.0,0.0,0.0,0.0,0.0,0.0,0.0,0.0,0.0,0.0,0.0,0.0,0.0,0.0,0.0,0.0,0.0,0.0,0.0,0.0,0.0,0.0,0.0,0.0,0.0,0.0,0.0,0.0,0.0,0.0,0.0,0.0,0.0,0.0,0.0,0.0,0.0,0.0,0.0,0.0,0.0,0.0,0.0,0.0,0.0,0.0,0.0,0.0,0.0,0.0,0.0,0.0,0.0,0.0,0.0,0.0,0.0,0.0,0.0,0.0,0.0,0.0,0.0,0.0,0.0,0.0,0.0,0.0,0.0,0.0,0.0,0.0,0.0,0.0,0.0,0.0,0.0,0.0,0.0,0.0,0.0,0.0,0.0,0.0,0.0,0.0,0.0,0.0,0.0,0.0,0.0,0.0,0.0,0.0,0.0,0.0,0.0,0.0,0.0,0.0,0.0,0.0,0.0,0.0,0.0,0.0,0.0,0.0,0.0,0.0,0.0,0.0,0.0,0.0,0.0,0.0,0.0,0.0,0.0,0.0,0.0,0.0,0.0,0.0,0.0,0.0,0.0,0.0,0.0,0.0,0.0,0.0,0.0,0.0,0.0,0.0,0.0,0.0,0.0,0.0,0.0,0.0,0.0,0.0,0.0,0.0,0.0,0.0,0.0,0.0,0.0,0.0,0.0,0.0,0.0,0.0,0.0,0.0,0.0,0.0,0.0,0.0,0.0,0.0,0.0,0.0,0.0,0.0,0.0,0.0,0.0,0.0,0.0,0.0,0.0,0.0,0.0,0.0,0.0,0.0,0.0,0.0,0.0,0.0,0.0,0.0,0.0,0.0,0.0,0.0,0.0,0.0,0.0,0.0,0.0,0.0,0.0,0.0,0.0,0.0,0.0,0.0,0.0,0.0,0.0,0.0,0.0,0.0,0.0,0.0,0.0,0.0,0.0,0.0,0.0,0.0,0.0,0.0,0.0,0.0,0.0,0.0,0.0,0.0,0.0,0.0,0.0,0.0,0.0,0.0,0.0,0.0,0.0,0.0,0.0,0.0,0.0,0.0,0.0,0.0,0.0,0.0,0.0,0.0,0.0,0.0,0.0,0.0,0.0,0.0,0.0,0.0,0.0,0.0,0.0,0.0,0.0,0.0,0.0,0.0,0.0,0.0,0.0,0.0,0.0,0.0,0.0,0.0,0.0,0.0,0.0,0.0,0.0,0.0,0.0,0.0,0.0,0.0,0.0,0.0,0.0,0.0,0.0,0.0,0.0,0.0,0.0,0.0,0.0,0.0,0.0,0.0,0.0,0.0,0.0,0.0,0.0,0.0,0.0,0.0,0.0,0.0,0.0,0.0,0.0,0.0,0.0,0.0,0.0,0.0,0.0,0.0,0.0,0.0,0.0,0.0,0.0,0.0,0.0,0.0,0.0,0.0,0.0,0.0,0.0,0.0,0.0,0.0,0.0,0.0,0.0,0.0,0.0,0.0,0.0,0.0,0.0,0.0,0.0,0.0,0.0,0.0,0.0,0.0,0.0,0.0,0.0,0.0,0.0,0.0,0.0,0.0,0.0,0.0,0.0,0.0,0.0,0.0,0.0,0.0,0.0,0.0,0.0,0.0,0.0,0.0,0.0,0.0,0.0,0.0,0.0,0.0,0.0,0.0,0.0,0.0,0.0,0.0,0.0,0.0,0.0,0.0,0.0,0.0,0.0,0.0,0.0,0.0,0.0,0.0,0.0,0.0,0.0,0.0,0.0,0.0,0.0,0.0,0.0,0.0,0.0,0.0,0.0,0.0,0.0,0.0,0.0,0.0,0.0,0.0,0.0,0.0,0.0,0.0,0.0,0.0,0.0,0.0,0.0,0.0,0.0,0.0,0.0,0.0,0.0,0.0,0.0,0.0,0.0,0.0,0.0,0.0,0.0,0.0,0.0,0.0,0.0,0.0,0.0,0.0,0.0,0.0,0.0,0.0,0.0,0.0,0.0,0.0,0.0,0.0,0.0,0.0,0.0,0.0,0.0,0.0,0.0,0.0,0.0,0.0,0.0,0.0,0.0,0.0,0.0,0.0,0.0,0.0,0.0,0.0,0.0,0.0,0.0,0.0,0.0,0.0,0.0,0.0,0.0,0.0,0.0,0.0,0.0,0.0,0.0,0.0,0.0,0.0,0.0,0.0,0.0,0.0,0.0,0.0,0.0,0.0,0.0,0.0,0.0,0.0,0.0,0.0,0.0,0.0,0.0,0.0,0.0,0.0,0.0,0.0,0.0,0.0,0.0,0.0,0.0,0.0,0.0,0.0,0.0,0.0,0.0,0.0,0.0,0.0,0.0,0.0,0.0,0.0,0.0,0.0,0.0,0.0,0.0,0.0,0.0,0.0,0.0,0.0,0.0,0.0,0.0,0.0,0.0,0.0,0.0,0.0,0.0,0.0,0.0,0.0,0.0,0.0,0.0,0.0,0.0,0.0,0.0,0.0,0.0,0.0,0.0,0.0,0.0,0.0,0.0,0.0,0.0,0.0,0.0,0.0,0.0,0.0,0.0,0.0,0.0,0.0,0.0,0.0,0.0,0.0,0.0,0.0,0.0,0.0,0.0,0.0,0.0,0.0,0.0,0.0,0.0,0.0,0.0,0.0,0.0,0.0,0.0,0.0,0.0,0.0,0.0,0.0,0.0,0.0,0.0,0.0,0.0,0.0,0.0,0.0,0.0,0.0,0.0,0.0,0.0,0.0,0.0,0.0,0.0,0.0,0.0,0.0,0.0,0.0,0.0,0.0,0.0,0.0,0.0,0.0,0.0,0.0,0.0,0.0,0.0,0.0,0.0,0.0,0.0,0.0,0.0,0.0,0.0,0.0,0.0,0.0,0.0,0.0,0.0,0.0,0.0,0.0,0.0,0.0,0.0,0.0,0.0,0.0,0.0,0.0,0.0,0.0,0.0,0.0,0.0,0.0,0.0,0.0,0.0,0.0,0.0,0.0,0.0,0.0,0.0,0.0,0.0,0.0,0.0,0.0,0.0,0.0,0.0,0.0,0.0,0.0,0.0,0.0,0.0,0.0,0.0,0.0,0.0,0.0,0.0,0.0,0.0,0.0,0.0,0.0,0.0,0.0,0.0,0.0,0.0,0.0,0.0,0.0,0.0,0.0,0.0,0.0,0.0,0.0,0.0,0.0,0.0,0.0,0.0,0.0,0.0,0.0,0.0,0.0,0.0,0.0,0.0,0.0,0.0,0.0,0.0,0.0,0.0,0.0,0.0,0.0,0.0,0.0,0.0,0.0,0.0,0.0,0.0,0.0,0.0,0.0,0.0,0.0,0.0,0.0,0.0,0.0,0.0,0.0,0.0,0.0,0.0,0.0,0.0,0.0,0.0,0.0,0.0,0.0,0.0,0.0,0.0,0.0,0.0,0.0,0.0,0.0,0.0,0.0,0.0,0.0,0.0,0.0,0.0,0.0,0.0,0.0,0.0,0.0,0.0,0.0,0.0,0.0,0.0,0.0,0.0,0.0,0.0,0.0,0.0,0.0,0.0,0.0,0.0,0.0,0.0,0.0,0.0,0.0,0.0,0.0,0.0,0.0,0.0,0.0,0.0,0.0,0.0,0.0,0.0,0.0,0.0,0.0,0.0,0.0,0.0,0.0,0.0,0.0,0.0,0.0,0.0,0.0,0.0,0.0,0.0,0.0,0.0,0.0,0.0,0.0,0.0,0.0,0.0,0.0,0.0,0.0,0.0,0.0,0.0,0.0,0.0,0.0,0.0,0.0,0.0,0.0,0.0,0.0,0.0,0.0,0.0,0.0,0.0,0.0,0.0,0.0,0.0,0.0,0.0,0.0,0.0,0.0,0.0,0.0,0.0,0.0,0.0,0.0,0.0,0.0,0.0,0.0,0.0,0.0,0.0,0.0,0.0,0.0,0.0,0.0,0.0,0.0,0.0,0.0,0.0,0.0,0.0,0.0,0.0,0.0,0.0,0.0,0.0,0.0,0.0,0.0,0.0,0.0,0.0,0.0,0.0,0.0,0.0,0.0,0.0,0.0,0.0,0.0,0.0,0.0,0.0,0.0,0.0,0.0,0.0,0.0,0.0,0.0,0.0,0.0,0.0,0.0,0.0,0.0,0.0,0.0,0.0,0.0,0.0,0.0,0.0,0.0,0.0,0.0,0.0,0.0,0.0,0.0,0.0,0.0,0.0,0.0,0.0,0.0,0.0,0.0,0.0,0.0,0.0,0.0,0.0,0.0,0.0,0.0,0.0,0.0,0.0,0.0,0.0,0.0,0.0,0.0,0.0,0.0,0.0,0.0,0.0,0.0,0.0,0.0,0.0,0.0,0.0,0.0,0.0,0.0,0.0,0.0,0.0,0.0,0.0,0.0,0.0,0.0,0.0,0.0,0.0,0.0,0.0,0.0,0.0,0.0,0.0,0.0,0.0,0.0,0.0,0.0,0.0,0.0,0.0,0.0,0.0,0.0,0.0,0.0938,0.1984,0.2956,0.3077,0.2628,0.1627,0.0591,0.0407,0.132,0.1355,0.1343,0.1343,0.1343,0.0896,0.0,0.0,0.0,0.0,0.0,0.0,0.0,0.0,0.0,0.0,0.0,0.0,0.0,0.0,0.0,0.0,0.0,0.0,0.0,0.0,0.0,0.0,0.0,0.0,0.0,0.0,0.0,0.0,0.0,0.0,0.0,0.0,0.0,0.0,0.0,0.0,0.0,0.0,0.0,0.0,0.0,0.0,0.0,0.0,0.0,0.0,0.0,0.0,0.0,0.0,0.0,0.0,0.0,0.0,0.0,0.0,0.0,0.0,0.0,0.0,0.0,0.0,0.0,0.0,0.0,0.0,0.0,0.0,0.0,0.0,0.0,0.0,0.0,0.0,0.0,0.0,0.0,0.0,0.0,0.0,0.0,0.0,0.0,0.0,0.0,0.0,0.0471,0.0874,0.0874,0.1344,0.168,0.168,0.168,0.1738,0.1714,0.1624,0.1599,0.1568,0.2601,0.3689,0.4794,0.4916,0.4398,0.3249,0.2133,0.1518,0.1492,0.1524,0.151,0.151,0.151,0.1008,0.0,0.0,0.0,0.0,0.0,0.0,0.0,0.0,0.0,0.0,0.0,0.0,0.0,0.0,0.0,0.0,0.0,0.0,0.0,0.0,0.0,0.0,0.0,0.0,0.0,0.0,0.0,0.0,0.0,0.0,0.0,0.0,0.0,0.0,0.0,0.0,0.0,0.0,0.0,0.0,0.0,0.0,0.0,0.0,0.0,0.0,0.0,0.0,0.0,0.0,0.0,0.0,0.0,0.0,0.0,0.0,0.0,0.0,0.0,0.0,0.0,0.0,0.0,0.0,0.0,0.0,0.0,0.0,0.0,0.0,0.0,0.0,0.0,0.0,0.0,0.0,0.0,0.0,0.0,0.0,0.0,0.0,0.0,0.0067,0.0067,0.0067,0.1478,0.2752,0.2752,0.4225,0.5429,0.5429,0.5429,0.5401,0.5391,0.5246,0.5076,0.4933,0.4916,0.4916,0.4916,0.4916,0.4882,0.4747,0.4732,0.332,0.0173,0.0057,0.0056,0.0,0.0056,0.0056,0.0,0.0,0.0,0.0,0.0,0.0,0.025,0.0,0.0,0.0,0.0,0.0,0.0,0.0,0.0,0.0,0.0,0.0,0.0,0.0,0.0,0.0,0.0,0.0,0.0,0.0,0.0,0.0,0.0,0.0,0.0,0.0,0.0,0.0,0.0,0.0,0.0,0.0,0.0,0.0,0.0,0.0,0.0,0.0,0.0,0.0,0.0,0.0,0.0,0.0,0.0,0.0,0.0,0.0,0.0,0.0,0.0,0.0,0.0,0.0,0.0,0.0,0.0,0.0,0.0,0.0,0.0,0.0,0.0,0.0,0.0,0.0,0.0,0.0,0.0,0.0,0.0,0.0941,0.1545,0.0336,0.0941,0.1881,0.1881,0.2887,0.3823,0.3823,0.4225,0.4626,0.4626,0.5028,0.5429,0.5429,0.5429,0.5314,0.5185,0.5059,0.5397,0.6512,0.6686,0.7118,0.8227,0.8349,0.7769,0.6445,0.5405,0.4364,0.3207,0.3157,0.2628,0.1566,0.2628,0.2628,0.1566,0.1566,0.1566,0.151,0.0504,0.0,0.0199,0.0,0.0,0.0,0.0,0.0,0.0,0.0,0.0,0.0,0.0,0.0,0.0,0.0,0.0,0.0,0.0,0.0,0.0,0.0,0.0,0.0,0.0,0.0,0.0,0.0,0.0,0.0,0.0,0.0,0.0,0.0,0.0,0.0,0.0,0.0,0.0,0.0,0.0,0.0,0.0,0.0,0.0,0.0,0.0,0.0,0.0,0.0,0.0,0.0,0.0,0.0,0.0,0.0,0.0,0.0,0.0,0.0,0.0,0.0,0.0,0.0,0.0,0.0,0.0,0.0,0.0,0.0,0.0536,0.1074,0.1068,0.2406,0.3287,0.1478,0.2484,0.3756,0.3756,0.4626,0.5429,0.5429,0.5964,0.6431,0.6431,0.7031,0.7488,0.7445,0.7403,0.7345,0.726,0.7065,0.7311,0.8295,0.8372,0.8775,0.97,0.9822,0.9267,0.8102,0.7206,0.6032,0.4538,0.337,0.2573,0.218,0.3129,0.3408,0.3129,0.2515,0.218,0.218,0.0672,0.0,0.0049,0.0,0.0,0.0,0.0,0.0,0.0,0.0,0.0,0.0,0.0,0.0,0.0,0.0,0.0,0.0,0.0,0.0,0.0,0.0,0.0,0.0,0.0,0.0,0.0,0.0,0.0,0.0,0.0,0.0,0.0,0.0,0.0,0.0,0.0,0.0,0.0,0.0,0.0,0.0,0.0134,0.0201,0.0269,0.0067,0.0,0.0,0.0,0.0,0.0,0.0,0.0,0.0,0.0,0.0,0.0,0.0,0.0,0.0,0.0,0.0,0.0,0.0,0.0,0.0,0.0,0.0,0.0,0.0198,0.1392,0.2735,0.2899,0.4237,0.5212,0.3548,0.4423,0.5629,0.5622,0.5759,0.5897,0.5889,0.716,0.8225,0.8204,0.9612,1.0649,1.0514,1.0371,1.0324,1.046,1.0215,0.9963,0.9963,0.9903,0.9822,0.9822,0.9822,0.97,0.9422,0.9272,0.7864,0.4823,0.2071,0.112,0.218,0.2459,0.3296,0.4693,0.3185,0.2403,0.2347,0.0729,0.0,0.0304,0.0,0.0,0.0,0.0,0.0,0.0,0.0,0.0,0.0,0.0,0.0,0.0,0.0,0.0,0.0,0.0,0.0,0.0,0.0,0.0,0.0,0.0,0.0,0.0,0.0,0.0,0.0,0.0,0.0,0.0,0.0,0.0,0.0,0.0,0.1461,0.0,0.0,0.0,0.0,0.1314,0.2036,0.2083,0.0672,0.0,0.0,0.0,0.0,0.0,0.0,0.0,0.0,0.0,0.0,0.0,0.0,0.0,0.0,0.0,0.0,0.0,0.0,0.0,0.0,0.0,0.0,0.026,0.1618,0.2266,0.286,0.4256,0.5866,0.708,0.6771,0.711,0.7408,0.7332,0.8508,0.9546,0.9437,0.9767,1.0043,0.9825,1.0201,1.0527,1.0493,1.0371,1.029,1.0324,1.0059,0.9869,0.9869,0.9842,0.9822,0.9822,0.9822,0.9747,0.9571,0.8324,0.7259,0.6436,0.5678,0.43,0.2235,0.4522,0.5917,0.62,0.4749,0.4024,0.3968,0.1249,0.0,0.0203,0.0,0.0,0.0,0.0,0.0,0.0,0.0,0.0219,0.0,0.0,0.0,0.0,0.0,0.0,0.0,0.0,0.0,0.0,0.0,0.0,0.0,0.0,0.0,0.0,0.0,0.0,0.0,0.0,0.0,0.0,0.0,0.0,0.0,0.325,0.3325,0.2368,0.2334,0.2334,0.2368,0.3237,0.3689,0.3682,0.2055,0.1254,0.1172,0.0326,0.0,0.0,0.0,0.0,0.0,0.0,0.0,0.0065,0.0905,0.1165,0.13,0.2065,0.2317,0.2378,0.2361,0.2367,0.2378,0.2361,0.2367,0.2505,0.3377,0.4279,0.5134,0.6038,0.7576,0.8863,0.8863,0.8963,0.9104,0.9039,0.9799,1.0487,1.0405,1.0507,1.0541,1.0317,1.0283,1.0304,1.0378,1.0202,1.0114,1.0263,1.0012,0.9849,0.9862,0.9863,0.9822,0.9822,0.9822,0.9761,0.9618,0.8694,0.7795,0.692,0.7432,0.67,0.4411,0.5917,0.67,0.67,0.5194,0.4095,0.3339,0.1086,0.0,0.0,0.0,0.0,0.0,0.0,0.0,0.0,0.021,0.0,0.0,0.0,0.0,0.0,0.0,0.0,0.0,0.0,0.0,0.0,0.0,0.0,0.0,0.0,0.0,0.0,0.0,0.0,0.0,0.0,0.0,0.0,0.0,0.5496,0.4922,0.5177,0.5184,0.4878,0.4919,0.4919,0.4878,0.5198,0.5503,0.5672,0.4206,0.3174,0.2435,0.1027,0.0257,0.0,0.0,0.0,0.0,0.0,0.0,0.0193,0.1854,0.2494,0.2753,0.4336,0.4906,0.4896,0.49,0.492,0.4893,0.4896,0.492,0.4956,0.5268,0.6432,0.7623,0.7926,0.9111,1.0175,1.0011,1.0127,1.0209,1.0236,1.0263,1.0276,1.0243,1.031,1.0344,1.0256,1.0134,1.0031,1.0222,1.0025,0.9951,1.0209,0.9998,0.9869,0.9936,0.9897,0.9822,0.9822,0.9795,0.9734,0.9618,0.9442,0.8762,0.738,0.8339,0.8325,0.7093,0.6811,0.671,0.6674,0.4935,0.3624,0.2589,0.1099,0.0583,0.0,0.0,0.0,0.0,0.0,0.0,0.0,0.0,0.0,0.0,0.0,0.0,0.0,0.0,0.0,0.0,0.0,0.0,0.0,0.0,0.0,0.0,0.0,0.0,0.0,0.0,0.0,0.0,0.0,0.0,0.0,0.7676,0.7932,0.4972,0.6419,0.6458,0.4942,0.4883,0.4883,0.4942,0.6481,0.7912,0.9081,0.765,0.5301,0.2464,0.2274,0.1328,0.0,0.0,0.0,0.0,0.0,0.0,0.019,0.1869,0.2498,0.2711,0.4348,0.4885,0.4882,0.4872,0.4875,0.4882,0.4872,0.4875,0.519,0.6648,0.7271,0.7798,0.9268,0.9779,0.991,0.9963,0.9903,0.9917,0.999,1.0188,1.0243,1.0044,0.9985,0.9944,0.9997,1.0004,0.9997,1.0017,0.9984,0.997,1.0011,0.993,0.9829,0.9849,0.9836,0.9822,0.9822,0.9707,0.9632,0.9612,0.934,0.9114,0.8924,0.8903,0.883,0.8602,0.7371,0.669,0.6724,0.3879,0.3167,0.4325,0.285,0.293,0.0,0.0,0.0,0.0,0.0,0.0,0.0,0.0,0.0,0.0,0.0,0.0,0.0,0.0,0.0,0.0,0.0,0.0,0.0,0.0,0.0,0.0,0.0,0.0,0.0,0.0,0.0,0.0,0.0,0.0,0.7591,0.8865,0.8948,0.7491,0.8216,0.828,0.7541,0.7509,0.7601,0.7635,0.8448,0.9199,0.9761,0.9148,0.7501,0.5146,0.3293,0.2053,0.1307,0.0374,0.0,0.0,0.0,0.0561,0.1617,0.3268,0.4444,0.5451,0.7077,0.7673,0.7673,0.7673,0.7673,0.7673,0.7673,0.7673,0.7795,0.8526,0.8775,0.8909,0.9719,0.9869,0.9836,0.9842,0.9869,0.9836,0.9849,0.9971,1.0025,0.9984,0.9862,0.9869,0.9963,0.9916,0.9862,0.9862,0.9862,0.9862,0.9862,0.9863,0.9822,0.9822,0.9747,0.97,0.97,0.9564,0.9483,0.9483,0.9354,0.9303,0.9214,0.9089,0.9022,0.8885,0.8394,0.7663,0.6801,0.5541,0.4911,0.4815,0.413,0.4225,0.0,0.0,0.0,0.0,0.0,0.0122,0.0,0.0,0.0,0.0,0.0,0.0,0.0,0.0,0.0,0.0,0.0,0.0,0.0,0.0,0.0,0.0,0.0,0.0,0.0,0.0,0.0,0.0,0.0,0.0,0.9551,0.9442,0.9381,0.9381,0.9381,0.9435,0.9551,0.9551,0.9605,0.9707,0.9707,0.9707,0.9707,0.9707,0.9039,0.7763,0.4879,0.3432,0.2952,0.1288,0.086,0.1233,0.0802,0.1663,0.3323,0.4916,0.632,0.7606,0.9268,0.9822,0.9822,0.9822,0.9822,0.9822,0.9822,0.9822,0.9822,0.9822,0.9822,0.9822,0.9822,0.9822,0.9822,0.9822,0.9822,0.9822,0.9822,0.9822,0.9856,0.9909,0.9897,0.9856,0.9909,0.9897,0.9822,0.9822,0.9822,0.9822,0.9822,0.9822,0.9822,0.9822,0.9693,0.9612,0.9612,0.9435,0.932,0.932,0.932,0.9259,0.9103,0.9187,0.9083,0.8885,0.9117,0.8457,0.6904,0.6667,0.6182,0.5553,0.5553,0.5758,0.0,0.0,0.0,0.0,0.0,0.0,0.0,0.0,0.0,0.0,0.0,0.0,0.0,0.0,0.0,0.0,0.0,0.0,0.0,0.0,0.0,0.0,0.0,0.0,0.0,0.0,0.0,0.0,0.0,0.0,0.9395,0.9388,0.9381,0.9381,0.9381,0.9388,0.9395,0.9395,0.9395,0.9401,0.9401,0.9401,0.9401,0.9401,0.9401,0.9234,0.7579,0.606,0.4606,0.2847,0.3095,0.4487,0.2954,0.3384,0.4977,0.6625,0.7301,0.7606,0.9268,0.9822,0.9822,0.9822,0.9822,0.9822,0.9822,0.9822,0.9822,0.9822,0.9822,0.9822,0.9822,0.9822,0.9822,0.9822,0.9822,0.9822,0.9822,0.9822,0.9822,0.9829,0.9829,0.9822,0.9829,0.9829,0.9822,0.9822,0.9822,0.9822,0.9822,0.9822,0.9822,0.9822,0.9693,0.9612,0.9612,0.9334,0.9221,0.9221,0.9221,0.9103,0.8898,0.9083,0.9083,0.8885,0.9225,0.8543,0.6905,0.5649,0.5798,0.7291,0.7291,0.8032,0.0,0.0,0.0,0.0,0.0,0.0,0.0,0.0,0.0,0.0,0.0,0.0,0.0,0.0,0.0,0.0,0.0,0.0,0.0,0.0,0.0,0.0,0.0,0.0,0.0,0.0,0.0,0.0,0.0,0.0,0.9089,0.8913,0.8845,0.8947,0.8954,0.9042,0.9289,0.9334,0.9381,0.9381,0.9381,0.9381,0.9381,0.9381,0.9381,0.9381,0.8749,0.7577,0.6077,0.4384,0.4035,0.4591,0.3996,0.477,0.6263,0.693,0.7862,0.8906,0.9546,0.9822,0.9822,0.9822,0.9822,0.9802,0.9713,0.9686,0.9686,0.9686,0.9686,0.9707,0.9795,0.9822,0.9822,0.9822,0.9822,0.9822,0.9822,0.9822,0.9822,0.9822,0.9822,0.9822,0.9822,0.9822,0.9822,0.9822,0.9822,0.9822,0.9822,0.9741,0.972,0.9808,0.9517,0.9395,0.9591,0.9327,0.9255,0.935,0.9357,0.9232,0.9083,0.9218,0.9232,0.9083,0.9374,0.9137,0.8362,0.8135,0.8323,0.8834,0.8834,0.9114,0.2816,0.0,0.0,0.0,0.0,0.0,0.0,0.0,0.0,0.0,0.0,0.0,0.0,0.0,0.0,0.0,0.0,0.0,0.0,0.0,0.0,0.0,0.0,0.0,0.0,0.0,0.0,0.0,0.0,0.0,0.8777,0.8594,0.8526,0.8628,0.8635,0.873,0.8982,0.9083,0.9157,0.9157,0.9205,0.9232,0.9232,0.9232,0.9232,0.9225,0.9123,0.8559,0.7613,0.5938,0.5594,0.6094,0.5506,0.6327,0.7741,0.7825,0.8573,0.9544,0.9639,0.9673,0.9673,0.9673,0.9673,0.9652,0.9564,0.953,0.9544,0.9598,0.9612,0.9646,0.9781,0.9822,0.9808,0.9761,0.9788,0.9822,0.9822,0.9822,0.9822,0.9822,0.9822,0.9822,0.9822,0.9822,0.9822,0.9822,0.9822,0.9802,0.9754,0.9666,0.9625,0.9666,0.9408,0.9313,0.9517,0.9347,0.933,0.9374,0.9429,0.9388,0.9296,0.9374,0.9388,0.9289,0.9483,0.9456,0.9214,0.9557,0.9673,0.953,0.953,0.9503,0.0,0.0,0.0,0.0,0.0,0.0,0.0,0.0,0.0,0.0,0.0,0.0,0.0,0.0,0.0,0.0,0.0,0.0,0.0,0.0,0.0,0.0,0.0,0.0,0.0,0.0,0.0,0.0,0.0,0.8472,0.8472,0.8472,0.8472,0.8472,0.8479,0.8479,0.8479,0.8628,0.8703,0.871,0.8804,0.8878,0.8885,0.8878,0.8878,0.8878,0.8871,0.9089,0.9231,0.7475,0.7784,0.9252,0.7602,0.7956,0.9367,0.9374,0.9374,0.9374,0.9381,0.9381,0.9381,0.9381,0.9381,0.9381,0.9374,0.9374,0.9408,0.9557,0.9598,0.9639,0.9781,0.9815,0.9781,0.9646,0.972,0.9822,0.9822,0.9822,0.9822,0.9822,0.9822,0.9822,0.9822,0.9822,0.9822,0.9822,0.9822,0.9774,0.9632,0.9612,0.9551,0.9401,0.9388,0.9381,0.9388,0.9388,0.9388,0.9395,0.953,0.9544,0.9395,0.953,0.9537,0.9388,0.9537,0.9469,0.9221,0.9469,0.953,0.9374,0.9374,0.9293,0.5527,0.0,0.0,0.0,0.0,0.0,0.0,0.0,0.0,0.0,0.0,0.0,0.0,0.0,0.0,0.0,0.0,0.0,0.0,0.0,0.0,0.0,0.0,0.0,0.0,0.0,0.0,0.0,0.8282,0.8214,0.8323,0.8381,0.8381,0.8381,0.8431,0.8479,0.8479,0.8526,0.8601,0.871,0.875,0.8832,0.8878,0.8825,0.8771,0.8764,0.8655,0.8716,0.8844,0.8461,0.8568,0.9006,0.8551,0.8607,0.9076,0.9178,0.9275,0.9289,0.934,0.9381,0.9381,0.9381,0.9381,0.9361,0.9309,0.9275,0.9282,0.9323,0.9361,0.9503,0.9754,0.9747,0.9686,0.9747,0.9795,0.9822,0.9822,0.9822,0.9822,0.9822,0.9822,0.9822,0.9822,0.9822,0.9822,0.9822,0.9822,0.9808,0.9768,0.9673,0.9591,0.9551,0.9449,0.9429,0.9537,0.9544,0.9591,0.9693,0.9646,0.9591,0.9551,0.9585,0.9591,0.9551,0.9686,0.9673,0.9483,0.9673,0.9578,0.9275,0.9275,0.9137,0.683,0.5877,0.4822,0.4822,0.0,0.0,0.5475,0.5838,0.0,0.0,0.0,0.0,0.0,0.0,0.0,0.0,0.0,0.0,0.0,0.0,0.0,0.0,0.0,0.0,0.0,0.0,0.0,0.0,0.8089,0.8029,0.8167,0.8174,0.8174,0.8174,0.8255,0.8296,0.8296,0.8364,0.8438,0.8526,0.8587,0.8662,0.8743,0.8655,0.8615,0.8608,0.852,0.8533,0.8621,0.871,0.8825,0.8885,0.8885,0.8885,0.8892,0.9035,0.9062,0.9076,0.9164,0.9198,0.9198,0.9198,0.9198,0.9178,0.9089,0.9062,0.9076,0.9193,0.9323,0.9408,0.9517,0.953,0.9517,0.9537,0.9591,0.9639,0.9639,0.9639,0.9673,0.9795,0.9822,0.9822,0.9822,0.9822,0.9822,0.9822,0.9822,0.9774,0.9652,0.9625,0.9557,0.9435,0.9456,0.951,0.9605,0.9666,0.9734,0.9815,0.9741,0.97,0.97,0.97,0.97,0.97,0.9781,0.9781,0.97,0.972,0.953,0.9207,0.9207,0.9076,0.7988,0.7135,0.6232,0.6232,0.5318,0.0,0.5641,0.5952,0.6302,0.0,0.0,0.0,0.0,0.0,0.0,0.0,0.0,0.0,0.0,0.0,0.0,0.0,0.0,0.0,0.0,0.0,0.7948,0.7961,0.7982,0.7988,0.7988,0.7988,0.7988,0.7988,0.7988,0.7988,0.7988,0.8174,0.8255,0.8327,0.8397,0.8465,0.8479,0.8465,0.8459,0.8459,0.8438,0.8445,0.8459,0.8459,0.8628,0.8831,0.8831,0.8844,0.8858,0.8858,0.8858,0.8858,0.8878,0.8871,0.8858,0.8878,0.8885,0.8885,0.8885,0.8885,0.8967,0.9166,0.9296,0.9306,0.9262,0.9323,0.9327,0.9262,0.9344,0.9381,0.9381,0.9381,0.9456,0.972,0.9774,0.9774,0.9774,0.9774,0.9774,0.9774,0.9788,0.97,0.9442,0.9537,0.9523,0.9289,0.9462,0.9625,0.9612,0.9741,0.9822,0.9822,0.9822,0.9822,0.9822,0.9822,0.9822,0.9822,0.9822,0.9822,0.9822,0.9659,0.9442,0.9234,0.9221,0.9076,0.7988,0.7789,0.0,0.0,0.0,0.0,0.7392,0.7466,0.7544,0.0,0.0,0.0,0.0,0.0,0.0,0.0,0.0,0.0,0.0,0.0,0.0,0.0,0.0,0.0,0.0,0.0,0.7733,0.7848,0.7921,0.7988,0.7988,0.7988,0.7988,0.7988,0.7988,0.7988,0.7988,0.8022,0.8147,0.832,0.8347,0.837,0.8479,0.8364,0.8361,0.8303,0.818,0.8194,0.8361,0.8361,0.8418,0.8574,0.8574,0.8648,0.8757,0.8757,0.8757,0.8771,0.8844,0.8804,0.8777,0.8844,0.8885,0.8885,0.8885,0.8885,0.8967,0.9166,0.9089,0.9076,0.9279,0.9323,0.9275,0.9313,0.9361,0.9381,0.9381,0.9381,0.9401,0.9456,0.9469,0.9469,0.9469,0.9469,0.9469,0.9469,0.9571,0.9632,0.9571,0.9693,0.9713,0.9537,0.968,0.9734,0.9618,0.9741,0.9822,0.9822,0.9822,0.9822,0.9822,0.9822,0.9822,0.9822,0.9822,0.9822,0.9822,0.9557,0.9395,0.9334,0.9268,0.9076,0.0,0.0,0.0,0.8133,0.0,0.0,0.0,0.7874,0.7841,0.0,0.0,0.0,0.0,0.0,0.0,0.0,0.0,0.0,0.0,0.0,0.0,0.0,0.0,0.0,0.0,0.0,0.7631,0.7699,0.7841,0.7874,0.7874,0.7948,0.7988,0.7988,0.7988,0.7988,0.7988,0.7988,0.8029,0.8153,0.8153,0.8194,0.8262,0.8187,0.8153,0.8153,0.8022,0.8035,0.8153,0.8153,0.8194,0.8275,0.8425,0.8526,0.8594,0.8594,0.8594,0.8621,0.8771,0.8777,0.8737,0.8838,0.8885,0.8885,0.8885,0.8885,0.8898,0.9028,0.8994,0.8919,0.9123,0.9103,0.9062,0.9144,0.9157,0.9157,0.9157,0.9157,0.9157,0.9157,0.9157,0.9205,0.9354,0.9381,0.9381,0.9381,0.951,0.9585,0.9503,0.9686,0.9768,0.9625,0.9734,0.9795,0.972,0.9781,0.9822,0.9822,0.9822,0.9822,0.9822,0.9822,0.9822,0.9822,0.9822,0.9822,0.9822,0.9673,0.9564,0.949,0.934,0.9184,0.0,0.0,0.0,0.0,0.0,0.8062,0.0,0.0,0.0,0.0,0.0,0.0,0.0,0.0,0.0,0.0,0.0,0.0,0.0,0.0,0.0,0.0,0.0,0.0,0.0,0.0,0.7556,0.7556,0.7692,0.778,0.7807,0.788,0.7961,0.7988,0.7988,0.7988,0.7988,0.7988,0.7988,0.7988,0.7988,0.7988,0.7988,0.7988,0.7988,0.7988,0.7988,0.7988,0.7988,0.7988,0.7988,0.8015,0.8303,0.8418,0.8438,0.8438,0.8438,0.8465,0.8615,0.8648,0.8648,0.8804,0.8817,0.8838,0.8838,0.8858,0.8885,0.8885,0.8885,0.8885,0.8885,0.8885,0.8885,0.8885,0.8885,0.8885,0.8885,0.8885,0.8885,0.8885,0.8885,0.8959,0.9252,0.9293,0.9293,0.9293,0.9449,0.9523,0.9395,0.9639,0.9774,0.9659,0.9754,0.9822,0.9822,0.9822,0.9822,0.9822,0.9822,0.9822,0.9822,0.9822,0.9822,0.9822,0.9822,0.9822,0.9822,0.9822,0.9747,0.9605,0.9483,0.934,0.0,0.0,0.0,0.0,0.8248,0.0,0.0,0.0,0.0,0.0,0.0,0.0,0.0,0.0,0.0,0.0,0.0,0.0,0.0,0.0,0.0,0.0,0.0,0.0,0.0,0.0,0.0,0.7446,0.7536,0.7678,0.7801,0.7828,0.7896,0.7988,0.7988,0.7988,0.7988,0.7988,0.7988,0.7988,0.7988,0.7988,0.7988,0.7988,0.7988,0.7988,0.7988,0.7988,0.7988,0.7988,0.7988,0.7995,0.8029,0.8174,0.8347,0.8347,0.8347,0.8368,0.8459,0.8425,0.8343,0.8486,0.8628,0.8737,0.8737,0.8832,0.8885,0.8885,0.8885,0.8885,0.8885,0.8885,0.8885,0.8885,0.8885,0.8885,0.8885,0.8885,0.8885,0.8885,0.8885,0.8892,0.8925,0.8932,0.8932,0.8932,0.9225,0.9401,0.9381,0.9639,0.9815,0.9795,0.9815,0.9822,0.9822,0.9822,0.9822,0.9822,0.9822,0.9822,0.9822,0.9822,0.9822,0.9822,0.9822,0.9822,0.9822,0.9822,0.9747,0.9612,0.9591,0.9503,0.0,0.0,0.0,0.0,0.0,0.0,0.8201,0.0,0.7975,0.0,0.0,0.0,0.0,0.0,0.0,0.0,0.0,0.0,0.0,0.0,0.0,0.0,0.0,0.0,0.0,0.0,0.0,0.0,0.0,0.7624,0.7685,0.7848,0.7921,0.7988,0.7988,0.7988,0.7988,0.7988,0.7988,0.7988,0.7988,0.7988,0.7988,0.7988,0.7988,0.7988,0.7988,0.7988,0.7988,0.7988,0.7988,0.7988,0.7988,0.8029,0.814,0.814,0.814,0.816,0.8309,0.8374,0.8347,0.8438,0.8587,0.871,0.871,0.8818,0.8885,0.8885,0.8885,0.8885,0.8885,0.8885,0.8885,0.8885,0.8885,0.8885,0.8885,0.8885,0.8885,0.8885,0.8885,0.8885,0.8885,0.8885,0.8885,0.8885,0.9191,0.9381,0.9381,0.9639,0.9822,0.9822,0.9747,0.9734,0.9815,0.9747,0.97,0.97,0.97,0.9734,0.9815,0.9822,0.9822,0.9822,0.9822,0.9822,0.9822,0.9822,0.9788,0.9734,0.9646,0.9578,0.8002,0.0,0.0,0.0,0.0,0.0,0.0,0.0,0.0,0.0,0.0,0.0,0.0,0.0,0.0,0.0,0.0,0.0,0.0,0.0,0.0,0.0,0.0,0.0,0.0,0.0,0.0,0.0,0.0,0.0,0.7536,0.778,0.7887,0.7928,0.7968,0.7988,0.7988,0.7988,0.7988,0.7988,0.7988,0.7988,0.7988,0.7988,0.7988,0.7988,0.7988,0.7988,0.7988,0.7988,0.7988,0.7988,0.7988,0.7988,0.7988,0.7988,0.7988,0.8008,0.8167,0.8208,0.8221,0.833,0.8492,0.8648,0.8648,0.8784,0.8885,0.8885,0.8885,0.8885,0.8885,0.8885,0.8885,0.8885,0.8885,0.8885,0.8885,0.8885,0.8885,0.8885,0.8885,0.8885,0.8885,0.8885,0.8885,0.8885,0.9157,0.932,0.932,0.9544,0.972,0.9761,0.9673,0.9666,0.9808,0.9727,0.9666,0.9666,0.9666,0.9693,0.9761,0.9802,0.9802,0.9768,0.9802,0.9822,0.9822,0.9822,0.9822,0.9822,0.9713,0.9666,0.0,0.0,0.0,0.8069,0.0,0.0,0.0,0.0,0.8221,0.0,0.0,0.0,0.0,0.0,0.7543,0.7439,0.0,0.0,0.0,0.0,0.0,0.0,0.0,0.0,0.0,0.0,0.0,0.0,0.0,0.0,0.7419,0.7529,0.7678,0.7814,0.7914,0.7988,0.7988,0.7988,0.7988,0.7988,0.7988,0.7988,0.7988,0.7988,0.7988,0.7988,0.7988,0.7988,0.7988,0.7988,0.7988,0.7988,0.7988,0.7988,0.7988,0.7988,0.7988,0.7988,0.7995,0.7995,0.7995,0.8002,0.8248,0.8486,0.8486,0.8703,0.8885,0.8885,0.8885,0.8885,0.8885,0.8885,0.8885,0.8885,0.8885,0.8885,0.8885,0.8885,0.8885,0.8885,0.8885,0.8885,0.8885,0.8885,0.8885,0.8885,0.9062,0.9214,0.9214,0.93,0.9449,0.9598,0.9612,0.9666,0.9808,0.9815,0.9815,0.9815,0.9815,0.9754,0.9618,0.9747,0.9754,0.9618,0.9747,0.9822,0.9822,0.9822,0.9822,0.9822,0.9815,0.9815,0.0,0.0,0.856,0.8269,0.0,0.0,0.0,0.0,0.0,0.0,0.0,0.0,0.0,0.0,0.7692,0.7543,0.7441,0.7319,0.0,0.0,0.0,0.0,0.0,0.0,0.0,0.0,0.0,0.0,0.0,0.0,0.0,0.7604,0.776,0.7807,0.7914,0.7988,0.7988,0.7988,0.7988,0.7988,0.7988,0.7988,0.7988,0.7988,0.7988,0.7988,0.7988,0.7988,0.7988,0.7988,0.7988,0.7988,0.7988,0.7988,0.7988,0.7988,0.7988,0.7988,0.7988,0.7988,0.7988,0.7988,0.8241,0.8479,0.8479,0.8696,0.8885,0.8885,0.8885,0.8885,0.8885,0.8885,0.8885,0.8885,0.8885,0.8885,0.8885,0.8885,0.8885,0.8885,0.8885,0.8885,0.8885,0.8885,0.8885,0.8885,0.9062,0.9207,0.9207,0.9344,0.9442,0.9591,0.9517,0.9557,0.9802,0.9734,0.972,0.9815,0.9734,0.97,0.9747,0.9795,0.9795,0.9747,0.9795,0.9822,0.9822,0.9822,0.9822,0.9822,0.9822,0.9822,0.8984,0.9563,0.0,0.9812,0.9903,0.0,0.962,0.0,0.0,0.0,0.0,0.0,0.0,0.0,0.7767,0.7624,0.7468,0.7319,0.0,0.7098,0.0,0.0,0.0,0.0,0.0,0.0,0.0,0.7018,0.7065,0.0,0.0,0.0,0.7733,0.7733,0.7887,0.7988,0.7988,0.7988,0.7988,0.7988,0.7988,0.7988,0.7988,0.7988,0.7988,0.7988,0.7988,0.7988,0.7988,0.7988,0.7988,0.7988,0.7988,0.7988,0.7988,0.7988,0.7988,0.7988,0.7988,0.7988,0.7988,0.7988,0.8241,0.8479,0.8479,0.8696,0.8885,0.8885,0.8885,0.8885,0.8885,0.8885,0.8885,0.8885,0.8885,0.8885,0.8885,0.8885,0.8885,0.8885,0.8885,0.8885,0.8885,0.8885,0.8885,0.8885,0.9015,0.9076,0.9076,0.9164,0.93,0.9503,0.9442,0.9503,0.9795,0.9734,0.9727,0.9815,0.9734,0.97,0.9741,0.9795,0.9822,0.9822,0.9822,0.9849,0.9903,0.9849,0.9822,0.9822,0.9822,0.9822]}]]